     2              OBSERVATION DATA    GPS                 RINEX VERSION / TYPE
srx v1.3 (5/19/93) STARR 93/10/11 17:25:22                  PGM / RUN BY / DATE
                                                            COMMENT
sig: 9 8 7 6 5 4 1 0                                        COMMENT
sig: 9 8 7 6 5 4 1 0                                        COMMENT
sig: 9 8 7 6 5 4 1 0                                        COMMENT
Original Marker Name: 3064                                  COMMENT
Campaign Name: Baja (Dixon) 1993                            COMMENT
4-Character Station Name: 3064                              COMMENT
6-Character Antenna Code: DMRCHT                            COMMENT
Vertical Measurement Point: BPA                             COMMENT
Vertical Offset to Rinex Ref. Point: 0.0000                 COMMENT
Radial Measurement Point: RRP                               COMMENT
Radial Offset to Rinex Ref. Point: 0.0000                   COMMENT
Antenna Height from Field Measurement: 0.0614 m             COMMENT
Additional Antenna Identification Info.:                    COMMENT
Turborogue and Ashtech Choke Ring                           COMMENT
Original XYZ: -2493309.0382 -4655182.3466 3565500.9443      COMMENT
New XYZ position is based on association with SCEC monument COMMENT
E1C2W8L6+0011. Position of that monument is believed to be  COMMENT
valid to within 1 m horizontally; vertical accuracy         COMMENT
should be no worse than 3-times this value.                 COMMENT
                                                            COMMENT
Revised Rinex header created by UCSD GPS archive for        COMMENT
GSAC on 09-Nov-2004 (2004:314) 21:59:36 GMT                 COMMENT
For assistance contact dagnew@ucsd.edu                      COMMENT
or anderson@python.ucsd.edu                                 COMMENT
                                                            COMMENT
3064S                                                       MARKER NAME
THE OBSERVER WAS?___JET PROPULSION LABORATORY               OBSERVER / AGENCY
117 TURBOROGUE SNR-8000 100.1                               REC # / TYPE / VERS
117 DORNE-MARGOL. TYPE T                                    ANT # / TYPE
 -2395442.0000 -4866066.0000  3346242.0000                  APPROX POSITION XYZ
        0.0614        0.0000        0.0000                  ANTENNA: DELTA H/E/N
     1     1     0                                          WAVELENGTH FACT L1/2
     4    L1    L2    P1    P2                              # / TYPES OF OBSERV
   120                                                      INTERVAL
  1993     4     9     0     0    0.000000                  TIME OF FIRST OBS
  1993     4     9    23    58    0.000000                  TIME OF LAST OBS
    23                                                      # OF SATELLITES
          01  2568  2568  2568  2568                        PRN / # OF OBS
          02  2724  2724  2724  2724                        PRN / # OF OBS
          03  2630  2630  2630  2630                        PRN / # OF OBS
          11  2887  2887  2887  2887                        PRN / # OF OBS
          12  2888  2888  2888  2888                        PRN / # OF OBS
          13  2428  2428  2428  2428                        PRN / # OF OBS
          14  2197  2197  2197  2197                        PRN / # OF OBS
          15  2617  2617  2617  2617                        PRN / # OF OBS
          16  2143  2143  2143  2143                        PRN / # OF OBS
          17  2783  2783  2783  2783                        PRN / # OF OBS
          18  2502  2502  2502  2502                        PRN / # OF OBS
          19  2901  2901  2901  2901                        PRN / # OF OBS
          20  2598  2598  2598  2598                        PRN / # OF OBS
          21  2737  2737  2737  2737                        PRN / # OF OBS
          22  2891  2891  2891  2891                        PRN / # OF OBS
          23  2540  2540  2540  2540                        PRN / # OF OBS
          24  2400  2400  2400  2400                        PRN / # OF OBS
          25  2477  2477  2477  2477                        PRN / # OF OBS
          26  3303  3303  3303  3303                        PRN / # OF OBS
          27  2733  2733  2733  2733                        PRN / # OF OBS
          28  3238  3238  3238  3238                        PRN / # OF OBS
          29  2568  2568  2568  2568                        PRN / # OF OBS
                                                            END OF HEADER
 93 04 09 00 00 00.0000000  0  6 27 12 24 26 13 02
 -25636555.18208 -19976532.69708  15729805.59508  15729813.10808
  -6906746.31908  -5381874.77708  16141143.96208  16141149.85308
 -10655729.16108  -8303126.14408  15456506.08508  15456513.83208
 -22360761.92008 -17423951.93608  15241363.08608  15241368.37208
 -34144380.16309 -26605922.03308  12062089.49809  12062092.61508
 -32976665.13108 -25696065.89508  13531079.02808  13531082.14308
 93 04 09 00 02 00.0000000  0  6 27 12 24 26 13 02
 -25289175.57408 -19705848.14608  15795910.37208  15795918.15308
  -7398398.82408  -5764980.20608  16047585.21808  16047591.10008
 -11182076.98708  -8713266.26408  15356344.62108  15356352.10208
 -22238246.95208 -17328486.03108  15264677.20608  15264682.58608
 -34284638.70009 -26715214.28208  12035399.12109  12035402.20208
 -32931570.13508 -25660927.01708  13539660.39608  13539663.49908
 93 04 09 00 04 00.0000000  0  6 27 12 24 26 13 02
 -24939240.46308 -19433172.31308  15862501.56608  15862509.44508
  -7889149.77608  -6147383.13608  15954198.09708  15954203.79208
 -11706496.72408  -9121903.96908  15256550.11108  15256557.42708
 -22111160.79908 -17229458.08708  15288861.02208  15288866.34908
 -34415843.45809 -26817451.65108  12010431.58109  12010434.70708
 -32882612.26208 -25622778.11308  13548976.89308  13548980.05408
 93 04 09 00 06 00.0000000  0  6 27 12 24 26 13 02
 -24586926.80208 -19158643.11808  15929545.22308  15929553.34908
  -8378881.61908  -6528991.94908  15861004.91308  15861010.56808
 -12228703.44808  -9528817.29608  15157176.77208  15157183.78808
 -21979757.06608 -17127065.82308  15313866.48208  15313871.93608
 -34538087.97109 -26912707.02908  11987169.18209  11987172.22708
 -32829920.84508 -25581719.94708  13559003.71308  13559006.93908
 93 04 09 00 08 00.0000000  0  6 27 12 24 26 13 02
 -24232389.43108 -18882381.17508  15997012.18808  15997020.50308
  -8867518.37808  -6909747.48008  15768020.12908  15768025.76808
 -12748834.08008  -9934112.89108  15058198.37008  15058205.17708
 -21844075.54208 -17021340.31808  15339686.12508  15339691.60308
 -34651510.84409 -27001088.41608  11965585.47809  11965588.49008
 -32773341.67208 -25537632.35508  13569770.43808  13569773.72308
 93 04 09 00 10 00.0000000  0  6 27 12 26 13 02 24
 -23875697.75608 -18604440.58208  16064889.08808  16064897.65708
  -9354722.83508  -7289386.93708  15675307.91308  15675313.35408
 -21704237.72508 -16912376.24808  15366296.71208  15366302.33408
 -34755994.41409 -27082504.10508  11945702.85509  11945705.83208
 -32712890.15808 -25490527.35808  13581274.03608  13581277.32908
 -13266333.75808 -10337358.39708  14959720.65308  14959727.16208
 93 04 09 00 12 00.0000000  0  6 27 12 26 13 02 24
 -23516831.78608 -18324805.79108  16133179.82808  16133188.56508
  -9840462.59108  -7667884.99308  15582874.42308  15582879.73008
 -21560787.23308 -16800597.09608  15393594.74208  15393600.50508
 -34851742.62809 -27157113.02008  11927482.51509  11927485.48808
 -32648002.50508 -25439965.66608  13593621.84408  13593625.10108
 -13781055.62308 -10738439.44408  14861771.62808  14861777.95208
 93 04 09 00 14 00.0000000  0  6 27 12 26 13 02 24
 -23156509.25208 -18044036.06708  16201747.68708  16201756.78708
 -10324739.36308  -8045243.01008  15490719.24008  15490724.43408
 -21413835.53208 -16686089.72608  15421558.97208  15421564.89708
 -34938997.50309 -27225103.77208  11910878.41509  11910881.38408
 -32579049.33608 -25386236.04708  13606743.23908  13606746.51508
 -14293121.50308 -11137451.00508  14764328.05308  14764334.24208
 93 04 09 00 16 00.0000000  0  6 27 12 26 13 02 24
 -22794814.17408 -17762196.85608  16270576.88808  16270586.34508
 -10807278.61108  -8421247.15908  15398894.75708  15398899.76508
 -21263288.87608 -16568781.07608  15450207.53508  15450213.55008
 -35017729.41409 -27286453.28408  11895896.20109  11895899.17808
 -32506448.77108 -25329664.31208  13620558.82408  13620562.13208
 -14802561.61608 -11534416.57408  14667384.32908  14667390.28708
 93 04 09 00 18 00.0000000  0  6 27 12 26 13 02 24
 -22431232.91408 -17478887.92708  16339764.82108  16339774.62208
 -11287794.16608  -8795674.46908  15307455.39908  15307460.27808
 -21109163.82608 -16448684.03308  15479536.75008  15479542.91508
 -35087904.82609 -27341135.40608  11882542.25109  11882545.23108
 -32429627.19208 -25269803.48008  13635177.54308  13635180.93608
 -15308633.09908 -11928757.20508  14571081.54008  14571087.29908
 93 04 09 00 20 00.0000000  0  6 27 12 26 13 02 24
 -22066307.45208 -17194531.58108  16409208.74108  16409218.83208
 -11766206.71808  -9168463.11408  15216416.21508  15216421.05508
 -20952091.07808 -16326290.10608  15509427.09008  15509433.34908
 -35149705.81109 -27389291.97108  11870781.87509  11870784.83208
 -32348188.23908 -25206344.69008  13650674.95008  13650678.39108
 -15811095.03608 -12320285.19908  14475465.71008  14475471.20908
 93 04 09 00 22 00.0000000  0  6 12 27 26 13 24 02
 -12242256.12408  -9539410.35408  15125826.73708  15125831.47708
 -21699984.76408 -16909086.64708  16478918.75408  16478928.90008
 -20792060.41308 -16201591.41208  15539880.30308  15539886.65408
 -35203138.46309 -27430927.74808  11860613.93609  11860616.87408
 -16309877.74708 -12708946.29808  14380549.92208  14380555.25308
 -32262692.66308 -25139724.87508  13666944.34208  13666947.74008
 93 04 09 00 24 00.0000000  0  6 12 27 26 13 24 02
 -12715841.04608  -9908437.24808  15035706.31508  15035710.97208
 -21332589.81908 -16622806.26208  16548832.56908  16548843.39608
 -20629019.74908 -16074547.30608  15570906.37308  15570912.82308
 -35248375.91409 -27466177.64708  11852005.45809  11852008.41008
 -16805030.84708 -13094779.18508  14286324.87708  14286330.04808
 -32172967.87708 -25069809.57908  13684018.44908  13684021.86908
 93 04 09 00 26 00.0000000  0  6 26 27 13 12 24 02
 -20463448.90408 -15945531.60408  15602413.94408  15602420.37308
 -20964008.01908 -16335600.98807  16618972.36308  16618983.23607
 -35285351.80909 -27494989.98208  11844969.13209  11844972.06408
 -13186614.77108 -10275273.63008  14946120.82108  14946125.36608
 -17296183.72908 -13477495.09208  14192861.12108  14192866.12808
 -32078430.53208 -24996144.26408  13702008.39108  13702011.90908
 93 04 09 00 28 00.0000000  0  6 26 27 13 12 24 02
 -20294787.36908 -15814107.55008  15634509.52108  15634516.05208
 -20594324.44108 -16047537.30108  16689322.09208  16689333.43008
 -35314221.34709 -27517485.69808  11839475.44809  11839478.33108
 -13654450.08608 -10639820.33008  14857094.51208  14857098.95608
 -17783032.58508 -13856857.25408  14100216.40608  14100221.31508
 -31979570.33908 -24919110.50908  13720821.01408  13720824.61108
 93 04 09 00 30 00.0000000  0  6 26 27 13 12 24 02
 -20124289.47108 -15681252.67808  15666954.49208  15666961.52808
 -20224047.70907 -15759011.54607  16759784.39607  16759795.94907
 -35335168.74209 -27533808.32208  11835489.28109  11835492.13508
 -14119238.45708 -11001992.79808  14768647.95008  14768652.35508
 -18265301.90908 -14232650.99708  14008443.12108  14008447.96008
 -31876144.97008 -24838519.46908  13740502.34708  13740505.89608
 93 04 09 00 32 00.0000000  0  6 26 27 13 12 24 02
 -19951617.12508 -15546703.48108  15699813.62808  15699820.47308
 -19853074.33208 -15469942.79508  16830379.64408  16830391.60708
 -35348266.88109 -27544014.64008  11832996.76209  11832999.64008
 -14580760.70208 -11361620.24108  14680822.99408  14680827.31908
 -18743118.81008 -14604975.35708  13917517.26308  13917521.93008
 -31768145.22108 -24754363.96708  13761054.15508  13761057.72508
 93 04 09 00 34 00.0000000  0  6 26 27 13 12 24 02
 -19776784.87808 -15410471.23308  15733083.45108  15733090.63008
 -19481739.65708 -15180592.78907  16901043.33208  16901055.63007
 -35353702.30809 -27548250.00408  11831962.43309  11831965.26908
 -15038898.18408 -11718610.19208  14593642.11808  14593646.37608
 -19216132.26508 -14973556.79908  13827505.45608  13827509.96708
 -31655740.05308 -24666775.69308  13782444.25108  13782447.89508
 93 04 09 00 36 00.0000000  0  6 26 27 13 12 24 02
 -19600133.97108 -15272821.84108  15766699.57708  15766706.98508
 -19109755.07607 -14890736.14707  16971830.93507  16971843.48407
 -35351592.46509 -27546605.94408  11832363.86909  11832366.73408
 -15493465.41508 -12072818.10608  14507140.60608  14507144.78408
 -19684110.76408 -15338214.92108  13738451.81908  13738456.18308
 -31538502.14208 -24575421.65808  13804753.93608  13804757.61008
 93 04 09 00 38 00.0000000  0  5 26 13 12 24 02
 -19421666.70008 -15133757.16408  15800661.30308  15800669.04908
 -35342062.14009 -27539179.71008  11834177.44009  11834180.28608
 -15944277.49608 -12424099.92908  14421353.68208  14421357.77608
 -20147065.60608 -15698958.53708  13650354.12908  13650358.32208
 -31416737.83008 -24480540.54608  13827925.09108  13827928.74308
 93 04 09 00 40 00.0000000  0  5 26 13 12 24 02
 -19241910.77108 -14993688.44108  15834868.30408  15834875.90808
 -35325189.56409 -27526032.26008  11837388.21209  11837391.05508
 -16391098.65608 -12772272.00308  14336326.24208  14336330.24908
 -20604730.06908 -16055579.79808  13563263.15308  13563267.23908
 -31290444.51608 -24382130.32608  13851958.01408  13851961.75408
 93 04 09 00 42 00.0000000  0  5 26 13 12 24 02
 -19060816.67008 -14852577.08308  15869330.14508  15869338.25008
 -35301212.54309 -27507348.88108  11841950.86209  11841953.72308
 -16833853.07408 -13117275.23608  14252072.72408  14252076.70408
 -21056978.50508 -16407980.77708  13477202.87508  13477206.90108
 -31159422.43908 -24280035.33508  13876890.73208  13876894.53708
 93 04 09 00 44 00.0000000  0  5 26 13 12 24 02
 -18878528.95408 -14710535.56008  15904018.68208  15904027.07908
 -35270031.32109 -27483051.83808  11847884.48309  11847887.33708
 -17272118.35308 -13458780.45808  14168673.45808  14168677.45608
 -21503527.96708 -16755940.99208  13392227.00908  13392230.97208
 -31023534.17108 -24174148.51508  13902749.52308  13902753.42508
 93 04 09 00 46 00.0000000  0  5 26 13 24 12 02
 -18694957.49408 -14567493.67808  15938952.13008  15938960.17608
 -35231682.65509 -27453169.77908  11855182.02909  11855184.83208
 -21944085.18208 -17099231.90908  13308391.37108  13308395.25708
 -17705608.67308 -13796564.92908  14086182.83908  14086186.79708
 -30882770.98808 -24064463.08508  13929536.03608  13929539.94108
 93 04 09 00 48 00.0000000  0  5 26 13 24 12 02
 -18510417.66308 -14423697.22208  15974069.45208  15974077.82608
 -35186426.72809 -27417905.45008  11863793.94709  11863796.80008
 -22378325.81308 -17437600.83408  13225757.85108  13225761.61108
 -18134257.63508 -14130576.90008  14004613.48808  14004617.35908
 -30737052.10408 -23950916.07308  13957265.62708  13957269.46208
 93 04 09 00 50 00.0000000  0  5 26 13 24 12 02
 -18325216.18808 -14279385.42008  16009312.77508  16009321.70608
 -35134366.56909 -27377339.13208  11873700.68309  11873703.54208
 -22806345.50508 -17771122.31308  13144308.15208  13144311.85008
 -18557842.44008 -14460642.77108  13924007.81708  13924011.64208
 -30586394.72808 -23833520.89708  13985934.86708  13985938.66408
 93 04 09 00 52 00.0000000  0  5 26 13 24 12 02
 -18139253.75708 -14134480.47007  16044701.16508  16044709.75807
 -35075508.16009 -27331475.45908  11884901.09809  11884903.95308
 -23227457.37908 -18099261.12808  13064172.93008  13064176.61008
 -18976039.64208 -14786510.50608  13844427.39608  13844431.16708
 -30430529.22308 -23712067.45408  14015595.27108  14015599.17208
 93 04 09 00 54 00.0000000  0  4 13 24 12 02
 -35010097.01709 -27280505.73708  11897348.43609  11897351.25308
 -23641952.76508 -18422244.26808  12985296.90808  12985300.52108
 -19388761.64508 -15108111.87208  13765888.86508  13765892.54308
 -30269652.96008 -23586709.54008  14046209.09708  14046213.13408
 93 04 09 00 56 00.0000000  0  5 26 13 24 12 02
         0.09218        -0.05017  16115829.15918  16115838.52217
 -34938265.29809 -27224532.96208  11911017.53509  11911020.38708
 -24049864.96308 -18740097.66108  12907673.59708  12907677.10608
 -19795809.19008 -15425291.58708  13688430.08908  13688433.74108
 -30103537.26708 -23457268.97908  14077820.05908  14077824.21308
 93 04 09 00 58 00.0000000  0  5 26 13 24 12 02
    187154.38807    145833.28808  16151443.92807  16151454.26108
 -34860081.04409 -27163610.16408  11925895.47409  11925898.33008
 -24450420.51908 -19052218.60008  12831450.17508  12831453.61908
 -20196916.78808 -15737842.76408  13612101.69708  13612105.29108
 -29932665.55308 -23324122.43708  14110336.06308  14110340.16408
 93 04 09 01 00 00.0000000  0  5 26 13 24 12 02
    374446.43108    291773.85308  16187085.86108  16187096.06508
 -34775729.21109 -27097881.48408  11941947.15009  11941949.96208
 -24843792.31708 -19358741.80908  12756593.80108  12756597.16408
 -20591934.79408 -16045648.79808  13536932.13108  13536935.71508
 -29756786.25508 -23187073.88608  14143804.89508  14143809.09808
 93 04 09 01 02 00.0000000  0  5 26 13 12 24 02
    561483.13907    437515.39207  16222678.62207  16222688.97307
 -34685300.55009 -27027417.63008  11959155.16209  11959157.99808
 -20980621.40008 -16348521.29508  13462967.38308  13462970.88108
 -25229940.15608 -19659635.96608  12683112.12308  12683115.43708
 -29575431.97208 -23045759.12408  14178315.75608  14178319.99308
 93 04 09 01 04 00.0000000  0  5 26 24 12 02 13
    748160.94008    582977.27908  16258203.45508  16258214.12508
 -25608525.37308 -19954637.19408  12611069.56708  12611072.84008
 -21362816.19508 -16646335.28508  13390238.02608  13390241.46108
 -29388988.48408 -22900478.73308  14213794.92608  14213799.25008
 -34588966.15309 -26952351.91908  11977487.00809  11977489.88908
 93 04 09 01 06 00.0000000  0  5 26 24 12 02 13
    934603.14407    728255.42208  16293683.14707  16293694.32808
 -25979615.92908 -20243798.43708  12540453.23808  12540456.40308
 -21738482.00508 -16939061.77908  13318751.12908  13318754.57208
 -29197662.37708 -22751393.71708  14250203.11908  14250207.64908
 -34487025.33009 -26872917.56408  11996885.71609  11996888.59808
 93 04 09 01 08 00.0000000  0  5 26 12 24 02 13
   1120584.03607    873174.10707  16329075.33007  16329086.78107
 -22107289.84608 -17226444.39708  13248569.18208  13248572.69108
 -26342753.93508 -20526762.89108  12471350.20808  12471353.31708
 -29001086.76108 -22598218.18108  14287610.43108  14287614.97308
 -34379480.47209 -26789116.42308  12017350.89409  12017353.78708
 93 04 09 01 10 00.0000000  0  5 26 12 24 02 13
   1305722.68207   1017436.39007  16364307.21607  16364319.12407
 -22469095.97008 -17508371.10708  13179719.65208  13179723.10308
 -26697940.20508 -20803531.22908  12403760.32108  12403763.39708
 -28799357.32408 -22441026.68308  14325998.53508  14326003.06308
 -34266516.59409 -26701092.67908  12038847.24809  12038850.11308
 93 04 09 01 12 00.0000000  0  5 26 12 24 13 02
   1489873.53508   1160928.79108  16399351.34208  16399363.73808
 -22823641.73608 -17784640.37808  13112251.71908  13112255.12408
 -27045044.67008 -21074002.02208  12337708.34308  12337711.38008
 -34148204.38209 -26608901.37208  12061361.31409  12061364.19608
 -28592805.39608 -22280077.39308  14365304.22808  14365308.85508
 93 04 09 01 14 00.0000000  0  5 26 12 24 13 02
   1673125.22208   1303720.39208  16434224.31308  16434237.22808
 -23170755.39908 -18055118.38508  13046198.07608  13046201.46708
 -27383926.47508 -21338065.57408  12273221.18308  12273224.17508
 -34024700.19609 -26512664.35708  12084863.36509  12084866.27108
 -28380997.09508 -22115032.24308  14405610.22908  14405614.95108
 93 04 09 01 16 00.0000000  0  5 26 12 24 13 02
   1855217.06407   1445608.03807  16468876.91407  16468890.20007
 -23510312.60108 -18319708.26208  12981582.37408  12981585.69708
 -27714524.97508 -21595674.61308  12210310.23908  12210313.21008
 -33896204.42309 -26412537.80208  12109315.33209  12109318.23608
 -28163823.04408 -21945805.99708  14446937.28408  14446942.11808
 93 04 09 01 18 00.0000000  0  4 12 24 13 02
 -23842203.20608 -18578324.20308  12918425.58808  12918428.92308
 -28036845.18008 -21846833.02408  12148974.54108  12148977.47108
 -33762927.78908 -26308685.92108  12134677.05608  12134679.99808
 -27941796.67608 -21772798.71808  14489187.76008  14489192.69608
 93 04 09 01 20 00.0000000  0  4 12 24 13 02
 -24166217.47908 -18830802.78508  12856767.67308  12856770.99108
 -28350674.48708 -22091375.18208  12089254.68608  12089257.59308
 -33624978.75308 -26201193.23908  12160927.92708  12160930.86108
 -27714834.31208 -21595945.20208  14532377.49308  14532382.37508
 93 04 09 01 22 00.0000000  0  4 12 24 13 02
 -24482169.78908 -19076999.33508  12796643.89908  12796647.16708
 -28655733.96208 -22329083.69508  12031203.67508  12031206.50808
 -33482487.83708 -26090161.45708  12188043.09908  12188046.07208
 -27482764.06508 -21415111.53208  14576539.10708  14576544.14108
 93 04 09 01 24 00.0000000  0  4 12 24 13 02
 -24789868.64508 -19316764.59408  12738090.66808  12738093.95508
 -28952133.50908 -22560044.21208  11974800.58308  11974803.35208
 -33335572.54708 -25975682.10708  12216000.20008  12216003.17908
 -27245643.14308 -21230342.27708  14621662.03008  14621667.12508
 93 04 09 01 26 00.0000000  0  4 12 24 13 02
 -25089123.93708 -19549950.41708  12681144.20308  12681147.46608
 -29239694.86208 -22784117.83808  11920079.34608  11920082.07508
 -33184350.15808 -25857846.55608  12244776.95508  12244779.95708
 -27003570.59008 -21041714.61708  14667727.13708  14667732.27308
 93 04 09 01 28 00.0000000  0  4 12 24 13 02
 -25379830.92408 -19776475.21908  12625824.39508  12625827.58608
 -29518290.74208 -23001205.38308  11867064.21908  11867066.92808
 -33029020.83008 -25736810.78208  12274335.21908  12274338.18308
 -26756676.63008 -20849330.00808  14714709.63608  14714714.87708
 93 04 09 01 30 00.0000000  0  4 12 24 13 02
 -25661785.08508 -19996179.66108  12572170.20808  12572173.40408
 -29787735.77508 -23211162.40308  11815790.40908  11815793.09408
 -32869676.54408 -25612646.47708  12304657.47608  12304660.49508
 -26504365.19608 -20652724.00208  14762723.16008  14762728.41008
 93 04 09 01 32 00.0000000  0  4 12 24 13 02
 -25934665.47708 -20208813.66708  12520242.71608  12520245.92308
 -30048070.05908 -23414020.14308  11766250.32908  11766252.96608
 -32706289.76908 -25485332.18508  12335748.97608  12335752.02308
 -26247398.25708 -20452490.35408  14811622.57508  14811627.98108
 93 04 09 01 34 00.0000000  0  4 12 24 13 02
 -26198325.21309 -20414262.76508  12470069.92409  12470073.09808
 -30298987.54208 -23609540.11008  11718502.19508  11718504.79708
 -32539000.31708 -25354976.84208  12367583.16608  12367586.18008
 -25985587.44408 -20248482.27408  14861443.82608  14861449.43008
 93 04 09 01 36 00.0000000  0  5 20 24 12 13 02
        -0.90918        -0.32918  16154909.94918  16154915.78418
 -30540509.37508 -23797738.80008  11672542.04008  11672544.58508
 -26452547.05309 -20612357.67008  12421693.07609  12421696.25008
 -32367872.16708 -25221630.30308  12400147.85908  12400150.88108
 -25718365.67708 -20040257.82008  14912294.65908  14912300.24608
 93 04 09 01 40 00.0000000  0  5 12 13 02 20 24
         0.17419        -0.06118  21324339.27719  21324342.41318
        -0.30018        -0.46618  21461252.88718  21461256.00218
        -0.79218        -0.74618  24010725.71818  24010731.40018
         0.24618         0.45317  24978395.56918  24978401.23317
        -0.47019         0.39418  20580039.19619  20580041.69518
 93 04 09 01 42 00.0000000  0  5 12 13 02 20 24
   -224491.07909   -174928.21708  21281619.91209  21281623.07208
    182437.53408    142158.77808  21495969.73008  21495972.84708
    282460.84408    220098.95808  24064476.55008  24064482.29308
   -446816.11608   -348167.84308  24893369.14708  24893374.66608
   -212104.99009   -165275.72608  20539677.00509  20539679.44608
 93 04 09 01 44 00.0000000  0  5 12 13 20 02 24
   -438760.30009   -341891.16908  21240845.77409  21240848.91608
    368438.30308    287094.34408  21531364.51908  21531367.70508
   -893019.04108   -695857.76308  24808459.01208  24808464.39608
    570029.56208    444178.25208  24119199.13408  24119205.03608
   -414185.31209   -322740.79408  20501222.27709  20501224.68908
 93 04 09 01 46 00.0000000  0  5 12 13 20 02 24
   -642606.49909   -500732.31508  21202055.05409  21202058.19508
    557954.74008    434769.40708  21567428.36908  21567431.55008
  -1338454.25708  -1042949.50908  24723695.01708  24723700.32608
    863127.82308    672566.33608  24174974.01608  24174979.92308
   -606339.02509   -472470.85308  20464656.56609  20464658.93908
 93 04 09 01 48 00.0000000  0  6 12 13 20 02 24 16
   -835836.82809   -651301.36708  21165284.52109  21165287.66208
    750939.80308    585147.30308  21604152.27008  21604155.46508
  -1782967.16408  -1389322.90408  24639106.71408  24639112.00608
   1161088.93108    904743.61908  24231674.37308  24231680.22908
   -788046.87509   -614061.27708  20430078.60409  20430080.98508
        -0.66817        -0.31117  25169833.93417  25169844.77817
 93 04 09 01 50 00.0000000  0  6 12 13 20 02 24 16
  -1018378.77509   -793541.79308  21130547.90409  21130551.02408
    947233.45308    738103.31708  21641505.77308  21641508.98208
  -2226514.83608  -1734944.21608  24554702.20708  24554707.41708
   1464193.83808   1140929.06608  24289353.51708  24289359.39608
   -959443.26209   -747616.79008  20397462.85609  20397465.20008
   -394579.68207   -307462.57807  25094746.73407  25094756.84407
 93 04 09 01 52 00.0000000  0  6 12 13 20 24 02 16
  -1190185.07709   -927416.77408  21097854.20009  21097857.31508
   1146658.96908    893499.74708  21679455.24708  21679458.46808
  -2669070.73708  -2079792.49808  24470486.31108  24470491.29408
  -1121037.79209   -873534.48708  20366712.35409  20366714.66108
   1772424.39108   1381108.51208  24348008.02408  24348013.88808
   -790593.73907   -616043.24407  25019386.17907  25019396.01407
 93 04 09 01 54 00.0000000  0  6 12 13 20 24 02 16
  -1351192.50409  -1052877.05308  21067215.45609  21067218.57708
   1349063.96008   1051217.84108  21717971.63908  21717974.90608
  -3110585.48008  -2423829.48108  24386468.41508  24386473.36508
  -1272398.32909   -991477.66109  20337909.33409  20337911.58609
   2085249.95308   1624868.53708  24407536.66808  24407542.72008
  -1188088.22008   -925777.62107  24943744.51108  24943754.00007
 93 04 09 01 56 00.0000000  0  6 12 13 20 24 02 16
  -1501324.45009  -1169862.96108  21038646.28509  21038649.36508
   1554316.76808   1211155.02708  21757030.00708  21757033.24208
  -3550988.01408  -2766999.92308  24302662.36708  24302667.25008
  -1413524.07109  -1101445.67009  20311053.88609  20311056.14909
   2402649.16908   1872192.46407  24467935.91208  24467941.94407
  -1586588.35608  -1236295.76707  24867911.39908  24867920.07807
 93 04 09 01 58 00.0000000  0  6 12 13 20 02 24 16
  -1640473.92909  -1278291.12808  21012167.00109  21012170.10308
   1762326.48708   1373240.48308  21796612.94708  21796616.25608
  -3990166.63308  -3109216.64708  24219089.15008  24219093.96608
   2724888.83908   2123288.22307  24529256.20808  24529262.25107
  -1544473.92109  -1203484.41609  20286134.89109  20286137.13609
  -1985728.00208  -1547312.37008  24791956.43408  24791965.48608
 93 04 09 02 00 00.0000000  0  6 13 20 02 24 12 16
   1972941.88208   1537356.35708  21836691.73108  21836695.06208
  -4428072.10508  -3450441.26708  24135758.11208  24135762.81808
   3052109.00008   2378264.89907  24591524.19808  24591530.11507
  -1665439.52709  -1297743.22109  20263115.82309  20263118.01209
  -1768604.64409  -1378133.23308  20987784.50409  20987787.64008
  -2386010.01008  -1859219.01607  24715784.41908  24715792.50107
 93 04 09 02 02 00.0000000  0  6 13 20 02 24 12 16
   2186069.67508   1703429.93908  21877248.56108  21877251.87208
  -4864593.39208  -3790587.33808  24052690.60808  24052695.15908
   3383706.61308   2636652.66507  24654625.02908  24654630.87507
  -1776028.87909  -1383916.64409  20242071.31109  20242073.46709
  -1885627.61209  -1469319.92608  20965515.74909  20965518.83208
  -2786782.03008  -2171507.63408  24639518.88208  24639527.25508
 93 04 09 02 04 00.0000000  0  6 13 20 02 24 12 16
   2401494.34908   1871293.29708  21918242.52808  21918245.90008
  -5299746.44408  -4129667.37508  23969883.58708  23969887.96308
   3719661.76307   2898435.89507  24718555.18807  24718560.94007
  -1876889.21109  -1462509.02409  20222878.11109  20222880.27309
  -1991588.23509  -1551886.57708  20945352.06309  20945355.15208
  -3188034.94908  -2484170.87208  24563162.07508  24563169.87808
 93 04 09 02 06 00.0000000  0  6 13 20 02 24 12 16
   2619092.20308   2040850.01408  21959650.11508  21959653.41108
  -5733451.47108  -4467619.15908  23887352.09508  23887356.47608
   4059878.90807   3163540.18207  24783296.29307  24783302.34907
  -1967825.38109  -1533368.28909  20205573.46509  20205575.57509
  -2086447.46009  -1625802.79008  20927300.91809  20927303.97508
  -3590033.54408  -2797415.40508  24486663.40008  24486670.88508
 93 04 09 02 08 00.0000000  0  6 13 20 02 16 24 12
   2838696.96908   2211970.54708  22001439.53008  22001442.81908
  -6165673.78908  -4804415.51308  23805102.70808  23805107.09908
   4404036.76107   3431715.16207  24848787.45507  24848793.35207
  -3992079.61708  -3110697.04608  24410155.95808  24410163.24508
  -2048797.55909  -1596463.40509  20190164.89609  20190167.00109
  -2170219.23509  -1691079.45908  20911359.66409  20911362.67008
 93 04 09 02 10 00.0000000  0  6 13 20 02 16 24 12
   3060257.99608   2384615.44008  22043601.24008  22043604.51808
  -6596264.43008  -5139940.25908  23723163.66308  23723168.03908
   4752349.91007   3703128.04407  24915069.08807  24915075.23007
  -4394537.92808  -3424300.10008  24333569.98108  24333576.99508
  -2120023.94009  -1651964.40009  20176610.93409  20176613.00109
  -2242814.59509  -1747647.24908  20897545.17709  20897548.21808
 93 04 09 02 12 00.0000000  0  6 13 20 02 16 24 12
   3283618.31608   2558662.38908  22086105.33408  22086108.68908
  -7025181.34908  -5474160.74508  23641543.15808  23641547.41508
   5104641.26507   3977640.70106  24982107.93007  24982113.95806
  -4797387.60308  -3738208.10208  24256909.68408  24256916.46608
  -2181463.11409  -1699839.01009  20164919.36009  20164921.42509
  -2304258.60409  -1795525.68908  20885852.73809  20885855.73808
 93 04 09 02 14 00.0000000  0  5 13 20 16 24 12
   3508716.84308   2734063.77308  22128940.21608  22128943.60508
  -7452284.30708  -5806967.80408  23560267.85408  23560271.95908
  -5199532.09108  -4051566.42608  24180383.31108  24180389.79208
  -2232988.05809  -1739988.24809  20155114.44409  20155116.50209
  -2354490.83609  -1834667.68008  20876293.79909  20876296.87208
 93 04 09 02 16 00.0000000  0  5 13 20 16 24 12
   3735415.16708   2910711.77408  22172079.49808  22172082.79208
  -7877510.87008  -6138312.86008  23479349.69408  23479353.65008
  -5601483.64308  -4364774.28708  24103893.50608  24103899.95708
  -2274928.68609  -1772669.18709  20147133.35509  20147135.35809
  -2393536.15009  -1865092.59508  20868863.74209  20868866.81208
 93 04 09 02 18 00.0000000  0  5 13 20 16 24 12
   3963587.02308   3088508.00108  22215499.20708  22215502.52808
  -8300791.91608  -6468142.04108  23398801.83108  23398805.73308
  -6003347.18708  -4677913.58008  24027420.56208  24027426.67908
  -2307487.37509  -1798039.53009  20140937.57409  20140939.58409
  -2421421.46309  -1886821.40208  20863557.35009  20863560.41108
 93 04 09 02 20 00.0000000  0  5 13 20 16 24 12
   4193111.45508   3267358.19108  22259176.21508  22259179.59908
  -8722047.23408  -6796392.76608  23318639.49208  23318643.29708
  -6404533.97908  -4990525.61908  23951076.45408  23951082.23108
  -2330386.33309  -1815882.81209  20136579.99109  20136581.99109
  -2438175.15409  -1899876.22008  20860369.22009  20860372.30808
 93 04 09 02 22 00.0000000  0  5 13 20 16 24 12
   4423922.30008   3447210.78508  22303098.02708  22303101.41708
  -9141145.45808  -7122962.60808  23238887.61808  23238891.33108
  -6805112.63608  -5302663.84908  23874848.16808  23874853.78508
  -2343897.66409  -1826411.07209  20134008.82109  20134010.84109
  -2443783.15609  -1904246.09008  20859302.04209  20859305.11808
 93 04 09 02 24 00.0000000  0  5 13 20 16 24 12
   4655927.23808   3627993.84208  22347247.14408  22347250.46508
  -9557981.16708  -7447769.38908  23159566.23108  23159569.85908
  -7204825.42908  -5614127.47008  23798784.70908  23798790.06208
  -2348121.21809  -1829702.10909  20133205.05209  20133207.06109
  -2438267.76109  -1899948.39008  20860351.60909  20860354.67108
 93 04 09 02 26 00.0000000  0  5 20 13 16 24 12
  -9972451.25908  -7770732.76408  23080694.90908  23080698.50208
   4889033.48108   3809635.05208  22391605.78908  22391609.11908
  -7603387.01808  -5924694.06308  23722940.33408  23722945.36508
  -2342973.31809  -1825690.70909  20134184.64109  20134186.60409
  -2421661.58709  -1887008.54408  20863511.64809  20863514.74308
 93 04 09 02 28 00.0000000  0  5 20 13 16 24 12
 -10384416.69908  -8091744.43808  23002300.23408  23002303.72808
   5123185.13608   3992090.83908  22436163.34908  22436166.76208
  -8000760.74708  -6234335.13008  23647321.92408  23647326.89508
  -2328527.91309  -1814434.49809  20136933.47909  20136935.44509
  -2393971.17009  -1865431.63108  20868780.98609  20868784.07808
 93 04 09 02 30 00.0000000  0  5 20 13 16 24 12
 -10793798.35208  -8410742.76108  22924397.16408  22924400.66108
   5358261.51608   4175267.19208  22480896.92708  22480900.42508
  -8396814.76308  -6542947.94408  23571954.86708  23571959.53408
  -2305068.78109  -1796154.61209  20141397.54109  20141399.50209
  -2355274.54209  -1835278.45208  20876144.72109  20876147.83108
 93 04 09 02 32 00.0000000  0  5 20 13 16 24 12
 -11200517.00508  -8727666.02908  22847000.89808  22847004.31008
   5594152.79508   4359078.54208  22525785.67508  22525789.02008
  -8791302.93908  -6850340.69208  23496885.75908  23496890.36608
  -2272782.34009  -1770996.29709  20147541.36509  20147543.35509
  -2305658.43709  -1796616.59208  20885586.38909  20885589.49508
 93 04 09 02 34 00.0000000  0  5 20 13 16 24 12
 -11604459.57208  -9042426.15708  22770132.91108  22770136.24708
   5830774.74808   4543459.26408  22570813.37008  22570816.68108
  -9183995.48008  -7156334.32208  23422158.38708  23422162.84208
  -2231949.84409  -1739178.72009  20155311.51009  20155313.43809
  -2245185.35909  -1749494.76008  20897094.06609  20897097.16808
 93 04 09 02 36 00.0000000  0  5 20 13 16 24 12
 -12005492.44008  -9354919.08108  22693818.66808  22693821.92508
   6068071.61308   4728365.90108  22615969.36608  22615972.79908
  -9575100.71608  -7461091.15708  23347733.20508  23347737.52708
  -2182228.01409  -1700434.38809  20164773.25309  20164775.16609
  -2173904.19709  -1693951.03608  20910658.43709  20910661.55508
 93 04 09 02 38 00.0000000  0  5 20 13 16 24 12
 -12403533.47508  -9665080.77308  22618073.89908  22618077.11508
   6305931.42108   4913711.18408  22661232.53108  22661236.00608
  -9964330.20808  -7764386.42008  23273664.90008  23273669.07008
  -2123989.22309  -1655053.46609  20175855.65909  20175857.56409
  -2091928.66409  -1630074.02708  20926257.87409  20926261.00608
 93 04 09 02 40 00.0000000  0  5 20 13 16 24 12
 -12798467.41208  -9972821.36508  22542920.37308  22542923.54908
   6544280.86808   5099437.96508  22706589.01308  22706592.43908
 -10351428.54408  -8066021.08608  23200002.30208  23200006.32208
  -2057092.35209  -1602925.99509  20188585.68709  20188587.59709
  -1999346.49309  -1557932.09708  20943875.72109  20943878.83708
 93 04 09 02 42 00.0000000  0  5 20 13 16 24 12
 -13190165.78608 -10278040.72008  22468382.51608  22468385.62208
   6783056.75108   5285497.05608  22752026.53708  22752030.05208
 -10736074.82608  -8365745.05208  23126806.18408  23126810.19708
  -1981876.87709  -1544316.51009  20202898.70109  20202900.61309
  -1896241.41509  -1477590.49008  20963495.98009  20963499.10108
 93 04 09 02 44 00.0000000  0  5 12 20 13 16 24
  -1782737.55008  -1389145.93808  20985095.07008  20985098.16008
 -13578532.40908 -10580663.87708  22394478.66708  22394481.70708
   7022167.49708   5471817.08608  22797527.79908  22797531.31008
 -11118676.01708  -8663875.43508  23053999.34408  23054003.20408
  -1898871.00409  -1479636.58509  20218694.14009  20218696.02909
 93 04 09 02 46 00.0000000  0  5 12 20 13 16 24
  -1658943.61208  -1292683.15608  21008652.25508  21008655.35208
 -13963444.39808 -10880595.06908  22321232.19108  22321235.15908
   7261546.87208   5658346.41608  22843080.24208  22843083.70508
 -11498578.03208  -8959902.59108  22981706.02708  22981709.82408
  -1807748.45309  -1408631.97409  20236034.16609  20236036.07609
 93 04 09 02 48 00.0000000  0  5 12 20 13 16 24
  -1524998.74008  -1188310.56408  21034141.12208  21034144.22808
 -14344802.40008 -11177756.87708  22248661.98508  22248664.90708
   7501107.48108   5845016.99708  22888667.14108  22888670.61208
 -11875476.91408  -9253589.66308  22909984.31808  22909988.09708
  -1708790.79909  -1331522.08809  20254865.17309  20254867.06509
 93 04 09 02 50 00.0000000  0  5 12 20 13 16 24
  -1381058.58908  -1076149.45508  21061532.07708  21061535.20608
 -14722516.04808 -11472078.90408  22176785.20508  22176788.10508
   7740754.33508   6031754.74908  22934270.46808  22934274.00208
 -12249421.78108  -9544974.91608  22838824.65008  22838828.37008
  -1601749.18109  -1248113.00709  20275234.50509  20275236.36309
 93 04 09 02 52 00.0000000  0  5 12 20 13 16 24
  -1227246.76708   -956296.13908  21090801.53508  21090804.67408
 -15096453.89708 -11763458.76808  22105626.95108  22105629.84108
   7980434.87608   6218518.78408  22979880.19608  22979883.71708
 -12620361.03408  -9834018.14108  22768237.00308  22768240.62408
  -1487344.13009  -1158966.18309  20297005.06309  20297006.92709
 93 04 09 02 54 00.0000000  0  6 12 20 13 16 03 24
  -1063713.41308   -828867.61108  21121920.92408  21121924.08108
 -15466503.81808 -12051809.14708  22035208.67108  22035211.47108
   8220079.97408   6405255.21408  23025483.13308  23025486.68108
 -12988293.20008 -10120718.18608  22698221.61508  22698225.07908
        -0.34117        -0.10317  25430220.74117  25430228.81717
  -1365850.76509  -1064296.00309  20320124.42909  20320126.29309
 93 04 09 02 56 00.0000000  0  6 12 20 13 16 03 24
   -890569.30508   -693950.18808  21154869.17208  21154872.37308
 -15832505.15008 -12337004.82708  21965560.83408  21965563.56708
   8459666.89808   6591946.28708  23071075.08608  23071078.51808
 -13352798.84408 -10404748.22408  22628858.23008  22628861.61208
   -285206.77607   -222238.02007  25375947.11507  25375954.85907
  -1236965.94909   -963866.25509  20344650.40209  20344652.25409
 93 04 09 02 58 00.0000000  0  6 20 12 13 16 03 24
 -16194307.30508 -12618928.41908  21896712.02008  21896714.74908
   -707940.42008   -551642.03108  21189622.36508  21189625.51608
   8699167.87808   6778570.42608  23116650.56008  23116653.99708
 -13713568.27408 -10685866.96908  22560205.91908  22560209.24908
   -568090.61907   -442666.20207  25322115.50607  25322123.06007
  -1100865.98509   -857814.31609  20370549.33509  20370551.15809
 93 04 09 03 00 00.0000000  0  6 20 12 13 16 03 24
 -16551799.30908 -12897493.42108  21828683.40008  21828686.08608
   -516001.68708   -402079.44308  21226147.17208  21226150.30408
   8938514.48708   6965074.27008  23162196.75908  23162200.13508
 -14070555.70808 -10964038.71708  22492273.22508  22492276.43908
   -848728.34107   -661344.28107  25268711.45307  25268718.68707
   -957952.60709   -746453.22509  20397744.75909  20397746.60409
 93 04 09 03 02 00.0000000  0  5 20 12 13 16 24
 -16904819.45008 -13172573.83108  21761505.74308  21761508.34308
   -314883.63808   -245364.14008  21264418.69708  21264421.85908
   9177691.10708   7151445.69308  23207710.50908  23207714.05408
 -14423471.06608 -11239037.44108  22425115.51208  22425118.61908
   -808307.67309   -629846.76108  20426221.24609  20426223.07708
 93 04 09 03 04 00.0000000  0  6 20 12 13 16 03 24
 -17253285.66408 -13444105.71708  21695194.67608  21695197.17208
   -104801.27008    -81663.64908  21304396.04308  21304399.26008
   9416607.44808   7337614.30308  23253174.76008  23253178.23108
 -14772627.40808 -11511107.06108  22358673.03708  22358676.09408
         0.21117        -0.45217  25163147.08617  25163154.01417
   -652005.82209   -508053.09408  20455964.45609  20455966.31008
 93 04 09 03 06 00.0000000  0  6 20 12 13 16 03 24
 -17597068.51708 -13711988.22608  21629774.78108  21629777.23308
    114070.36608     88885.62108  21346045.96708  21346049.22208
   9655216.82108   7523543.72108  23298580.52208  23298584.12108
 -15117397.27608 -11779758.64808  22293065.26408  22293068.41508
   -274273.42107   -213719.22607  25110953.74107  25110960.19707
   -489016.45209   -381048.36908  20486980.29809  20486982.15008
 93 04 09 03 08 00.0000000  0  6 20 12 13 16 03 24
 -17936025.82408 -13976110.58008  21565273.16908  21565275.61808
    341564.07708    266153.39508  21389336.64108  21389339.84408
   9893490.80908   7709211.79008  23343922.52308  23343926.14008
 -15457866.72308 -12045059.25208  22228275.80708  22228278.86808
   -546560.18807   -425889.96407  25059138.87107  25059145.37207
   -319642.47109   -249068.63008  20519211.02109  20519212.87708
 93 04 09 03 10 00.0000000  0  6 20 12 13 16 03 24
 -18270004.57908 -14236353.53908  21501718.91708  21501721.33008
    577516.48408    450012.36408  21434236.94608  21434240.10608
  10131416.20708   7894608.19208  23389198.27008  23389201.79208
 -15793651.54908 -12306709.51008  22164377.91208  22164380.89508
   -816906.10307   -636548.56707  25007692.88307  25007699.58007
   -144353.77909   -112480.00908  20552567.39409  20552569.17908
 93 04 09 03 12 00.0000000  0  6 20 12 13 16 03 24
 -18598877.10408 -14492617.60508  21439136.39308  21439138.73608
    821732.06508    640310.16708  21480709.64408  21480712.84108
  10368949.69508   8079699.21507  23434399.37108  23434402.83307
 -16124638.51208 -12564621.17408  22101393.02708  22101396.00808
  -1085386.01107   -845753.36307  24956602.98307  24956608.90107
     36820.37009     28694.69208  20587043.62709  20587045.41108
 93 04 09 03 14 00.0000000  0  6 20 12 13 16 03 24
 -18922502.35808 -14744792.88708  21377552.38708  21377554.65408
   1074027.13508    836903.66708  21528719.86708  21528723.07608
  10606068.31008   8264466.96907  23479521.55908  23479524.96607
 -16450934.61108 -12818877.62008  22039300.71408  22039303.64708
  -1352058.02808  -1053549.38708  24905856.78808  24905863.21708
    223950.54709    174510.46108  20622653.28209  20622655.08708
 93 04 09 03 16 00.0000000  0  6 20 12 13 16 03 24
 -19240721.24408 -14992755.42708  21316997.14308  21316999.34908
   1334229.94508   1039659.02808  21578234.85208  21578238.07208
  10842767.86908   8448908.21208  23524563.98308  23524567.40208
 -16771950.05308 -13069019.27008  21978213.31108  21978216.12608
  -1616966.46207  -1259970.94408  24855445.53307  24855452.33508
    416649.72008    324665.70108  20659322.68508  20659324.48908
 93 04 09 03 18 00.0000000  0  6 20 12 13 16 03 24
 -19553409.55308 -15236408.43608  21257494.36708  21257496.52008
   1602130.75508   1248412.82208  21629214.73508  21629217.97908
  11079012.05908   8632994.65907  23569519.57108  23569523.16607
 -17087587.50008 -13314970.26308  21918149.29708  21918152.08108
  -1880189.72907  -1465079.66407  24805355.91807  24805361.71607
    615046.98508    479261.01908  20697076.39908  20697078.21608
 93 04 09 03 20 00.0000000  0  6 20 12 13 16 03 24
 -19860414.60508 -15475632.94908  21199073.11008  21199075.18608
   1877542.67208   1463019.43308  21681623.97708  21681627.20008
  11314796.57308   8816722.90207  23614387.78108  23614391.33807
 -17397841.13108 -13556726.07208  21859109.74708  21859112.52808
  -2141780.51507  -1668916.28707  24755576.39607  24755582.35907
    818894.93308    638103.62608  20735867.33008  20735869.09108
 93 04 09 03 22 00.0000000  0  6 20 12 16 13 03 24
 -20161605.57808 -15710327.00408  21141758.16708  21141760.29308
   2160254.69308   1683314.44708  21735422.33108  21735425.59508
 -17702891.29408 -13794427.24608  21801060.41508  21801063.16608
  11550096.32408   9000073.41807  23659163.92608  23659167.31907
  -2401812.75507  -1871538.31907  24706093.35107  24706099.51707
   1027712.08008    800818.34208  20775603.82408  20775605.56808
 93 04 09 03 24 00.0000000  0  6 20 12 16 13 03 24
 -20456864.76608 -15940398.88908  21085572.08208  21085574.08408
   2450040.14008   1909121.22708  21790566.67408  21790570.00908
 -18002081.89108 -14027562.53208  21744126.25008  21744128.88708
  11784876.95308   9183019.38507  23703841.16608  23703844.46807
  -2660372.76607  -2073013.07807  24656890.71107  24656896.75007
   1241506.62008    967411.51908  20816287.58008  20816289.34908
 93 04 09 03 26 00.0000000  0  6 20 12 16 13 03 24
 -20746021.89808 -16165715.93808  21030547.17008  21030549.07908
   2746719.80708   2140300.13708  21847022.99008  21847026.31708
 -18295152.92708 -14255929.32808  21688356.47508  21688359.00708
  12019158.34008   9365576.34607  23748423.45308  23748426.74607
  -2917496.32907  -2273368.42507  24607961.31907  24607967.02607
   1460280.47908   1137884.67408  20857918.82308  20857920.55308
 93 04 09 03 28 00.0000000  0  6 12 16 13 03 20 24
   3050101.52708   2376701.43608  21904754.66608  21904758.00108
 -18582176.06608 -14479583.48608  21633737.67908  21633740.08408
  12252951.35608   9547752.76807  23792912.68108  23792915.96707
  -3173230.89207  -2472641.43407  24559296.16507  24559301.61507
 -21028920.31608 -16386156.07708  20976713.22908  20976715.14708
   1683630.97608   1311924.04308  20900421.03008  20900422.70808
 93 04 09 03 30 00.0000000  0  6 12 16 13 03 20 24
   3359966.34408   2618154.49708  21963719.96208  21963723.32008
 -18863044.11508 -14698441.48208  21580290.03908  21580292.37408
  12486244.78108   9729539.82307  23837306.99208  23837310.30807
  -3427647.90908  -2670887.91207  24510881.78908  24510886.78407
 -21305426.83308 -16601615.52108  20924095.61708  20924097.50708
   1911527.53608   1489505.81108  20943788.25508  20943789.98708
 93 04 09 03 32 00.0000000  0  6 24 12 16 13 03 20
   2144113.99208   1670742.04808  20988047.97408  20988049.66308
   3676114.63008   2864503.76608  22023881.01308  22023884.37008
 -19137291.99408 -14912140.89908  21528102.22208  21528104.55208
  12719053.58908   9910949.28207  23881609.09708  23881612.35507
  -3680795.01608  -2868144.88808  24462708.99908  24462714.36408
 -21575385.97508 -16811973.11408  20872723.95208  20872725.79108
 93 04 09 03 34 00.0000000  0  6 24 12 16 13 03 20
   2380734.13108   1855121.40208  21033075.23908  21033076.94408
   3998309.05108   3115564.31108  22085192.59008  22085195.95808
 -19405339.05708 -15121008.52208  21477094.38708  21477096.66708
  12951358.60808  10091966.17207  23925815.12008  23925818.50907
  -3932758.02208  -3064479.22708  24414761.63408  24414766.89608
 -21838680.83208 -17017137.73408  20822620.46408  20822622.27908
 93 04 09 03 36 00.0000000  0  6 24 12 16 13 03 20
   2621310.75508   2042583.71908  21078855.40708  21078857.12008
   4326340.57808   3371173.25008  22147614.95208  22147618.30808
 -19666585.59708 -15324577.03108  21427380.64308  21427382.86508
  13183171.04308  10272599.20707  23969927.55408  23969931.04807
  -4183590.62308  -3259932.70008  24367029.55208  24367034.40908
 -22095164.77708 -17216995.12608  20773813.04008  20773814.76608
 93 04 09 03 38 00.0000000  0  6 24 12 16 13 03 20
   2865947.16108   2233209.50408  21125408.16908  21125409.84508
   4659988.76808   3631158.80908  22211106.13908  22211109.49108
 -19920780.70208 -15522650.93808  21379008.74008  21379010.97308
  13414497.73708  10452853.67907  24013947.70208  24013951.10107
  -4433357.43008  -3454555.75508  24319500.18308  24319505.07808
 -22344703.34308 -17411440.56008  20726327.26708  20726328.95608
 93 04 09 03 40 00.0000000  0  7 24 12 16 13 03 17 20
   3114374.38908   2426789.18008  21172682.31008  21172684.00308
   4999064.34608   3895373.51608  22275630.08308  22275633.44308
 -20168044.83308 -15715324.10008  21331955.81708  21331957.95808
  13645377.20908  10632759.79907  24057882.53008  24057885.98207
  -4682088.32308  -3648371.62608  24272168.06408  24272172.79208
         0.10417         0.17317  25031161.95717  25031168.36817
 -22587128.84108 -17600343.37408  20680195.09008  20680196.77708
 93 04 09 03 42 00.0000000  0  7 24 12 16 13 03 17 20
   3366276.91108   2623076.88108  21220617.79708  21220619.39908
   5343351.51508   4163649.20808  22341145.80908  22341149.14908
 -20408051.40808 -15902342.00808  21286283.95808  21286286.07208
  13875828.29508  10812332.01807  24101735.94808  24101739.47407
  -4929839.38408  -3841424.03208  24225022.21208  24225026.85008
   -407130.93708   -317243.46107  24953686.57608  24953692.52707
 -22822301.99508 -17783595.04008  20635443.01108  20635444.64308
 93 04 09 03 44 00.0000000  0  7 24 12 16 13 03 17 20
   3621915.29508   2822275.63608  21269264.10808  21269265.75108
   5692620.61308   4435806.91008  22407609.51808  22407612.92908
 -20640791.73408 -16083697.91308  21241994.76408  21241996.83808
  14105859.58508  10991577.17707  24145509.44208  24145512.87007
  -5176677.45008  -4033764.96908  24178050.16408  24178054.74908
   -812376.39007   -633018.01807  24876570.12507  24876575.80507
 -23050097.06308 -17961097.56308  20592094.97408  20592096.53108
 93 04 09 03 46 00.0000000  0  7 24 12 16 13 03 17 20
   3881096.07208   3024234.68608  21318584.54408  21318586.21808
   6046668.19908   4711688.08708  22474982.56408  22474985.97808
 -20866346.10508 -16259454.39408  21199073.07308  21199075.09508
  14335506.11508  11170522.56907  24189209.89408  24189213.22507
  -5422642.17208  -4225425.36408  24131244.27808  24131248.84308
  -1215240.14007   -946937.01007  24799907.08007  24799912.50907
 -23270364.10608 -18132734.08008  20550179.43908  20550180.97108
 93 04 09 03 48 00.0000000  0  7 24 12 16 13 03 17 20
   4143183.84808   3228458.94208  21368458.20108  21368459.82108
   6405242.34608   4991096.46808  22543216.98408  22543220.40108
 -21084006.44208 -16429059.68308  21157653.52608  21157655.54608
  14564759.23108  11349161.34607  24232835.12508  24232838.70207
  -5667821.01508  -4416473.35008  24084587.88108  24084592.31908
  -1615913.74807  -1259149.39007  24723660.81207  24723666.11907
 -23483003.91008 -18298427.29708  20509715.33108  20509716.81308
 93 04 09 03 50 00.0000000  0  7 24 12 16 13 03 17 20
   4408432.53908   3435146.25908  21418933.33508  21418934.92208
   6768149.99208   5273881.61008  22612275.99508  22612279.48308
 -21294061.11408 -16592738.47608  21117681.36508  21117683.25808
  14793670.92208  11527534.15407  24276395.67508  24276398.85807
  -5912239.75708  -4606929.06508  24038076.23708  24038080.53208
  -2014404.37607  -1569660.72608  24647829.84007  24647835.08708
 -23687857.72508 -18458053.52008  20470732.83908  20470734.31208
 93 04 09 03 52 00.0000000  0  7 24 12 16 13 03 17 20
   4676737.72908   3644215.25808  21469990.09708  21469991.68508
   7135141.62708   5559849.04608  22682112.25908  22682115.71608
 -21496341.18208 -16750359.14208  21079188.64308  21079190.48208
  15022237.49607  11705637.97907  24319889.98607  24319893.96607
  -6155980.80708  -4796856.68608  23991693.56808  23991697.67508
  -2410273.73608  -1878129.34907  24572497.82108  24572502.47207
 -23884827.49108 -18611536.33708  20433250.64308  20433252.11208
 93 04 09 03 54 00.0000000  0  7 24 16 12 13 03 17 20
   4947987.41808   3855578.66808  21521607.20608  21521608.76308
 -21690562.62008 -16901700.36208  21042229.40808  21042231.25008
   7506000.13708   5848829.63408  22752684.38608  22752687.81708
  15250491.65108  11883498.27207  24363325.88808  24363328.90007
  -6399092.11608  -4986293.61308  23945430.62708  23945434.66908
  -2804138.70008  -2185036.34908  24497546.98108  24497552.11308
 -24073785.45808 -18758776.19408  20397293.06208  20397294.43208
 93 04 09 03 56 00.0000000  0  7 24 16 12 13 03 17 20
   5221640.25408   4068814.65408  21573681.61708  21573683.17508
 -21876632.10508 -17046689.42208  21006821.43408  21006823.18908
   7880499.63908   6140647.36208  22823949.30808  22823952.77108
  15478458.65208  12061135.00207  24406706.23408  24406709.78007
  -6641629.17208  -5175283.08808  23899277.09508  23899281.01608
  -3195362.59108  -2489885.37807  24423099.41308  24423103.22807
 -24254616.29608 -18899683.21808  20362882.03008  20362883.36608
 93 04 09 03 58 00.0000000  0  7 24 12 13 03 17 20 16
   5497709.03908   4283933.19908  21626215.72108  21626217.28708
   8258415.24308   6435126.97708  22895864.31208  22895867.74908
  15706168.09108  12238570.85207  24450038.10108  24450041.45307
  -6883646.29608  -5363867.48908  23853222.54608  23853226.33908
  -3583967.17208  -2792693.64508  24349149.80608  24349154.50508
 -24427204.08308 -19034167.07208  20330039.49408  20330040.87208
 -22054485.93508 -17185276.68508  20972976.82308  20972978.58408
 93 04 09 04 00 00.0000000  0  7 24 12 13 03 17 20 16
   5776450.32708   4501134.22408  21679258.40608  21679259.94108
   8639534.17308   6732102.69808  22968388.85008  22968392.28808
  15933658.31308  12415836.07207  24493327.88308  24493331.20907
  -7125183.84408  -5552078.21808  23807259.17708  23807262.82908
  -3969964.35908  -3093470.18507  24275696.56708  24275700.67807
 -24591426.85809 -19162132.75208  20298788.88009  20298790.19208
 -22224143.41108 -17317477.18108  20940691.95008  20940693.71808
 93 04 09 04 02 00.0000000  0  7 24 12 13 03 20 16 17
   6057410.50608   4720064.26308  21732723.29808  21732724.86608
   9023620.41108   7031390.62808  23041478.05608  23041481.47908
  16160948.64108  12592945.33607  24536579.73008  24536583.23707
  -7366304.85108  -5739964.33508  23761375.11408  23761378.62608
 -24747191.09709 -19283507.38808  20269147.85609  20269149.15608
 -22385433.47708 -17443157.62108  20909999.43308  20910001.12408
  -4353428.63808  -3392272.96608  24202725.31708  24202729.38108
 93 04 09 04 04 00.0000000  0  7 24 12 13 03 20 16 17
   6340467.11708   4940627.85908  21786587.13508  21786588.77408
   9410463.15008   7332826.47908  23115091.80208  23115095.29408
  16388085.63508  12769935.12107  24579802.74208  24579806.18507
  -7607046.23108  -5927554.61808  23715563.22108  23715566.61708
 -24894381.78309 -19398201.35108  20241138.35609  20241139.58408
 -22538194.41708 -17562191.97708  20880929.82108  20880931.46608
  -4734240.89908  -3689009.24908  24130258.82308  24130263.01608
 93 04 09 04 06 00.0000000  0  6 24 20 12 03 16 17
   6625259.16708   5162543.76808  21840781.23308  21840782.85608
 -25032925.49609 -19506157.41608  20214774.28709  20214775.52208
   9799813.64208   7636216.41708  23189182.79008  23189186.32608
  -7847481.90808  -6114906.66808  23669809.53508  23669812.85408
 -22682336.16108 -17674510.08508  20853500.54308  20853502.12508
  -5112078.69508  -3983427.81708  24058358.09408  24058361.99908
 93 04 09 04 08 00.0000000  0  7 24 20 12 03 16 17 25
   6912299.92908   5386211.92208  21895403.22208  21895404.82108
 -25162677.23509 -19607262.58208  20190083.27809  20190084.52208
  10191498.54908   7941425.36508  23263717.97108  23263721.57508
  -8087609.60108  -6302018.77308  23624114.41508  23624117.76008
 -22817605.61308 -17779914.70808  20827759.42108  20827760.98408
  -5487247.47508  -4275766.60508  23986965.78008  23986969.31808
        -0.04017        -0.26017  24710508.67617  24710511.83417
 93 04 09 04 10 00.0000000  0  8 24 20 12 13 03 16 17 25
   7201369.97008   5611461.34108  21950411.43608  21950413.02808
 -25283553.41609 -19701451.74308  20167081.23409  20167082.46808
  10585290.91508   8248276.47808  23338654.20208  23338657.83208
        -0.48818        -0.48117  24709359.77718  24709363.19817
  -8327480.75808  -6488931.00208  23578468.16708  23578471.44108
 -22944240.11608 -17878590.79708  20803661.63808  20803663.16308
  -5859403.21008  -4565757.60408  23916146.27808  23916149.98308
   -125814.56807    -98037.29007  24686566.76607  24686569.89807
 93 04 09 04 12 00.0000000  0  8 24 20 12 13 03 16 17 25
   7492001.80308   5837927.73708  22005716.81008  22005718.38108
 -25395434.63309 -19788631.83708  20145790.92109  20145792.08308
  10981005.11108   8556625.15208  23413956.15808  23413959.77508
    226943.65707    176839.13307  24752545.67307  24752549.03907
  -8567104.64308  -6675650.57208  23532869.00108  23532872.21108
 -23061901.49408 -17970274.86308  20781271.32008  20781272.84408
  -6228690.67608  -4853513.52108  23845872.81608  23845876.30908
   -243972.92307   -190108.42608  24664081.86107  24664084.98308
 93 04 09 04 14 00.0000000  0  8 24 20 12 13 03 16 17 25
   7784112.60508   6065546.56908  22061303.60008  22061305.18508
 -25498266.90809 -19868760.80308  20126222.51409  20126223.66508
  11378395.55408   8866279.99108  23489577.07308  23489580.67408
    453943.45307    353722.06507  24795742.37207  24795745.83807
  -8806549.13008  -6862230.38508  23487303.90908  23487307.05708
 -23170438.30508 -18054848.89508  20760617.37408  20760618.84708
  -6595118.38808  -5139041.15308  23776143.49408  23776147.07208
   -354271.16707   -276054.80708  24643092.51407  24643095.79308
 93 04 09 04 16 00.0000000  0  8 24 20 12 13 03 16 17 25
   8077655.56408   6294281.36708  22117162.98208  22117164.55308
 -25591999.14709 -19941798.84508  20108385.81809  20108386.98608
  11777219.28908   9177051.69208  23565470.75008  23565474.35608
    681013.78407    530659.88007  24838952.46407  24838955.85407
  -9045879.98108  -7048721.65808  23441760.59608  23441763.61508
 -23269741.66608 -18132228.02808  20741720.48608  20741721.92108
  -6958415.37808  -5422129.16908  23707010.06908  23707013.32008
   -456448.98808   -355673.52608  24623648.57808  24623651.56508
 93 04 09 04 18 00.0000000  0  8 24 20 12 13 03 16 17 25
   8372581.84508   6524094.07908  22173285.60608  22173287.14508
 -25676520.57009 -20007659.64008  20092301.88909  20092303.01808
  12177300.98508   9488803.63208  23641603.84808  23641607.37108
    908236.02808    707716.22107  24882191.53208  24882194.84407
  -9285093.48708  -7235121.50508  23396239.55308  23396242.55508
 -23360245.74008 -18202750.58308  20724498.00108  20724499.46808
  -7318385.57308  -5702624.95308  23638509.82808  23638512.86708
   -550714.22708   -429126.58307  24605710.43608  24605712.94807
 93 04 09 04 20 00.0000000  0  7 24 12 03 20 16 17 25
   8668544.15108   6754714.08908  22229605.34008  22229606.87908
  12578402.11108   9801349.94408  23717930.88108  23717934.51408
  -9524249.73608  -7421476.72208  23350729.40108  23350732.33308
 -25751789.31409 -20066310.56308  20077978.66409  20077979.78908
 -23441972.07608 -18266433.32708  20708945.92908  20708947.33908
  -7675378.58008  -5980800.82808  23570575.89008  23570578.73008
   -637380.96908   -496658.76907  24589217.94308  24589220.45107
 93 04 09 04 22 00.0000000  0  7 24 12 03 20 16 17 25
   8965990.75308   6986490.67508  22286207.51708  22286209.09408
  12980298.08508  10114515.58908  23794409.16208  23794412.84608
  -9763394.17108  -7607822.72008  23305221.48608  23305224.36008
 -25817756.58709 -20117713.58108  20065425.46409  20065426.59708
 -23514376.27408 -18322852.06208  20695167.76208  20695169.10908
  -8029222.78308  -6256523.08608  23503241.14208  23503244.07808
   -716159.64808   -558044.45607  24574226.61908  24574229.10407
 93 04 09 04 24 00.0000000  0  7 24 12 03 20 16 17 25
   9264318.10408   7218953.55308  22342977.30508  22342978.89508
  13382724.22308  10428094.32608  23870988.33908  23870991.97808
 -10002612.06508  -7794225.95408  23259699.57608  23259702.36308
 -25874421.30109 -20161867.83608  20054642.48409  20054643.59308
 -23577399.06009 -18371960.61808  20683174.85509  20683176.18208
  -8380038.01208  -6529885.17008  23436482.88108  23436485.64908
   -787297.09208   -613475.98907  24560689.31908  24560691.92507
 93 04 09 04 26 00.0000000  0  7 24 12 20 03 16 17 25
   9563514.33008   7452093.45708  22399912.42708  22399914.06308
  13785480.54508  10741930.27208  23947630.50808  23947634.17908
 -25921725.88909 -20198728.51308  20045640.68909  20045641.77608
 -10241922.99008  -7980701.65908  23214159.95508  23214162.62608
 -23630799.71509 -18413571.40408  20673012.98109  20673014.29508
  -8727423.07308  -6800574.41308  23370377.41908  23370380.05508
   -850322.81308   -662586.68307  24548695.81608  24548698.12307
 93 04 09 04 28 00.0000000  0  7 24 12 20 03 16 17 25
   9863240.35608   7685646.22008  22456948.37508  22456950.02208
  14188367.51508  11055868.06908  24024297.42008  24024300.98508
 -25959620.34709 -20228256.62508  20038429.59009  20038430.68208
 -10481346.67708  -8167265.23008  23168598.93108  23168601.51008
 -23675062.90809 -18448062.08508  20664589.87309  20664591.17708
  -9071555.72508  -7068729.28708  23304890.81808  23304893.26908
   -905523.51608   -705599.96507  24538191.28408  24538193.54307
 93 04 09 04 30 00.0000000  0  7 24 12 20 03 16 17 25
  10164026.50708   7920025.04908  22514186.03208  22514187.65208
  14591181.20808  11369748.77308  24100950.35908  24100954.11508
 -25988064.33209 -20250420.74108  20033016.87509  20033017.95908
 -10720906.08308  -8353934.59208  23123012.01608  23123014.60808
 -23710365.52108 -18475570.49008  20657871.88508  20657873.14608
  -9412387.51908  -7334312.09508  23240032.38108  23240034.80108
   -953137.51708   -742701.60107  24529130.50008  24529132.70107
 93 04 09 04 32 00.0000000  0  7 24 20 12 03 16 17 25
  10465521.22508   8154956.04008  22571558.59808  22571560.17808
 -26007000.91609 -20265176.48608  20029413.33109  20029414.38708
  14993743.80108  11683433.77908  24177555.62408  24177559.29408
 -10960598.12108  -8540707.37808  23077400.00108  23077402.46608
 -23736311.71508 -18495788.18908  20652934.45008  20652935.65808
  -9749767.35708  -7597205.10008  23175830.78408  23175833.22208
   -992873.66308   -773664.64807  24521568.86108  24521570.81507
 93 04 09 04 34 00.0000000  0  7 24 12 20 03 16 17 25
  10767407.39308   8390192.06008  22629005.65508  22629007.12308
  15395840.13908  11996755.42908  24254072.15708  24254075.85308
 -26016419.16109 -20272515.34608  20027621.06609  20027622.10908
 -11200457.29508  -8727610.47408  23031756.20508  23031758.64808
 -23752882.00109 -18508700.00508  20649781.20309  20649782.34508
 -10084001.62508  -7857647.04808  23112227.91808  23112230.16308
  -1024861.03208   -798589.66707  24515481.64308  24515483.59507
 93 04 09 04 36 00.0000000  0  7 24 12 20 03 16 17 25
  11069792.26008   8625816.65508  22686547.51108  22686549.03208
  15797289.78408  12309573.15808  24330465.50208  24330469.32608
 -26016280.39209 -20272407.18508  20027647.43609  20027648.49208
 -11440481.02108  -8914641.79508  22986081.07408  22986083.43708
 -23760143.35809 -18514358.13008  20648399.28109  20648400.43308
 -10414744.97308  -8115368.81608  23049289.18308  23049291.49908
  -1049477.80108   -817771.36607  24510797.13708  24510798.93407
 93 04 09 04 38 00.0000000  0  7 24 20 12 03 16 17 25
  11372472.07308   8861671.07008  22744145.55508  22744147.02708
 -26006598.03309 -20264862.46709  20029489.90709  20029490.95609
  16197869.81308  12621713.34308  24406693.56208  24406697.24708
 -11680710.51208  -9101833.41308  22940366.74108  22940369.09908
 -23758137.76808 -18512795.27408  20648780.89608  20648782.08608
 -10741993.29708  -8370367.21308  22987015.66308  22987017.96808
  -1066514.18408   -831046.25707  24507555.02408  24507556.79707
 93 04 09 04 40 00.0000000  0  7 24 20 12 03 16 17 25
  11675767.24208   9098004.97308  22801860.69908  22801862.22108
 -25987350.62709 -20249864.47509  20033152.57409  20033153.61009
  16597401.10208  12933036.25007  24482721.79308  24482725.69407
 -11921143.25108  -9289183.36908  22894613.79908  22894616.08708
 -23746822.34408 -18503977.98108  20650934.06908  20650935.22608
 -11065559.97008  -8622496.80508  22925442.76008  22925444.87908
  -1075702.33508   -838205.65007  24505806.36708  24505808.21307
 93 04 09 04 42 00.0000000  0  7 24 20 12 03 16 17 25
  11979313.87908   9334534.83208  22859623.73908  22859625.22908
 -25958541.65909 -20227415.93809  20038634.71709  20038635.79009
  16995686.99808  13243388.78107  24558513.28408  24558517.15207
 -12161792.69308  -9476702.17208  22848819.63108  22848821.75108
 -23725780.55308 -18487581.71708  20654938.12608  20654939.29808
 -11385887.59708  -8872102.49108  22864486.29708  22864488.37408
  -1077414.17708   -839539.37807  24505480.44908  24505482.10207
 93 04 09 04 44 00.0000000  0  7 24 20 12 03 16 17 25
  12282599.10308   9570861.01108  22917336.95708  22917338.46408
 -25920194.68209 -20197535.18309  20045931.91609  20045932.97609
  17392520.23108  13552609.21707  24634028.29208  24634032.10607
 -12402683.32908  -9664408.93708  22802979.40508  22802981.54008
 -23695608.91908 -18464071.29508  20660679.55708  20660680.66308
 -11702852.44608  -9119087.86808  22804169.76308  22804171.69108
  -1071892.26108   -835236.39607  24506531.15908  24506532.73707
 93 04 09 04 46 00.0000000  0  7 20 24 12 03 16 17 25
 -25872309.45609 -20160221.98909  20055044.16609  20055045.20709
  12586297.07808   9807508.84108  22975128.67908  22975130.24108
  17787727.04208  13860562.50407  24709233.65708  24709237.63807
 -12643806.11008  -9852296.62708  22757095.17308  22757097.17908
 -23656372.17508 -18433497.15908  20668146.07008  20668147.16608
 -12016038.39608  -9363128.66208  22744572.25908  22744574.16908
  -1058719.98108   -824972.09107  24509037.66808  24509039.36707
 93 04 09 04 48 00.0000000  0  8 20 24 12 26 03 16 17 25
 -25814933.15209 -20115513.19509  20065962.54009  20065963.56409
  12889957.36808  10044127.29608  23032913.20808  23032914.79308
  18181094.57108  14167082.29207  24784089.35108  24784093.29207
         0.24917         0.04317  24670663.74317  24670666.10417
 -12885189.85308 -10040387.70008  22711161.27508  22711163.26808
 -23607826.83908 -18395669.57408  20677383.84108  20677384.94208
 -12325447.67408  -9604226.57508  22685693.38708  22685695.32808
  -1038339.35608   -809090.87807  24512915.89008  24512917.59707
 93 04 09 04 50 00.0000000  0  8 20 24 12 26 03 16 17 25
 -25748039.58309 -20063388.32808  20078691.94509  20078692.97308
  13193466.74308  10280628.15108  23090669.12408  23090670.67208
  18572490.51808  14472065.86807  24858569.63008  24858573.99507
   -291748.52408   -227336.11508  24615145.96008  24615148.31208
 -13126783.99308 -10228642.74708  22665187.33408  22665189.26108
 -23549831.15808 -18350478.07908  20688420.02608  20688421.17808
 -12631371.71008  -9842608.66208  22627477.85608  22627479.71908
  -1010966.28708   -787760.99208  24518124.71508  24518126.48408
 93 04 09 04 52 00.0000000  0  8 20 24 12 26 03 16 17 25
 -25671686.86709 -20003892.69708  20093221.36509  20093222.38708
  13497052.45408  10517188.51108  23148439.49208  23148441.00008
  18961709.20307  14775352.69307  24932635.81307  24932640.03007
   -585763.36908   -456438.20908  24559196.38108  24559198.59308
 -13368609.00608 -10417077.68008  22619169.43408  22619171.34808
 -23482709.39208 -18298175.35908  20701192.81308  20701193.91308
 -12933595.02208 -10078107.09108  22569966.53808  22569968.20608
   -976307.70008   -760754.07608  24524719.87708  24524721.67108
 93 04 09 04 54 00.0000000  0  8 24 20 12 26 03 16 17 25
  13800587.86508  10753709.65108  23206200.33408  23206201.82308
 -25585922.80809 -19937063.56108  20109541.71009  20109542.72208
  19348564.96408  15076798.31108  25006252.50408  25006256.91408
   -881711.28308   -687046.62007  24502878.83208  24502880.61507
 -13610666.85308 -10605694.05008  22573107.21408  22573109.14708
 -23406505.07508 -18238795.30508  20715693.98908  20715695.11808
 -13232081.35608 -10310693.59208  22513166.26308  22513167.85508
   -934575.87908   -728235.54808  24532661.01508  24532662.68808
 93 04 09 04 56 00.0000000  0  8 24 20 12 26 03 16 17 25
  14104001.03408  10990135.56508  23263937.92008  23263939.35808
 -25490791.57609 -19862935.31208  20127644.58409  20127645.57108
  19732882.68408  15376265.92507  25079386.15908  25079390.75207
  -1179196.27508   -918852.93208  24446269.32008  24446271.32108
 -13852948.40808 -10794484.72708  22527002.44608  22527004.35408
 -23321275.46408 -18172382.57708  20731912.62508  20731913.71508
 -13527009.46108 -10540507.44808  22457043.17908  22457044.62908
   -886316.15908   -690630.34308  24541844.34708  24541845.97308
 93 04 09 04 58 00.0000000  0  8 24 20 12 26 03 16 17 25
  14406916.60808  11226173.70608  23321580.79408  23321582.22208
 -25386343.53209 -19781547.23508  20147520.38509  20147521.39908
  20114490.26608  15673621.77407  25152004.26208  25152008.97007
  -1478210.89708  -1151851.06508  24389368.42008  24389370.51508
 -14095439.92108 -10983438.97008  22480857.70608  22480859.58308
 -23226926.63508 -18098863.95408  20749866.58208  20749867.63008
 -13818401.64508 -10767566.06008  22401592.87708  22401594.32908
   -830889.29407   -647440.36908  24552391.11607  24552393.19008
 93 04 09 05 00 00.0000000  0  7 20 24 12 26 03 16 17
 -25272642.93509 -19692949.38508  20169156.88309  20169157.92808
  14709364.72608  11461847.62208  23379134.75608  23379136.14508
  20493213.41207  15968729.81207  25224073.47907  25224078.46807
  -1778619.49408  -1385935.41108  24332202.44908  24332204.40908
 -14338131.99008 -11172549.47708  22434674.80908  22434676.57408
 -23123820.50408 -18018521.45208  20769486.92808  20769488.01008
 -14105983.48108 -10991655.57608  22346867.63708  22346869.10708
 93 04 09 05 02 00.0000000  0  7 24 26 03 17 20 16 25
  15011690.36708  11697426.10108  23436665.36908  23436666.72908
  -2080186.04408  -1620922.03708  24274815.98708  24274817.98608
 -14581030.41508 -11361820.82108  22388452.66108  22388454.39108
 -14389922.19508 -11212906.33108  22292835.70208  22292837.20308
 -25149777.74509 -19597210.27508  20192537.36909  20192538.41508
 -23011740.51708 -17931186.35308  20790815.08808  20790816.13208
         0.36217        -0.40717  24577276.85717  24577278.56817
 93 04 09 05 04 00.0000000  0  7 24 26 03 17 20 16 25
  15313515.39308  11932614.46208  23494100.69808  23494102.12408
  -2383024.05308  -1856899.43008  24217187.63408  24217189.39808
 -14824116.55908 -11551238.45608  22342194.85508  22342196.51208
 -14669956.64008 -11431114.82908  22239546.81308  22239548.19008
 -25017821.26709 -19494387.04008  20217647.83509  20217648.89408
 -22890994.65308 -17837098.62608  20813792.21308  20813793.23808
     75256.57107     58640.94107  24591597.76307  24591599.06807
 93 04 09 05 06 00.0000000  0  7 03 24 26 17 20 16 25
 -15067406.45408 -11740814.82708  22295898.16808  22295899.80308
  15614710.06008  12167311.64808  23551416.12408  23551417.53708
  -2687044.58708  -2093798.25908  24159334.24908  24159336.13008
 -14946342.20808 -11646480.07908  22186952.37008  22186953.70508
 -24876890.92009 -19384571.17808  20244465.97509  20244467.01008
 -22761416.49408 -17736128.59608  20838450.03008  20838451.09708
    156960.90208    122306.86706  24607145.47808  24607146.49406
 93 04 09 05 08 00.0000000  0  7 03 24 26 17 20 16 25
 -15310884.15308 -11930537.56008  22249565.79508  22249567.37808
  15915408.11808  12401621.82208  23608637.06808  23608638.50908
  -2991770.25708  -2331246.47908  24101346.69008  24101348.26408
 -15219095.73508 -11859015.17908  22135049.00908  22135050.32508
 -24727079.82409 -19267835.25208  20272974.08509  20272975.10408
 -22623531.61308 -17628685.78208  20864688.62108  20864689.65608
    244585.84808    190586.27107  24623819.86308  24623821.22207
 93 04 09 05 10 00.0000000  0  7 03 17 24 26 25 20 16
 -15554509.11108 -12120375.04208  22203205.38308  22203206.99008
 -15488433.82708 -12068888.91308  22083795.52908  22083796.86908
  16215608.72608  12635544.43208  23665763.29308  23665764.71508
  -3297259.26208  -2569289.53008  24043213.76408  24043215.32208
    338276.64707    263592.20507  24641648.47807  24641649.95007
 -24568466.65709 -19144240.56908  20303157.15609  20303158.19108
 -22477050.43208 -17514544.55708  20892563.03308  20892563.96908
 93 04 09 05 12 00.0000000  0  7 03 17 24 26 25 20 16
 -15798238.54108 -12310293.91708  22156825.10108  22156826.63008
 -15753827.33208 -12275688.94708  22033292.75508  22033293.99908
  16515432.15508  12869173.07008  23722817.79608  23722819.19908
  -3603069.23708  -2807582.80708  23985020.00308  23985021.42708
    438121.79807    341393.62308  24660648.15207  24660649.87308
 -24401137.26609 -19013854.03508  20334998.89009  20334999.93008
 -22322260.31008 -17393928.84008  20922018.60008  20922019.53508
 93 04 09 05 14 00.0000000  0  7 03 17 24 26 25 20 16
 -16042041.98908 -12500270.51108  22110430.74908  22110432.26308
 -16015382.30308 -12479497.89308  21983520.45608  21983521.65008
  16814450.78908  13102174.54508  23779719.03408  23779720.56908
  -3908653.26508  -3045700.10708  23926869.13908  23926870.57308
    543806.78407    423745.55608  24680759.52107  24680760.94908
 -24225196.36009 -18876757.22708  20368479.33909  20368480.35408
 -22159180.17108 -17266853.37308  20953051.72208  20953052.64708
 93 04 09 05 16 00.0000000  0  7 16 03 17 24 26 25 20
 -21988064.95908 -17133516.80708  20985613.82908  20985614.82508
 -16285894.64908 -12690285.44508  22064027.00808  22064028.55808
 -16273557.71208 -12680673.42108  21934391.21408  21934392.38108
  17112520.86808  13334436.84208  23836440.06808  23836441.55408
  -4214495.77108  -3284018.83608  23868669.02508  23868670.46108
    655044.00908    510423.96907  24701927.28408  24701928.60607
 -24040765.74208 -18733045.04108  20403575.29408  20403576.29508
 93 04 09 05 18 00.0000000  0  7 16 03 17 24 26 25 20
 -21809017.25408 -16993999.07608  21019685.35908  21019686.40208
 -16529755.90108 -12880307.07008  22017621.65208  22017623.15808
 -16528114.22708 -12879029.00408  21885950.56808  21885951.77508
  17409900.84408  13566161.39408  23893029.73608  23893031.09708
  -4520317.07408  -3522321.02408  23810473.23808  23810474.64808
    772032.09808    601583.63707  24724189.27608  24724190.42707
 -23847958.74908 -18582805.83208  20440265.23908  20440266.26408
 93 04 09 05 20 00.0000000  0  7 16 03 17 24 26 25 20
 -21621727.15008 -16848058.68808  21055325.47808  21055326.47508
 -16773590.97808 -13070308.30108  21971221.30308  21971222.75608
 -16778829.50608 -13074391.39508  21838240.93108  21838242.04208
  17706605.39508  13797359.75908  23949490.70908  23949491.97508
  -4825612.51408  -3760213.41708  23752377.23108  23752378.68508
    894543.89507    697047.49007  24747502.46207  24747503.70707
 -23646902.55908 -18426138.67008  20478524.98408  20478525.95508
 93 04 09 05 22 00.0000000  0  7 03 16 17 24 26 25 20
 -17017341.97908 -13260243.99608  21924836.93908  21924838.33808
 -21426729.46308 -16696112.38908  21092432.29008  21092433.25608
 -17025848.29408 -13266873.38708  21791234.68708  21791235.79108
  18002652.41708  14028045.74008  24005826.58108  24005828.00008
  -5130415.93508  -3997722.41508  23694375.00208  23694376.46608
   1022142.87407    796475.36207  24771783.67607  24771784.96807
 -23437709.87008 -18263131.39308  20518333.00208  20518334.01808
 93 04 09 05 24 00.0000000  0  7 03 16 24 26 17 25 20
 -17260947.39508 -13450066.25008  21878480.23308  21878481.56308
 -21224101.79008 -16538220.64308  21130991.10308  21130991.95108
  18297931.44408  14258133.29308  24062016.32208  24062017.81608
  -5434911.96208  -4234991.84908  23636431.13408  23636432.50708
 -17269481.10608 -13456716.97608  21744872.73008  21744873.83508
   1154651.26907    899728.57207  24796999.11107  24797000.51307
 -23220501.04008 -18093877.76508  20559666.47408  20559667.50208
 93 04 09 05 26 00.0000000  0  7 03 16 24 26 17 25 20
 -17504388.81908 -13639760.73108  21832154.76608  21832156.11408
 -21014015.06808 -16374516.65408  21170969.21008  21170970.03508
  18592207.40508  14487439.16308  24118015.24308  24118016.64708
  -5738315.65508  -4471410.10808  23578695.19008  23578696.39508
 -17509452.90208 -13643707.83708  21699207.53508  21699208.62008
   1292047.32608   1006790.32308  24823144.77708  24823146.14508
 -22995442.23408 -17918507.28908  20602493.79608  20602494.82108
 93 04 09 05 28 00.0000000  0  7 03 26 24 16 17 25 20
 -17747596.89708 -13829273.43608  21785873.81408  21785875.06108
  -6040675.36608  -4707014.86508  23521157.75208  23521159.01108
  18885451.29408  14715940.78408  24173817.69508  24173819.08408
 -20796508.64608 -16205031.08508  21212359.26808  21212360.08508
 -17745586.41508 -13827707.83608  21654272.74208  21654273.67008
   1434507.47008   1117798.20908  24850254.06708  24850255.43308
 -22762660.64008 -17737119.06508  20646790.67808  20646791.72308
 93 04 09 05 30 00.0000000  0  7 03 26 24 16 17 25 20
 -17990480.80408 -14018533.54708  21739654.47108  21739655.73008
  -6341752.58708  -4941620.27708  23463864.68208  23463865.96108
  19178185.48008  14944045.23208  24229523.32408  24229524.73108
 -20571603.26408 -16029780.09808  21255157.24208  21255158.11908
 -17977882.76408 -14008717.84608  21610068.13508  21610069.00908
   1581619.87308   1232431.24808  24878248.64708  24878249.99208
 -22522265.92908 -17549798.56508  20692536.29508  20692537.34408
 93 04 09 05 32 00.0000000  0  7 03 26 24 16 17 25 20
 -18233033.82908 -14207535.83408  21693498.13408  21693499.30808
  -6641424.30008  -5175130.51108  23406838.84408  23406840.06908
  19469884.38508  15171342.90608  24285031.98608  24285033.56008
 -20339779.41808 -15849138.10808  21299271.80608  21299272.73208
 -18206624.76508 -14186958.24008  21566539.88708  21566540.79108
   1733097.82608   1350466.03707  24907073.91408  24907075.18707
 -22274463.77608 -17356706.02408  20739691.52108  20739692.56308
 93 04 09 05 34 00.0000000  0  7 03 26 24 16 17 25 20
 -18475177.73308 -14396219.35408  21647419.64608  21647420.78608
  -6939308.34308  -5407247.78008  23350153.23908  23350154.50508
  19760655.03808  15397917.34808  24340363.85708  24340365.31508
 -20101059.88208 -15663122.86108  21344698.59808  21344699.53508
 -18431879.00608 -14362480.87808  21523675.25508  21523676.15108
   1888973.32207   1471927.46607  24936736.00507  24936737.30507
 -22019392.70308 -17157949.37208  20788229.98808  20788231.00308
 93 04 09 05 36 00.0000000  0  6 26 03 24 16 17 20
  -7235395.78608  -5637965.07808  23293809.54808  23293810.75908
 -18716783.02808 -14584483.13108  21601443.60008  21601444.72608
  20050704.79208  15623929.92507  24395558.58408  24395560.10807
 -19855204.71008 -15471547.38208  21391483.25408  21391484.16408
 -18653583.41608 -14535237.40008  21481486.24008  21481487.10108
 -21757149.32808 -16953603.94708  20838133.26508  20838134.34008
 93 04 09 05 38 00.0000000  0  6 26 03 24 16 17 20
  -7529635.62208  -5867242.67908  23237817.31208  23237818.54908
 -18957847.36408 -14772325.42508  21555570.53908  21555571.68508
  20339591.35707  15849036.33708  24450531.81207  24450533.72708
 -19602729.48508 -15274813.42008  21439527.73608  21439528.56408
 -18871786.73808 -14705265.84508  21439963.41908  21439964.28508
 -21487962.46608 -16743847.96808  20889357.81608  20889358.90908
 93 04 09 05 40 00.0000000  0  6 26 03 16 24 17 20
  -7821390.16808  -6094583.68808  23182298.17508  23182299.26908
 -19198312.39608 -14959700.71208  21509811.52408  21509812.65608
 -19343868.68708 -15073103.69008  21488787.34408  21488788.21208
  20627583.20408  16073445.41508  24505335.22508  24505336.69108
 -19086435.71108 -14872524.64108  21399116.93608  21399117.74108
 -21212011.53108 -16528821.28508  20941869.54508  20941870.63708
 93 04 09 05 42 00.0000000  0  6 20 26 24 03 16 17
 -20929439.74408 -16308635.54708  20995641.20408  20995642.35008
  -8111099.92708  -6320331.37008  23127168.16108  23127169.08008
  20914849.90707  16297289.47508  24559999.85507  24560002.04408
 -19438073.68108 -15146527.62608  21464186.46808  21464187.55308
 -19078775.04908 -14866537.21708  21539232.91308  21539233.78508
 -19297398.00408 -15036910.73908  21358972.07608  21358972.84408
 93 04 09 05 44 00.0000000  0  6 20 26 24 03 16 17
 -20640446.34108 -16083445.92908  21050634.85108  21050636.00608
  -8398171.22808  -6544023.11108  23072540.07908  23072540.97408
  21200773.06208  16520086.54208  24614409.72908  24614411.33008
 -19677079.05608 -15332765.52208  21418705.11708  21418706.24808
 -18807572.05308 -14655210.20508  21590841.09208  21590841.96608
 -19505200.92308 -15198834.98108  21319428.44208  21319429.18808
 93 04 09 05 46 00.0000000  0  7 20 26 24 03 16 17 22
 -20345182.23708 -15853370.06208  21106821.78108  21106822.91008
  -8682151.22808  -6765306.05408  23018500.48608  23018501.24408
  21485746.39807  16742143.55008  24668638.30807  24668640.21108
 -19915221.70308 -15518331.16108  21373388.09408  21373389.10208
 -18529877.39908 -14438824.76708  21643684.66208  21643685.51808
 -19709257.67608 -15357840.15708  21280597.66308  21280598.38108
        -0.30817        -0.48417  24865957.48617  24865958.55217
 93 04 09 05 48 00.0000000  0  7 20 26 24 03 16 17 22
 -20043795.75108 -15618523.48308  21164173.77908  21164174.89708
  -8963130.71208  -6984250.94008  22965031.72108  22965032.50508
  21769813.69508  16963494.57508  24722694.68208  24722696.61708
 -20152386.34108 -15703134.71408  21328257.13608  21328258.10208
 -18246364.15308 -14217905.37008  21697635.41408  21697636.30808
 -19909721.08408 -15514045.33308  21242450.65408  21242451.40608
   -359903.55407   -280444.27607  24797469.85207  24797470.69807
 93 04 09 05 50 00.0000000  0  7 20 26 24 03 16 17 22
 -19736461.84708 -15379042.56008  21222657.52308  21222658.66908
  -9241003.17408  -7200774.77708  22912154.16008  22912154.94208
  22053083.34807  17184223.97807  24776598.94707  24776601.02307
 -20388477.63208 -15887101.89608  21283330.35808  21283331.40508
 -17957147.92408 -13992542.09308  21752671.45708  21752672.36008
 -20106890.23008 -15667683.55708  21204930.57908  21204931.24908
   -715640.23007   -557641.32907  24729775.33507  24729776.19907
 93 04 09 05 52 00.0000000  0  7 20 24 26 03 16 17 22
 -19423380.74008 -15135083.30008  21282234.93608  21282236.08308
  22335414.59708  17404222.19407  24830325.20508  24830327.09707
  -9515619.87808  -7414761.69708  22859896.29508  22859896.99908
 -20623419.96408 -16070173.81908  21238622.28008  21238623.34708
 -17662574.59008 -13763004.45108  21808726.91008  21808727.81208
 -20300616.64408 -15818639.13008  21168065.63008  21168066.31808
  -1067075.23507   -831486.53507  24662899.09607  24662899.96307
 93 04 09 05 54 00.0000000  0  7 20 24 26 03 16 17 22
 -19104743.89108 -14886794.90108  21342869.53208  21342870.73108
  22616616.68607  17623340.56708  24883836.27307  24883838.36408
  -9786791.65808  -7626064.26608  22808293.98408  22808294.62308
 -20857123.88208 -16252280.75808  21194149.88108  21194150.97108
 -17362413.66508 -13529112.84008  21865845.67508  21865846.52408
 -20490985.13908 -15966978.15208  21131839.64108  21131840.32508
  -1414066.64807  -1101869.27007  24596868.71307  24596869.54207
 93 04 09 05 56 00.0000000  0  7 20 24 26 03 16 17 22
 -18780729.26308 -14634316.02208  21404527.48008  21404528.69408
  22897114.96008  17841910.49607  24937213.50308  24937215.45107
 -10054103.42008  -7834359.02508  22757426.21108  22757426.86008
 -21089482.49008 -16433339.38308  21149933.47408  21149934.57408
 -17056847.10308 -13291009.05208  21923993.09308  21923993.95908
 -20678083.74408 -16112769.21708  21096235.90708  21096236.58108
  -1756456.39708  -1368666.29608  24531713.91808  24531714.75308
 93 04 09 05 58 00.0000000  0  7 20 24 26 03 16 17 22
 -18451529.78408 -14377797.01108  21467172.15308  21467173.30308
  23176430.92007  18059559.21607  24990365.49107  24990367.58207
 -10317360.47508  -8039494.28808  22707329.88108  22707330.54008
 -21320396.31708 -16613272.21308  21105992.01208  21105993.06808
 -16746437.75808 -13049131.66708  21983062.05108  21983062.94808
 -20861769.18208 -16255900.68108  21061281.73108  21061282.38408
  -2094099.95408  -1631765.02208  24467462.44808  24467463.19408
 93 04 09 06 00 00.0000000  0  7 20 24 26 03 16 17 22
 -18117339.14408 -14117388.79408  21530766.53608  21530767.73308
  23454876.51907  18276529.68707  25043352.01607  25043354.27307
 -10576738.29408  -8241606.77708  22657971.93408  22657972.38308
 -21549762.85208 -16791999.34108  21062344.97608  21062346.03208
 -16430996.21908 -12803333.08808  22043088.66708  22043089.55808
 -21041905.58708 -16396266.65608  21027002.86308  21027003.45808
  -2426853.87408  -1891053.67408  24404141.32508  24404142.19508
 93 04 09 06 02 00.0000000  0  6 20 26 03 16 22 17
 -17778372.71808 -13853259.20208  21595269.79908  21595271.00108
 -10831536.22008  -8440150.50708  22609485.37108  22609485.90008
 -21777496.18608 -16969453.85108  21019008.76408  21019009.79608
 -16110989.53008 -12553977.26008  22103983.88108  22103984.75508
  -2754595.98508  -2146437.03308  24341774.06908  24341774.80808
 -21218806.86008 -16534111.76208  20993339.59808  20993340.19308
 93 04 09 06 04 00.0000000  0  6 20 26 16 22 03 17
 -17434812.18408 -13585549.76908  21660647.27308  21660648.48108
 -11081964.39108  -8635289.23608  22561830.37208  22561830.84608
 -15786379.80608 -12301034.66108  22165755.03308  22165756.01908
  -3077170.01408  -2397793.30508  24280390.14608  24280390.84208
 -22003473.99208 -17145540.43408  20976006.61508  20976007.65708
 -21392458.21608 -16669424.47908  20960294.89508  20960295.48108
 93 04 09 06 06 00.0000000  0  6 20 26 16 22 03 17
 -17086887.77908 -13314439.92408  21726855.10508  21726856.36808
 -11327882.46908  -8826913.61508  22515033.72708  22515034.26408
 -15457428.90608 -12044709.32808  22228352.30808  22228353.30308
  -3394472.43208  -2645041.80408  24220009.54208  24220010.11908
 -22227618.40308 -17320198.38508  20933353.34508  20933354.36408
 -21562893.32608 -16802231.00608  20927862.10108  20927862.68608
 93 04 09 06 08 00.0000000  0  6 20 26 16 22 03 17
 -16734810.61008 -13040094.14908  21793853.21108  21793854.49708
 -11568909.49608  -9014726.78208  22469167.54108  22469168.05608
 -15124046.27508 -11784930.69608  22291792.99308  22291793.92108
  -3706380.51508  -2888086.90808  24160655.16808  24160655.79108
 -22449828.94908 -17493349.45308  20891068.06008  20891069.08008
 -21730486.02508 -16932822.66708  20895970.21808  20895970.80408
 93 04 09 06 10 00.0000000  0  6 20 26 16 22 03 17
 -16378744.56908 -12762640.16308  21861610.34008  21861611.68508
 -11805049.06908  -9198731.54908  22424231.66708  22424232.08708
 -14786644.55708 -11522020.30408  22355998.46308  22355999.41408
  -4012723.68908  -3126795.71608  24102359.92108  24102360.50508
 -22669951.86908 -17664873.79808  20849180.05308  20849181.06708
 -21894834.19108 -17060886.12608  20864695.75308  20864696.28808
 93 04 09 06 12 00.0000000  0  6 20 26 16 22 03 17
 -16018882.20408 -12482227.98008  21930089.89908  21930091.24908
 -12036133.82308  -9378797.49508  22380257.69808  22380258.08308
 -14445606.13208 -11256276.11408  22420895.92208  22420896.89608
  -4313362.12108  -3361059.27408  24045150.18008  24045150.75208
 -22887860.99708 -17834673.10008  20807713.32308  20807714.30908
 -22055767.21008 -17186288.37108  20834071.18508  20834071.70308
 93 04 09 06 14 00.0000000  0  6 20 26 16 22 03 17
 -15655426.71608 -12199016.00608  21999253.19608  21999254.64308
 -12261741.99508  -9554595.98508  22337325.80308  22337326.26408
 -14100629.08808 -10987462.87108  22486542.89708  22486543.86508
  -4608167.37808  -3590777.53508  23989050.54608  23989051.08308
 -23103435.75008 -18002653.41808  20766690.77008  20766691.78808
 -22213726.87608 -17309373.73808  20804012.36508  20804012.87708
 93 04 09 06 16 00.0000000  0  6 20 26 16 22 03 17
 -15288585.66208 -11913165.92408  22069060.81008  22069062.31708
 -12481805.53908  -9726073.99808  22295448.99608  22295449.41208
 -13752146.59108 -10715918.10408  22552856.89008  22552857.90108
  -4897020.15908  -3815857.51508  23934083.57608  23934084.08308
 -23316558.35308 -18168722.95508  20726134.86508  20726135.86108
 -22368653.17508 -17430095.44708  20774530.76908  20774531.27208
 93 04 09 06 18 00.0000000  0  6 20 26 16 22 03 17
 -14918555.63708 -11624830.92008  22139475.25208  22139476.74708
 -12696165.07408  -9893107.32608  22254657.71908  22254658.09508
 -13400436.78208 -10441858.55908  22619785.07808  22619786.10508
  -5179790.98508  -4036198.33908  23880273.98108  23880274.45708
 -23527096.54208 -18332778.66108  20686070.76008  20686071.72008
 -22520341.10608 -17548293.75408  20745665.49208  20745665.96508
 93 04 09 06 20 00.0000000  0  7 20 23 26 16 22 03 17
 -14545543.15008 -11334171.92208  22210457.27908  22210458.72008
        -0.31018         0.49118  21895909.14018  21895910.20818
 -12904882.42508 -10055744.14908  22214940.00408  22214940.39508
 -13045408.25608 -10165213.00408  22687344.76608  22687345.83108
  -5456365.85408  -4251711.16008  23827643.44308  23827643.92108
 -23734927.85108 -18494725.10208  20646521.74708  20646522.67908
 -22669088.48408 -17664200.72208  20717359.75608  20717360.18408
 93 04 09 06 22 00.0000000  0  7 20 23 26 16 22 03 17
 -14169678.07508 -11041290.11108  22281982.08208  22281983.46108
   -351907.50608   -274212.82808  21828943.43508  21828944.42108
 -13107239.54708 -10213424.94908  22176432.64608  22176433.06408
 -12687181.14308  -9886075.03508  22755513.09708  22755514.17708
  -5726555.76008  -4462248.70008  23776227.96708  23776228.44408
 -23939849.81808 -18654404.53608  20607526.37708  20607527.29108
 -22814711.56308 -17777673.17908  20689648.54008  20689648.95208
 93 04 09 06 24 00.0000000  0  7 20 23 26 16 22 03 17
 -13791183.46208 -10746359.30008  22354007.29208  22354008.63308
   -698942.37908   -544629.49708  21762904.72908  21762905.70908
 -13303597.59508 -10366431.14508  22139066.92308  22139067.26508
 -12325939.96208  -9604588.43908  22824255.03608  22824256.09108
  -5990265.98408  -4667737.13608  23726045.58508  23726046.05508
 -24141749.01308 -18811728.57208  20569106.24408  20569107.17308
 -22957490.83608 -17888929.69808  20662478.46308  20662478.89908
 93 04 09 06 26 00.0000000  0  7 20 23 26 16 22 03 17
 -13410228.37708 -10449511.26308  22426500.68708  22426502.03908
  -1041055.06608   -811210.67108  21697802.69408  21697803.67508
 -13493759.46708 -10514609.15608  22102880.31108  22102880.65908
 -11962059.67608  -9321045.40808  22893499.19908  22893500.27808
  -6247351.63008  -4868063.55808  23677123.80708  23677124.16308
 -24340456.84108 -18966565.83808  20531293.38008  20531294.33808
 -23097228.68908 -17997816.29208  20635887.22208  20635887.63508
 93 04 09 06 28 00.0000000  0  7 20 23 26 16 22 03 17
 -13027054.38408 -10150934.16708  22499416.28708  22499417.69008
  -1378404.51808  -1074080.22508  21633607.13808  21633608.11608
 -13677597.01008 -10657859.10508  22067897.12008  22067897.41508
 -11595769.78108  -9035624.74508  22963201.99408  22963202.94308
  -6497746.75608  -5063176.60108  23629475.13608  23629475.53108
 -24535877.92408 -19118842.01308  20494105.98208  20494106.95308
 -23233747.58008 -18104194.60408  20609908.50808  20609908.89308
 93 04 09 06 30 00.0000000  0  7 20 23 26 16 22 03 17
 -12641842.74008  -9850769.29008  22572719.64008  22572721.09908
  -1710811.10308  -1333098.20008  21570352.22308  21570353.13508
 -13854291.39508 -10795542.96208  22034273.25408  22034273.46108
 -11226704.37808  -8748041.36008  23033432.84408  23033433.90308
  -6741330.34708  -5252981.95408  23583122.63808  23583123.10608
 -24727854.71808 -19268434.32108  20457574.01508  20457574.99608
 -23367402.12508 -18208340.96708  20584474.87108  20584475.22708
 93 04 09 06 32 00.0000000  0  7 20 23 26 16 22 03 17
 -12254788.26208  -9549168.43208  22646373.60908  22646375.11208
  -2037757.69708  -1587861.65408  21508136.25308  21508137.14608
 -14024127.18008 -10927882.45908  22001954.50508  22001954.70708
 -10855493.36408  -8458786.04208  23104071.84508  23104072.98508
  -6977995.37808  -5437396.21708  23538086.85608  23538087.17208
 -24916241.42808 -19415229.15608  20421725.21108  20421726.17408
 -23498367.02608 -18310391.50908  20559553.06908  20559553.46108
 93 04 09 06 34 00.0000000  0  7 20 23 26 16 22 03 17
 -11866091.31808  -9246287.77008  22720340.24808  22720341.74308
  -2359357.72308  -1838458.97108  21446937.70608  21446938.55608
 -14187458.38908 -11055153.46208  21970873.49208  21970873.76808
 -10482059.78908  -8167798.91308  23175133.97208  23175135.09408
  -7207646.81508  -5616345.34808  23494385.62408  23494385.94808
 -25100896.47508 -19559116.19608  20386586.52208  20386587.48208
 -23626357.05508 -18410123.95108  20535197.33908  20535197.68308
 93 04 09 06 36 00.0000000  0  7 23 20 26 16 22 03 17
  -2675482.22608  -2084789.66108  21386781.14708  21386781.99208
 -11475962.74708  -8942291.54008  22794579.29508  22794580.83508
 -14343678.08708 -11176883.02308  21941145.88008  21941146.01808
 -10106803.41708  -7875391.41108  23246542.84708  23246544.04608
  -7430206.71708  -5789768.61408  23452033.87608  23452034.19808
 -25281690.77408 -19699994.86208  20352182.50408  20352183.44708
 -23751195.94608 -18507400.99608  20511441.26708  20511441.68908
 93 04 09 06 38 00.0000000  0  7 23 20 26 16 22 03 17
  -2986161.92508  -2326877.64308  21327660.73808  21327661.52208
 -11084576.91308  -8637315.60108  22869057.60608  22869059.11108
 -14492489.19008 -11292839.65408  21912828.06408  21912828.15708
  -9729761.54308  -7581592.63808  23318291.56008  23318292.82608
  -7645562.55408  -5957578.32708  23411052.96508  23411053.31008
 -25458454.89208 -19837733.12808  20318545.39008  20318546.34508
 -23873223.83608 -18602487.67108  20488220.14008  20488220.54708
 93 04 09 06 40 00.0000000  0  7 23 26 20 16 22 03 17
  -3291669.84508  -2564935.68208  21269524.44008  21269525.19108
 -14634179.60908 -11403247.70308  21885865.12108  21885865.44408
 -10692121.32608  -8331506.09308  22943739.38708  22943740.90708
  -9350638.53008  -7286172.15008  23390436.37908  23390437.59908
  -7853623.65508  -6119703.82508  23371460.24808  23371460.54408
 -25631035.10608 -19972211.22008  20285704.45308  20285705.40508
 -23992325.83308 -18695294.40408  20465555.76208  20465556.12008
 93 04 09 06 42 00.0000000  0  7 23 26 20 16 22 03 17
  -3591503.18808  -2798571.98508  21212467.94408  21212468.68408
 -14768649.82708 -11508029.64808  21860276.31108  21860276.56208
 -10298798.72908  -8025020.97308  23018586.18408  23018587.75108
  -8970285.11008  -6989792.90308  23462815.27108  23462816.51808
  -8054315.66708  -6276087.18608  23333269.80508  23333270.07608
 -25799291.95408 -20103320.44508  20253686.25908  20253687.17308
 -24108796.24008 -18786050.55608  20443392.19508  20443392.56508
 93 04 09 06 44 00.0000000  0  7 23 26 20 16 22 03 17
  -3885427.57408  -3027603.91108  21156535.98908  21156536.66108
 -14895278.31608 -11606701.17308  21836179.64608  21836179.78808
  -9904815.24708  -7718020.89408  23093558.78808  23093560.34708
  -8588506.98008  -6692303.58008  23535465.24808  23535466.56908
  -8247579.51408  -6426682.37508  23296492.88208  23296493.13108
 -25963090.97408 -20230956.05308  20222516.34708  20222517.30808
 -24222633.62408 -18874754.99408  20421729.59208  20421729.96508
 93 04 09 06 46 00.0000000  0  7 23 26 20 16 22 03 17
  -4173536.55908  -3252104.36008  21101710.59308  21101711.26608
 -15014241.47908 -11699399.70608  21813541.64408  21813541.76208
  -9510322.83408  -7410624.24808  23168628.23508  23168629.85208
  -8205261.21308  -6393670.63008  23608394.61808  23608395.94008
  -8433302.03708  -6571401.20808  23261151.07708  23261151.23208
 -26122243.03209 -20354970.64708  20192230.72809  20192231.66608
 -24333391.81908 -18961060.08008  20400653.09208  20400653.45408
 93 04 09 06 48 00.0000000  0  7 23 26 20 16 22 03 17
  -4455950.27008  -3472166.93208  21047968.98608  21047969.67408
 -15125756.31308 -11786294.34308  21792321.09108  21792321.27908
  -9115548.21708  -7103007.71208  23243751.41308  23243753.01108
  -7821125.98808  -6094344.57808  23681493.23808  23681494.46708
  -8611455.83608  -6710222.33608  23227249.49308  23227249.73908
 -26276636.86909 -20475277.55008  20162850.54409  20162851.51808
 -24441497.11208 -19045297.98608  20380081.32008  20380081.72008
 93 04 09 06 50 00.0000000  0  6 26 20 22 23 03 17
 -15229407.16808 -11867061.18808  21772596.95708  21772597.07708
  -8720692.81808  -6795328.21108  23318889.88808  23318891.48808
  -8781991.35908  -6843107.14308  23194797.60508  23194797.90108
  -4732482.87508  -3687646.82108  20995346.60708  20995347.26108
 -26426133.73109 -20591768.61408  20134402.25409  20134403.21208
 -24546894.87308 -19127426.11008  20360024.74008  20360025.15208
 93 04 09 06 52 00.0000000  0  7 26 20 16 22 23 03 17
 -15324939.63708 -11941502.04108  21754417.62808  21754417.80808
  -8325950.65508  -6487736.97908  23394006.92908  23394008.50108
        -0.54118        -0.47318  23828205.91818  23828206.99518
  -8944860.52308  -6970018.18208  23163804.64208  23163804.89008
  -5003157.88608  -3898562.34908  20943838.81308  20943839.46808
 -26570592.32009 -20704333.75108  20106912.70109  20106913.62808
 -24649389.96708 -19207292.41808  20340520.58908  20340520.99508
 93 04 09 06 54 00.0000000  0  7 26 20 16 22 23 03 17
 -15412239.99308 -12009528.26708  21737805.00308  21737805.14908
  -7931497.86908  -6180371.21508  23469068.83608  23469070.38208
    386590.54008    301239.32808  23901771.72208  23901772.96208
  -9100002.31108  -7090907.89208  23134282.13308  23134282.36908
  -5267988.70608  -4104923.95808  20893443.08208  20893443.70708
 -26709853.72509 -20812849.13308  20080412.11209  20080413.06608
 -24749067.19908 -19284962.97708  20321552.64408  20321553.02608
 93 04 09 06 56 00.0000000  0  8 26 20 21 16 23 03 17 22
 -15491573.07208 -12071346.20908  21722708.44408  21722708.51808
  -7537518.22308  -5873374.14308  23544040.75508  23544042.29408
        -0.42618        -0.71618  23873456.77518  23873458.37418
    773779.58608    602945.07808  23975451.34008  23975452.56608
  -5526739.70808  -4306548.05508  20844204.35808  20844204.97908
 -26843769.39209 -20917199.00608  20054928.80309  20054929.77108
 -24846316.41608 -19360741.57308  20303046.70308  20303047.08208
  -9247372.23908  -7205741.59808  23106238.60908  23106238.86708
 93 04 09 06 58 00.0000000  0  8 26 20 21 16 23 03 17 22
 -15563064.72408 -12127053.94908  21709103.89008  21709104.00208
  -7144179.34508  -5566876.34508  23618890.68308  23618892.32608
   -401829.35908   -313114.02708  23796991.18508  23796992.60008
   1161237.17308    904860.12908  24049182.10908  24049183.25008
  -5779348.80008  -4503386.25308  20796134.45508  20796135.09108
 -26972175.57309 -21017255.77408  20030493.95109  20030494.89108
 -24941113.84208 -19434609.69208  20285007.37208  20285007.74408
  -9386914.13808  -7314475.54908  23079684.60808  23079684.89608
 93 04 09 07 00 00.0000000  0  8 26 20 21 16 23 03 17 22
 -15626529.83208 -12176507.22208  21697026.92408  21697027.02208
  -6751624.04408  -5260989.17708  23693591.44308  23693593.17308
   -801367.93208   -624442.72408  23720961.50208  23720962.77908
   1549066.21808   1207064.74108  24122983.30308  24122984.57008
  -6026017.59608  -4695595.64908  20749194.85808  20749195.49308
 -27094887.26109 -21112875.29108  20007142.72409  20007143.65608
 -25033073.48608 -19506266.56708  20267508.03808  20267508.40408
  -9518555.99908  -7417053.64008  23054634.03008  23054634.30908
 93 04 09 07 02 00.0000000  0  8 26 20 21 23 03 16 17 22
 -15681029.91408 -12218974.76608  21686655.84808  21686655.93708
  -6360002.72608  -4955829.77408  23768114.47408  23768116.47808
  -1198431.27508   -933842.64808  23645402.79308  23645404.20508
  -6266214.95608  -4882762.36908  20703486.76908  20703487.38008
 -27211728.33209 -21203920.28508  19984908.58909  19984909.51208
   1937041.04208   1509382.93308  24196812.33508  24196813.59008
 -25121704.06908 -19575329.36208  20250642.25308  20250642.55808
  -9642237.21608  -7513428.63508  23031098.32608  23031098.59208
 93 04 09 07 04 00.0000000  0  8 26 20 21 23 03 16 17 22
 -15727140.17608 -12254904.80208  21677881.30508  21677881.36708
  -5969509.84808  -4651549.62808  23842422.84008  23842424.59708
  -1593086.33508  -1241366.00708  23570302.38508  23570303.66308
  -6499983.03908  -5064919.25908  20659002.17508  20659002.72708
 -27322572.63909 -21290292.49108  19963815.62609  19963816.56708
   2325112.89008   1811776.69408  24270659.96708  24270660.99408
 -25207834.85708 -19642444.26508  20234252.05208  20234252.43908
  -9757955.88908  -7603599.05708  23009077.75608  23009078.04208
 93 04 09 07 06 00.0000000  0  8 26 20 21 23 03 16 17 22
 -15765029.88208 -12284429.20708  21670671.13408  21670671.22208
  -5580327.31908  -4348290.62608  23916481.78508  23916483.60408
  -1984876.45708  -1546656.93908  23495747.18808  23495748.55508
  -6727951.84608  -5242557.24408  20615621.09708  20615621.64208
 -27427283.26509 -21371885.19708  19943889.87209  19943890.79008
   2713085.20008   2114092.85908  24344488.55008  24344489.63008
 -25291669.56408 -19707770.00908  20218298.81408  20218299.19608
  -9865699.52208  -7687555.16308  22988574.82308  22988575.17508
 93 04 09 07 08 00.0000000  0  8 26 20 21 23 03 16 17 22
 -15794453.91508 -12307356.97408  21665071.82708  21665071.91608
  -5192623.46708  -4046183.79308  23990259.47208  23990261.36908
  -2373988.66008  -1849861.17908  23421701.52708  23421702.89908
  -6949739.99708  -5415379.13908  20573416.14808  20573416.71008
 -27525711.90609 -21448582.86608  19925159.57009  19925160.47608
   3101058.11008   2416409.58608  24418317.23508  24418318.35908
 -25372655.33808 -19770875.79508  20202887.76108  20202888.14408
  -9965450.24308  -7765283.01708  22969592.95308  22969593.32208
 93 04 09 07 10 00.0000000  0  8 26 20 21 23 03 16 17 22
 -15815333.46508 -12323626.69808  21661098.57608  21661098.59808
  -4806578.33408  -3745369.49608  24063721.68108  24063723.21708
  -2760502.34208  -2151040.57808  23348150.33708  23348151.67708
  -7164949.24208  -5583074.61208  20532463.16308  20532463.73808
 -27617727.60909 -21520283.41008  19907649.53509  19907650.47208
   3488634.17908   2718416.99607  24492070.50408  24492071.44707
 -25450702.05508 -19831691.41908  20188035.99008  20188036.34408
 -10057209.98508  -7836784.14508  22952131.68408  22952132.03008
 93 04 09 07 12 00.0000000  0  8 26 20 21 23 03 16 17 22
 -15827440.54508 -12333060.75408  21658794.65408  21658794.61008
  -4422373.74108  -3445989.38808  24136833.41708  24136835.21508
  -3144248.03108  -2450063.12808  23275125.84108  23275127.10508
  -7373908.02108  -5745899.59508  20492699.60808  20492700.16808
 -27703205.93409 -21586889.91508  19891383.54409  19891384.52008
   3875774.75008   3020085.04307  24565740.78208  24565741.77207
 -25526389.68808 -19890668.80008  20173633.10708  20173633.44808
 -10140992.29508  -7902069.09508  22936188.50108  22936188.87208
 93 04 09 07 14 00.0000000  0  8 26 20 21 23 03 16 17 22
 -15831030.46308 -12335858.05908  21658111.48208  21658111.41308
  -4040142.32708  -3148146.86707  24209569.90208  24209571.34007
  -3525223.12908  -2746926.76008  23202628.65708  23202630.02708
  -7576633.84308  -5903867.72108  20454122.14008  20454122.65908
 -27781976.57109 -21648269.64108  19876394.00309  19876395.00108
   4262579.72907   3321491.56407  24639347.22207  24639348.33407
 -25599334.12008 -19947508.61808  20159752.21908  20159752.58908
 -10216766.32508  -7961113.82508  22921769.21308  22921769.54208
 93 04 09 07 16 00.0000000  0  8 26 21 20 23 03 16 17 22
 -15826208.11708 -12332100.33708  21659029.10008  21659029.15308
  -3903228.04408  -3041475.98808  23130696.61908  23130697.96508
  -3660062.36908  -2851980.78608  24281896.50208  24281898.54408
  -7772743.71808  -6056680.55408  20416803.60608  20416804.12608
 -27853918.66809 -21704328.43008  19862703.92709  19862704.85508
   4648551.34207   3622248.72507  24712795.15007  24712796.17307
 -25669215.00408 -20001961.27208  20146454.32908  20146454.71908
 -10284556.52308  -8013937.38808  22908869.20908  22908869.49308
 93 04 09 07 18 00.0000000  0  8 26 21 20 23 03 16 17 22
 -15812801.40908 -12321653.49808  21661580.23008  21661580.32708
  -4278079.60908  -3333568.04308  23059364.71408  23059366.01408
  -3282318.34108  -2557634.97907  24353779.10208  24353780.77007
  -7962980.90408  -6204917.28408  20380602.66608  20380603.14608
 -27918924.11209 -21754982.04108  19850333.78009  19850334.73308
   5033780.70007   3922427.40007  24786101.89807  24786102.84407
 -25736468.29008 -20054366.44608  20133656.49408  20133656.88008
 -10344401.08308  -8060569.55608  22897481.21208  22897481.48808
 93 04 09 07 20 00.0000000  0  8 26 21 22 20 23 03 16 17
 -15790404.28608 -12304201.15508  21665842.24008  21665842.34808
  -4649567.42108  -3623039.01308  22988672.94208  22988674.26608
 -10396270.80308  -8100987.56708  22887610.76708  22887611.00408
  -2907019.43108  -2265194.41008  24425196.25108  24425198.02808
  -8146531.27809  -6347943.50608  20345674.16109  20345674.62908
 -27976812.38709 -21800089.81608  19839318.04309  19839318.98908
   5418205.77107   4221979.43606  24859255.48507  24859256.45906
 -25801120.49508 -20104744.78608  20121353.58608  20121353.97408
 93 04 09 07 22 00.0000000  0  8 26 21 22 20 23 03 16 17
 -15759408.11608 -12280048.26208  21671740.64608  21671740.69508
  -5018064.96008  -3910179.88108  22918550.16808  22918551.40108
 -10440190.03408  -8135210.39808  22879253.24108  22879253.48308
  -2534319.62107  -1974779.19507  24496118.64707  24496120.58907
  -8323390.60909  -6485755.92608  20312018.93309  20312019.38608
 -28027455.62609 -21839552.08508  19829680.98909  19829681.90208
   5801690.38107   4520798.73107  24932230.12607  24932231.04407
 -25863224.65708 -20153137.64808  20109535.55308  20109535.94308
 93 04 09 07 24 00.0000000  0  7 26 21 22 20 23 03 17
 -15719837.32908 -12249213.84508  21679270.72808  21679270.78008
  -5383341.86408  -4194811.18308  22849040.19108  22849041.44308
 -10476174.29908  -8163250.13108  22872405.62108  22872406.01108
  -2164355.69608  -1686495.70108  24566520.61008  24566522.62408
  -8493997.57509  -6618696.40608  20279553.45809  20279553.95708
 -28070715.43409 -21873261.04008  19821448.91509  19821449.84008
 -25922459.27308 -20199294.50308  20098263.56208  20098263.97708
 93 04 09 07 26 00.0000000  0  7 26 21 22 20 23 03 17
 -15671729.22408 -12211726.97808  21688425.24708  21688425.33008
  -5745218.16508  -4476792.67608  22780177.39808  22780178.61808
 -10504294.14808  -8185161.76408  22867054.68808  22867054.99308
  -1797312.69308  -1400488.42907  24636366.68508  24636368.69507
  -8658530.47909  -6746903.82608  20248243.88709  20248244.34608
 -28106503.32309 -21901147.73608  19814638.71709  19814639.64108
 -25978735.08008 -20243145.78008  20087554.66608  20087555.08208
 93 04 09 07 28 00.0000000  0  7 26 21 22 20 23 03 17
 -15615015.24008 -12167534.22908  21699217.60008  21699217.66908
  -6103835.48308  -4756234.69508  22711934.77808  22711935.95408
 -10524613.56208  -8200995.13508  22863188.10708  22863188.38408
  -1433360.61408  -1116889.46107  24705624.73208  24705626.65207
  -8816679.28509  -6870136.62808  20218149.10609  20218149.56408
 -28134724.05709 -21923137.94008  19809268.48909  19809269.47308
 -26032600.12308 -20285118.54208  20077304.49108  20077304.88208
 93 04 09 07 30 00.0000000  0  7 26 21 22 28 23 03 17
 -15549783.14908 -12116704.01308  21711630.81108  21711630.89008
  -6459042.45708  -5033019.32208  22644341.07408  22644342.28808
 -10537178.55608  -8210786.10908  22860797.08408  22860797.44908
        -0.32317         0.35117  24647830.96917  24647831.03517
  -8968480.45709  -6988423.22708  20189262.28509  20189262.75208
 -28155263.73209 -21939142.90908  19805359.93109  19805360.94208
 -26083663.49708 -20324908.17408  20067587.42008  20067587.84708
 93 04 09 07 32 00.0000000  0  7 26 21 22 28 23 03 17
 -15475803.16408 -12059057.23808  21725708.72508  21725708.75408
  -6810582.15508  -5306946.33408  22577445.23908  22577446.53108
 -10542048.91408  -8214581.26308  22859870.41508  22859870.72208
   -457498.61807   -356491.87607  24560772.03007  24560771.94807
  -9114183.73509  -7101958.23108  20161535.85409  20161536.34408
 -28168018.92809 -21949082.04408  19802932.75309  19802933.70708
 -26131783.78308 -20362404.52208  20058430.43508  20058430.86708
 93 04 09 07 34 00.0000000  0  7 21 26 22 28 23 03 17
  -7158636.07708  -5578157.16308  22511212.77808  22511214.04608
 -15393084.15508 -11994600.84008  21741449.60008  21741449.59708
 -10539290.98708  -8212432.28508  22860395.22208  22860395.64108
   -915002.37807   -712988.35607  24473712.10407  24473712.03607
  -9253442.22409  -7210471.33508  20135035.91509  20135036.35108
 -28172892.68609 -21952879.79508  19802005.29009  19802006.28408
 -26177095.20808 -20397712.13208  20049807.97908  20049808.35808
 93 04 09 07 36 00.0000000  0  7 21 26 28 22 23 03 17
  -7503147.14508  -5846607.31308  22445654.47208  22445655.78408
 -15302195.79708 -11923778.71608  21758745.07908  21758745.08108
  -1372236.36807  -1069274.45007  24386703.13107  24386703.06507
 -10528966.06708  -8204386.95408  22862359.96808  22862360.42108
  -9386185.66409  -7313907.73508  20109775.61709  20109776.00808
 -28169780.94409 -21950455.03208  19802597.40409  19802598.40308
 -26219854.57908 -20431031.11808  20041671.14808  20041671.51308
 93 04 09 07 38 00.0000000  0  7 21 26 28 22 23 03 17
  -7844123.00308  -6112302.75208  22380768.91808  22380770.18808
 -15203027.32608 -11846504.55308  21777616.19008  21777616.21608
  -1829534.64108  -1425610.65508  24299682.16008  24299682.05408
 -10511145.75708  -8190501.07708  22865751.11408  22865751.61708
  -9512853.03909  -7412609.54508  20085671.56309  20085671.96308
 -28158588.98509 -21941734.01408  19804727.16309  19804728.15608
 -26259775.68808 -20462138.46908  20034074.39408  20034074.82508
 93 04 09 07 40 00.0000000  0  7 21 26 28 22 23 03 17
  -8181554.14308  -6375236.06408  22316557.89208  22316559.16308
 -15095366.84608 -11762613.24108  21798103.20108  21798103.22808
  -2286092.05008  -1781369.60508  24212802.04808  24212802.07708
 -10485902.18708  -8170830.82908  22870554.85108  22870555.35908
  -9633410.53609  -7506550.40808  20062730.18909  20062730.58308
 -28139224.25909 -21926644.59408  19808412.11809  19808413.10508
 -26296821.96408 -20491005.69408  20027024.72608  20027025.14108
 93 04 09 07 42 00.0000000  0  7 21 26 28 22 23 03 17
  -8515053.07008  -6635105.30008  22253095.13908  22253096.38708
 -14979365.59308 -11672222.62808  21820177.47808  21820177.48408
  -2741818.17008  -2136480.79108  24126080.23708  24126080.10308
 -10453328.71308  -8145448.96808  22876753.42108  22876753.97708
  -9747757.22909  -7595651.68108  20040970.65609  20040971.06608
 -28111614.32109 -21905130.37408  19813666.12209  19813667.09308
 -26331098.21208 -20517714.46608  20020502.15808  20020502.51108
 93 04 09 07 44 00.0000000  0  7 21 26 28 22 23 03 17
  -8844715.07708  -6891984.72208  22190362.50708  22190363.72408
 -14855073.72408 -11575371.80808  21843829.50108  21843829.47308
  -3196839.26308  -2491042.64208  24039492.51508  24039492.50408
 -10413479.36508  -8114397.60008  22884336.64208  22884337.12708
  -9855981.26909  -7679982.07808  20020376.33409  20020376.72808
 -28075645.97809 -21877103.08708  19820510.69709  19820511.63408
 -26362607.48708 -20542267.15408  20014506.12508  20014506.52808
 93 04 09 07 46 00.0000000  0  7 21 26 28 22 23 03 17
  -9170862.66908  -7146125.62508  22128298.60408  22128299.77508
 -14722890.01208 -11472371.48608  21868983.11608  21868983.13808
  -3651052.41908  -2844974.94508  23953058.65408  23953058.57108
 -10366472.27808  -8077768.77808  22893281.87908  22893282.34308
  -9958063.43309  -7759526.59408  20000950.78509  20000951.17808
 -28031272.51809 -21842526.38608  19828954.68509  19828955.64308
 -26391209.32408 -20564554.30608  20009063.41508  20009063.82108
 93 04 09 07 48 00.0000000  0  7 21 26 28 22 23 03 17
  -9492977.30508  -7397123.96908  22067002.13908  22067003.27808
 -14582293.39808 -11362815.65908  21895737.78608  21895737.75808
  -4104129.06508  -3198021.65708  23866840.86108  23866840.71808
 -10312376.78108  -8035616.51308  22903575.93008  22903576.43308
 -10054263.62509  -7834487.74308  19982644.45109  19982644.80208
 -27978397.71409 -21801325.27408  19839016.42609  19839017.42708
 -26416684.20308 -20584404.86608  20004215.72008  20004216.11008
 93 04 09 07 50 00.0000000  0  7 21 26 28 22 23 03 17
  -9811186.55608  -7645079.15708  22006448.85108  22006450.00508
 -14433889.72308 -11247176.42608  21923978.02208  21923977.98908
  -4555895.06108  -3550047.08308  23780872.70708  23780872.56508
 -10251340.17408  -7988055.59708  22915190.87908  22915191.45208
 -10144347.95809  -7904683.29108  19965501.94009  19965502.27708
 -27917004.26709 -21753486.28408  19850699.26809  19850700.28508
 -26439412.01308 -20602114.85408  19999890.74208  19999891.15208
 93 04 09 07 52 00.0000000  0  7 21 26 28 22 23 03 17
 -10125362.18908  -7889891.26908  21946663.16108  21946664.28108
 -14277437.38808 -11125265.52408  21953749.99008  21953749.89708
  -5006218.32608  -3900948.32408  23695179.14508  23695178.90708
 -10183408.45308  -7935121.87508  22928117.85008  22928118.53408
 -10228367.83609  -7970153.29708  19949513.45409  19949513.78408
 -27846975.63109 -21698918.58208  19864025.36109  19864026.34608
 -26459309.37008 -20617619.30008  19996104.40308  19996104.80308
 93 04 09 07 54 00.0000000  0  7 21 26 28 22 23 03 17
 -10435814.96408  -8131802.45408  21887585.95608  21887587.03408
 -14113247.16108 -10997325.06908  21984994.34608  21984994.28308
  -5454913.55108  -4250580.96208  23609795.23908  23609795.12608
 -10108685.71708  -7876896.43808  22942337.21508  22942337.81208
 -10306581.07609  -8031098.65908  19934629.95109  19934630.28408
 -27768252.49809 -21637575.95808  19879005.92109  19879006.91008
 -26476134.43308 -20630729.74708  19992902.73308  19992903.10808
 93 04 09 07 56 00.0000000  0  7 21 26 28 22 23 03 17
 -10742165.31808  -8370516.94508  21829289.41508  21829290.37408
 -13941183.11808 -10863249.16308  22017737.02708  22017736.99508
  -5901836.50708  -4598832.63108  23524748.40908  23524748.25108
 -10027300.18308  -7813479.21308  22957824.30108  22957825.03908
 -10379048.32909  -8087566.63808  19920839.90209  19920840.26008
 -27680803.36609 -21569433.83508  19895646.99109  19895647.98808
 -26489678.12608 -20641283.28408  19990325.44408  19990325.85808
 93 04 09 07 58 00.0000000  0  7 21 26 28 22 23 03 17
 -11044276.11308  -8605927.87408  21771799.52608  21771800.55608
 -13761266.95108 -10723054.72908  22051973.87608  22051973.81208
  -6346891.84408  -4945629.01508  23440057.22508  23440057.08708
  -9939377.96308  -7744968.44808  22974555.42008  22974556.15908
 -10445740.51409  -8139534.56309  19908148.75309  19908149.11409
 -27584594.05109 -21494465.59808  19913955.04109  19913956.08808
 -26500282.43308 -20649546.38408  19988307.50808  19988307.92308
 93 04 09 08 00 00.0000000  0  7 21 26 28 22 23 03 17
 -11342566.92708  -8838362.23008  21715036.60108  21715037.67708
 -13573824.48108 -10576995.65708  22087643.06608  22087642.95308
  -6790019.63508  -5290923.41308  23355732.98808  23355732.93608
  -9845026.05308  -7671447.55108  22992510.16808  22992510.79508
 -10506690.54309  -8187028.06609  19896550.33909  19896550.69409
 -27479575.74909 -21412633.21608  19933939.39309  19933940.46608
 -26507711.27008 -20655335.09708  19986893.86408  19986894.24608
 93 04 09 08 02 00.0000000  0  7 21 26 28 22 23 03 17
 -11636726.41208  -9067577.36008  21659059.88108  21659060.90308
 -13379064.83608 -10425234.88108  22124704.55208  22124704.49808
  -7230840.21108  -5634419.95108  23271847.64108  23271847.54508
  -9744380.85808  -7593022.81408  23011662.30008  23011663.09508
 -10561810.97709  -8229979.04509  19886061.25809  19886061.59309
 -27365729.14209 -21323921.65908  19955603.73709  19955604.82408
 -26511916.53408 -20658611.93208  19986093.67408  19986094.01908
 93 04 09 08 04 00.0000000  0  7 21 26 28 22 23 03 17
 -11926644.65108  -9293487.60908  21603890.28408  21603891.30908
 -13176959.35908 -10267750.08408  22163163.91008  22163163.87608
  -7669029.00008  -5975865.75908  23188463.05308  23188462.98908
  -9637587.16408  -7509807.00608  23031984.45608  23031985.20808
 -10611262.12909  -8268512.39209  19876651.03509  19876651.35909
 -27243047.28409 -21228325.48308  19978949.38609  19978950.43908
 -26513149.36909 -20659572.58908  19985859.07709  19985859.40308
 93 04 09 08 06 00.0000000  0  7 21 26 28 22 23 03 17
 -12212628.53408  -9516332.13508  21549469.28508  21549470.32708
 -12967457.52508 -10104501.90808  22203030.87008  22203030.82508
  -8104583.66208  -6315259.00608  23105579.83408  23105579.85808
  -9524759.90908  -7421889.76108  23053454.89708  23053455.64208
 -10655122.96509  -8302689.65309  19868304.56909  19868304.87909
 -27111495.30508 -21125817.50608  20003982.92908  20003984.05408
 -26511332.06509 -20658156.51308  19986204.88609  19986205.22008
 93 04 09 08 08 00.0000000  0  7 21 26 28 22 23 03 17
 -12494366.30808  -9735868.01808  21495856.36508  21495857.33008
 -12750941.46908  -9935788.10408  22244232.49908  22244232.42808
  -8537467.63608  -6652571.19608  23023204.67708  23023204.62408
  -9406011.60908  -7329358.70008  23076051.94908  23076052.72608
 -10693394.07909  -8332511.28709  19861021.84009  19861022.13809
 -26971038.19708 -21016370.46808  20030711.08208  20030712.20108
 -26506057.54408 -20654046.51308  19987208.58708  19987208.97108
 93 04 09 08 10 00.0000000  0  7 21 26 28 22 23 03 17
 -12771831.20908  -9952074.38208  21443056.49208  21443057.50808
 -12527463.45808  -9761649.39508  22286758.91708  22286758.85208
  -8967518.82208  -6987675.99908  22941368.60108  22941368.58008
  -9281532.08508  -7232361.75908  23099739.70708  23099740.55408
 -10726459.62509  -8358276.62209  19854729.71009  19854730.01109
 -26821721.58908 -20900019.90808  20059125.12108  20059126.21508
 -26497495.09408 -20647374.49208  19988837.95808  19988838.41608
 93 04 09 08 12 00.0000000  0  7 21 26 28 22 23 03 17
 -13045299.58508 -10165166.57508  21391017.12708  21391018.18408
 -12297146.86008  -9582181.92108  22330586.59008  22330586.52108
  -9394316.83108  -7320245.86108  22860151.53508  22860151.53308
  -9151402.00008  -7130961.76508  23124502.79108  23124503.59708
 -10754184.60409  -8379880.47609  19849453.73809  19849454.02009
 -26663485.45208 -20776719.09608  20089236.53408  20089237.64508
 -26485688.09908 -20638174.22808  19991084.72308  19991085.19908
 93 04 09 08 14 00.0000000  0  8 21 01 26 28 22 23 03 17
 -13314336.60608 -10374805.75208  21339821.07508  21339822.05108
        -0.32218        -0.06417  24388424.36318  24388426.24717
 -12059945.53408  -9397349.72708  22375724.62008  22375724.44608
  -9817634.89608  -7650104.06908  22779596.83608  22779596.84808
  -9015787.26408  -7025288.05408  23150309.43508  23150310.44908
 -10776553.37709  -8397310.69009  19845197.10409  19845197.44609
 -26496358.11508 -20646490.05908  20121039.83008  20121041.00708
 -26470365.68808 -20626234.71108  19994000.51008  19994000.99708
 93 04 09 08 16 00.0000000  0  8 21 01 26 28 22 23 03 17
 -13579101.86108 -10581116.26108  21289437.85508  21289438.79208
   -469779.62207   -366061.59808  24299028.04507  24299029.82208
 -11816317.16108  -9207509.44708  22422085.54608  22422085.44608
 -10237305.20808  -7977119.88808  22699736.21408  22699736.17508
  -8874827.89508  -6915449.69908  23177133.29008  23177133.97608
 -10793745.45009  -8410707.11509  19841925.57109  19841925.84309
 -26320345.21708 -20509337.21208  20154534.02408  20154535.22408
 -26451659.52808 -20611658.48908  19997560.20508  19997560.63508
 93 04 09 08 18 00.0000000  0  8 21 01 26 28 22 23 03 17
 -13839544.46708 -10784058.51008  21239877.24208  21239878.18508
   -940488.06308   -732847.04607  24209455.07008  24209456.61907
 -11565882.36608  -9012365.47708  22469741.74908  22469741.65308
 -10653469.36708  -8301403.64608  22620542.76208  22620542.62208
  -8728634.44908  -6801532.82408  23204953.05008  23204953.89408
 -10805970.17609  -8420232.88009  19839599.29209  19839599.55809
 -26135425.68408 -20365244.13108  20189723.09308  20189724.31008
 -26429689.86008 -20594539.28608  20001740.91908  20001741.32108
 93 04 09 08 20 00.0000000  0  8 21 01 26 28 22 23 03 17
 -14095852.61508 -10983779.08008  21191103.35508  21191104.31408
  -1412086.60808  -1100326.18308  24119712.56808  24119714.40108
 -11309099.14208  -8812274.67708  22518606.02608  22518605.84008
 -11065540.17208  -8622497.78108  22542128.33808  22542128.21008
  -8577364.82008  -6683660.50108  23233738.66308  23233739.48508
 -10812969.72709  -8425687.06909  19838267.25909  19838267.52509
 -25941631.25708 -20214235.54808  20226600.98308  20226602.21408
 -26403945.77909 -20574478.96408  20006639.86409  20006640.24508
 93 04 09 08 22 00.0000000  0  8 21 01 26 28 22 23 03 17
 -14347906.43408 -11180184.61408  21143139.04608  21143139.95008
  -1884151.87507  -1468168.95907  24029881.17907  24029882.74007
 -11046117.58608  -8607354.00808  22568649.75808  22568649.65708
 -11473735.03608  -8940571.69208  22464451.52608  22464451.39308
  -8421190.98308  -6561966.63508  23263457.70608  23263458.52608
 -10814751.40609  -8427075.37509  19837928.26109  19837928.53009
 -25739012.12808 -20056350.59708  20265158.16308  20265159.40108
 -26374614.75309 -20551623.63208  20012221.43409  20012221.79708
 93 04 09 08 24 00.0000000  0  8 21 01 26 28 22 23 03 17
 -14595786.36508 -11373337.75008  21095969.03908  21095969.96608
  -2356815.49007  -1836478.18408  23939936.20307  23939938.12508
 -10776817.68508  -8397509.95408  22619895.87608  22619895.82108
 -11877812.61708  -9255437.32908  22387558.12508  22387557.98308
  -8260263.90508  -6436568.99308  23294081.09208  23294081.97108
 -10811576.98809  -8424601.79709  19838532.28809  19838532.58209
 -25527597.56508 -19891612.03008  20305389.08308  20305390.29508
 -26341943.30709 -20526165.39208  20018438.56709  20018438.95708
 93 04 09 08 26 00.0000000  0  8 21 01 26 28 22 23 03 17
 -14839360.46208 -11563135.70508  21049618.40608  21049619.33208
  -2829594.20208  -2204877.11507  23849969.49708  23849970.97607
 -10501719.35408  -8183147.64908  22672245.26708  22672245.21408
 -12277325.58108  -9566746.12508  22311533.24308  22311533.11908
  -8094753.31408  -6307599.73008  23325576.69608  23325577.69408
 -10803484.84709  -8418296.22309  19840072.18409  19840072.45609
 -25307443.37708 -19720063.39408  20347283.12708  20347284.33408
 -26305428.12608 -20497712.02308  20025387.15608  20025387.57308
 93 04 09 08 28 00.0000000  0  8 01 26 28 22 23 21 03 17
  -3302517.14908  -2573388.32808  23759975.01708  23759976.72108
 -10220853.05308  -7964290.81408  22725692.36508  22725692.29908
 -12671826.85908  -9874149.71608  22236462.19608  22236461.96208
  -7924827.27408  -6175189.89408  23357912.59508  23357913.62408
 -10790706.66909  -8408339.20509  19842503.74409  19842504.01809
 -15078339.28008 -11749352.90708  21004142.26608  21004143.11408
 -25078607.30508 -19541749.63408  20390829.22408  20390830.46908
 -26265051.49208 -20466249.74008  20033070.61408  20033071.06408
 93 04 09 08 30 00.0000000  0  8 01 26 28 22 23 21 03 17
  -3775499.38608  -2941945.83508  23669969.40908  23669971.00708
  -9934307.22708  -7741008.38808  22780220.25508  22780220.24408
 -13061757.38308 -10177991.68608  22162260.81908  22162260.61508
  -7750665.27208  -6039479.25708  23391054.48608  23391055.65808
 -10773210.18009  -8394705.56909  19845833.29709  19845833.56509
 -15313141.98408 -11932315.99508  20959460.75808  20959461.57908
 -24841161.05308 -19356726.63508  20436013.76208  20436015.05408
 -26221037.48008 -20431953.12708  20041446.23408  20041446.66208
 93 04 09 08 32 00.0000000  0  8 28 01 26 22 23 21 03 17
 -13446655.24508 -10477912.09408  22089017.30308  22089017.14808
  -4248223.83008  -3310302.44508  23580012.93308  23580014.46808
  -9642366.15008  -7513521.87708  22835774.82508  22835774.80708
  -7572432.23808  -5900596.44408  23424971.26508  23424972.27108
 -10751368.99609  -8377686.44409  19849989.47409  19849989.74609
 -15543922.38408 -12112144.84508  20915544.70308  20915545.51008
 -24595168.46108 -19165044.17808  20482824.68908  20482825.98408
 -26173468.79508 -20394886.62808  20050498.24908  20050498.66908
 93 04 09 08 34 00.0000000  0  8 28 01 26 22 23 21 03 17
 -13826368.11908 -10773792.25008  22016760.33708  22016760.19808
  -4720681.38008  -3678451.07108  23490107.13308  23490108.76008
  -9344905.56408  -7281734.45408  22892379.73208  22892379.75608
  -7390277.67308  -5758657.86308  23459633.97708  23459635.20308
 -10724988.75009  -8357130.41308  19855009.50009  19855009.74808
 -15770095.01208 -12288383.21608  20872505.38808  20872506.25108
 -24340679.93808 -18966741.50608  20531252.27508  20531253.61208
 -26122047.39908 -20354818.00608  20060283.43108  20060283.86008
 93 04 09 08 36 00.0000000  0  8 28 01 26 22 23 21 03 17
 -14200725.59708 -11065499.37508  21945522.43008  21945522.32608
  -5192610.62208  -4046188.01108  23400301.94208  23400303.41108
  -9042259.54808  -7045906.42608  22949971.47008  22949971.40108
  -7204396.23608  -5613815.22008  23495006.20608  23495007.22008
 -10693837.91309  -8332857.03609  19860937.29909  19860937.60109
 -15991903.26908 -12461220.75308  20830296.65108  20830297.49608
 -24077796.91108 -18761897.66208  20581277.29208  20581278.62108
 -26066544.10608 -20311568.68408  20070845.32408  20070845.73908
 93 04 09 08 38 00.0000000  0  8 28 01 26 22 23 21 03 17
 -14569447.17008 -11352814.87708  21875356.95508  21875356.84408
  -5663660.35108  -4413239.64308  23310664.06108  23310665.53908
  -8734639.24508  -6806202.34008  23008509.69808  23008509.66108
  -7014979.32408  -5466217.69108  23531051.02708  23531052.14608
 -10658547.72509  -8305358.18009  19867652.77109  19867653.04909
 -16209728.18908 -12630954.43408  20788845.94308  20788846.74508
 -23806622.41708 -18550592.92508  20632880.15208  20632881.48108
 -26007026.86608 -20265191.59808  20082171.04508  20082171.50108
 93 04 09 08 40 00.0000000  0  8 28 01 26 22 23 21 03 17
 -14932581.16308 -11635776.42108  21806254.90508  21806254.80908
  -6133834.31608  -4779608.83708  23221192.89508  23221194.26408
  -8421856.69808  -6562475.72708  23068030.14808  23068030.23908
  -6822197.53108  -5315998.06908  23567736.12008  23567737.37008
 -10618935.93009  -8274491.83809  19875190.62309  19875190.93209
 -16423541.83108 -12797562.41308  20748158.50808  20748159.30608
 -23527242.33508 -18332894.22908  20686044.41008  20686045.82908
 -25943655.52908 -20215811.33808  20094230.28108  20094230.70008
 93 04 09 08 42 00.0000000  0  8 28 01 26 22 23 21 03 17
 -15289897.55908 -11914204.77408  21738259.73608  21738259.67208
  -6602957.40408  -5145159.26008  23131921.65108  23131923.07708
  -8104733.62608  -6315366.87508  23128376.66908  23128376.62908
  -6626213.36708  -5163283.22808  23605030.77908  23605032.02708
 -10575074.85009  -8240314.38109  19883537.18509  19883537.43709
 -16632792.82408 -12960615.10908  20708339.31908  20708340.13708
 -23239737.45308 -18108864.51108  20740754.85608  20740756.22408
 -25876459.69208 -20163450.95308  20107017.24808  20107017.62408
 93 04 09 08 44 00.0000000  0  8 28 01 26 22 23 21 03 17
 -15641022.08808 -12187808.29708  21671443.00208  21671442.89108
  -7071055.88808  -5509911.26208  23042845.40108  23042846.76408
  -7782967.59508  -6064640.11508  23189606.70608  23189606.73808
  -6427201.36208  -5008208.95508  23642901.54308  23642902.63008
 -10527481.78209  -8203228.87508  19892593.80209  19892594.06608
 -16837987.75908 -13120507.22008  20669292.00408  20669292.79408
 -22944209.21408 -17878582.83608  20796992.12008  20796993.45708
 -25805345.24408 -20108037.09008  20120549.81108  20120550.16908
 93 04 09 08 46 00.0000000  0  8 28 01 26 22 23 21 03 17
 -15985904.49308 -12456547.82808  21605814.12808  21605813.99608
  -7537558.39508  -5873419.62708  22954072.86208  22954074.27408
  -7456972.60708  -5810618.04808  23251641.45608  23251641.56008
  -6225385.81108  -4850950.10307  23681305.76508  23681306.53707
 -10475844.27609  -8162991.86409  19902420.10209  19902420.41109
 -17039023.95908 -13277158.75908  20631036.04608  20631036.85408
 -22640809.67508 -17642167.67308  20854727.17408  20854728.56008
 -25730366.89708 -20049612.41408  20134817.69608  20134818.11208
 93 04 09 08 48 00.0000000  0  8 28 01 26 22 23 21 03 17
 -16324664.65208 -12720516.78708  21541350.21008  21541350.12808
  -8002643.57108  -6235823.59308  22865570.05608  22865571.45608
  -7126777.98208  -5553323.52308  23314475.41808  23314475.48108
  -6020956.79008  -4691654.82608  23720207.40708  23720208.39808
 -10420060.40709  -8119523.92409  19913035.45109  19913035.73509
 -17236066.73108 -13430698.53708  20593540.03608  20593540.80908
 -22329663.57308 -17399716.24308  20913936.34608  20913937.76608
 -25651100.21808 -19987846.22408  20149901.70108  20149902.14108
 93 04 09 08 50 00.0000000  0  8 03 28 01 26 22 23 21 17
 -22010905.75108 -17151333.58708  20974593.98108  20974595.38408
 -16656798.04708 -12979322.04108  21478147.42908  21478147.28208
  -8466196.08708  -6597033.28408  22777358.91408  22777360.33908
  -6792581.76808  -5292910.86608  23378070.80508  23378070.89408
  -5814112.27408  -4530477.29808  23759568.62008  23759569.89808
 -10360675.94109  -8073250.31808  19924335.93109  19924336.22708
 -17428855.10708 -13580923.20508  20556853.60908  20556854.31808
 -25567602.47108 -19922783.07608  20165790.81308  20165791.29108
 93 04 09 08 52 00.0000000  0  8 03 01 26 28 22 23 21 17
 -21684660.92108 -16897116.90708  21036676.33408  21036677.77808
  -8927834.51908  -6956751.49208  22689512.03908  22689513.43108
  -6454132.52908  -5029184.18708  23442475.64008  23442475.78208
 -16981994.58408 -13232721.95408  21416264.52808  21416264.36508
  -5605032.45508  -4367557.97008  23799355.32708  23799356.63308
 -10297825.04609  -8024275.60108  19936296.01309  19936296.28508
 -17617601.63008 -13727998.36508  20520936.31508  20520936.99908
 -25480225.75308 -19854697.37208  20182418.07608  20182418.55908
 93 04 09 08 54 00.0000000  0  8 03 01 26 28 22 23 21 17
 -21351033.36508 -16637147.46308  21100163.57708  21100165.01308
  -9387484.46708  -7314920.22908  22602043.57108  22602044.88908
  -6112301.86508  -4762822.61508  23507523.78108  23507523.89208
 -17300289.20208 -13480743.75508  21355695.13608  21355694.96408
  -5393875.66307  -4203020.29608  23839536.90007  23839538.23108
 -10230986.09909  -7972193.30908  19949015.07709  19949015.33208
 -17802187.51908 -13871831.47508  20485810.71508  20485811.41208
 -25388520.69808 -19783238.91508  20199868.97308  20199869.44908
 93 04 09 08 56 00.0000000  0  8 01 03 26 28 22 23 21 17
  -9845127.21408  -7671524.90608  22514956.96008  22514958.32408
 -21010180.63508 -16371548.02408  21165025.76508  21165027.22708
  -5766881.13308  -4493663.58408  23573255.28008  23573255.29608
 -17611699.78908 -13723401.37108  21296435.64608  21296435.51408
  -5180847.95808  -4037024.68607  23880075.06008  23880075.53207
 -10160651.56609  -7917387.18708  19962399.28309  19962399.55408
 -17982896.70408 -14012643.75608  20451422.85208  20451423.53208
 -25292666.80108 -19708547.62808  20218109.44208  20218109.92908
 93 04 09 08 58 00.0000000  0  8 01 03 26 28 22 23 21 17
 -10300700.71408  -8026517.18908  22428264.14208  22428265.50608
 -20662223.59408 -16100412.74908  21231239.85008  21231241.38708
  -5418007.61908  -4221814.05508  23639643.77808  23639643.78008
 -17916107.17708 -13960601.94408  21238508.88808  21238508.75708
  -4966114.49308  -3869699.93308  23920937.66508  23920938.83008
 -10087122.46909  -7860091.78508  19976391.43609  19976391.73308
 -18159665.18608 -14150385.41208  20417784.91608  20417785.59508
 -25192492.51508 -19630489.77708  20237172.00208  20237172.48508
 93 04 09 09 00 00.0000000  0  7 01 03 28 26 23 21 17
 -10753621.25908  -8379442.23808  22342076.21708  22342077.47208
 -20307301.40808 -15823850.10208  21298779.35608  21298780.95908
 -18212994.29508 -14191942.55208  21182013.08308  21182013.02908
  -5066117.12308  -3947613.63808  23706606.23608  23706606.12108
 -10010269.90109  -7800206.66108  19991015.97309  19991016.21208
 -18332286.46508 -14284895.46108  20384936.17108  20384936.79008
 -25087969.01308 -19549042.94908  20257062.10108  20257062.69308
 93 04 09 09 02 00.0000000  0  8 01 03 28 26 31 23 21 17
 -11203451.53108  -8729959.26608  22256476.34808  22256477.57308
 -19945591.51508 -15541998.34508  21367610.56108  21367612.18508
 -18502114.53608 -14417231.03808  21126995.22608  21126995.14108
  -4711116.78008  -3670989.92908  23774160.48408  23774160.30908
        -0.12317        -0.25717  24322689.96617  24322689.46617
  -9930134.24609  -7737763.30008  20006265.29809  20006265.56308
 -18500868.75408 -14416258.24808  20352855.96808  20352856.59808
 -24979372.43408 -19464422.29608  20277727.43108  20277727.98108
 93 04 09 09 04 00.0000000  0  8 01 03 28 26 31 23 21 17
 -11650670.76108  -9078441.71908  22171373.32708  22171374.45508
 -19577212.92108 -15254950.17708  21437710.72008  21437712.29408
 -18783792.34508 -14636720.23208  21073393.73508  21073393.62708
  -4353050.60908  -3391977.30108  23842298.14108  23842298.00608
   -421874.12907   -328733.29107  24242409.92107  24242409.84907
  -9847040.48209  -7673014.91008  20022077.49509  20022077.77008
 -18665569.78008 -14544596.70308  20321514.39408  20321515.03208
 -24866571.56208 -19376525.57808  20299192.82308  20299193.31208
 93 04 09 09 06 00.0000000  0  8 01 03 28 26 31 23 21 17
 -12095092.32708  -9424744.17008  22086802.58308  22086803.78808
 -19202347.53608 -14962847.38708  21509045.31308  21509046.90908
 -19057691.46208 -14850148.10708  21021272.49308  21021272.38808
  -3992395.84508  -3110947.59408  23910928.49408  23910928.19308
   -840775.47207   -655149.94307  24162695.70907  24162695.58207
  -9760743.32809  -7605770.37208  20038499.35009  20038499.58508
 -18826539.68108 -14670027.78308  20290882.83908  20290883.48608
 -24749343.82508 -19285179.33908  20321500.60908  20321501.11208
 93 04 09 09 08 00.0000000  0  8 01 03 26 31 23 21 28 17
 -12536185.52808  -9768453.08508  22002865.35208  22002866.56208
 -18821154.18008 -14665813.70808  21581584.09808  21581585.66208
  -3629226.07708  -2827958.13807  23980037.36908  23980037.07107
  -1256539.95107   -979122.30907  24083578.39207  24083578.25207
  -9671275.10209  -7536054.86008  20055524.51709  20055524.77008
 -18983792.97808 -14792562.77208  20260958.47608  20260959.09908
 -19323476.99008 -15057253.71008  20970695.25008  20970695.13008
 -24627615.31708 -19190326.01408  20344664.78808  20344665.33208
 93 04 09 09 10 00.0000000  0  8 01 03 26 31 23 21 28 17
 -12974132.44708 -10109710.34708  21919526.74508  21919527.98008
 -18433762.69208 -14363950.31208  21655302.32308  21655303.94208
  -3263564.90308  -2543027.31108  24049620.35008  24049620.10708
  -1668972.11507  -1300498.09007  24005095.10507  24005095.13607
  -9578841.44809  -7464028.63108  20073114.05409  20073114.32108
 -19137072.67708 -14912001.47008  20231790.37408  20231790.98208
 -19581187.10208 -15258066.79008  20921654.75408  20921654.64308
 -24501529.87708 -19092077.67108  20368658.08408  20368658.67408
 93 04 09 09 12 00.0000000  0  8 01 03 26 31 23 21 28 17
 -13408782.84108 -10448398.88108  21836815.42408  21836816.67308
 -18040328.31908 -14057378.17108  21730170.44208  21730172.10908
  -2895956.49908  -2256579.10208  24119573.84508  24119573.74108
  -2077897.51308  -1619141.32607  23927279.30908  23927279.18107
  -9483764.47809  -7389942.68308  20091206.61109  20091206.87408
 -19286645.03108 -15028551.32808  20203327.63908  20203328.24108
 -19830959.69108 -15452694.79408  20874124.49808  20874124.39408
 -24370882.02308 -18990274.20108  20393519.52308  20393520.13108
 93 04 09 09 14 00.0000000  0  8 01 03 26 31 23 21 28 17
 -13839508.39208 -10784029.10408  21754851.04408  21754852.23708
 -17641025.82408 -13746233.45708  21806155.24008  21806156.87208
  -2526121.31708  -1968395.73108  24189951.10908  24189950.91208
  -2483156.37308  -1934927.52108  23850161.03808  23850161.14508
  -9386018.72609  -7313777.15608  20109807.00209  20109807.28708
 -19432375.93508 -15142107.83908  20175595.98008  20175596.55808
 -20072319.51008 -15640767.38608  20828195.27408  20828195.20808
 -24235888.33108 -18885084.35108  20419208.03108  20419208.63408
 93 04 09 09 16 00.0000000  0  8 01 03 26 31 23 21 28 17
 -14266454.38708 -11116714.21008  21673605.83308  21673606.98308
 -17236008.03008 -13430635.25408  21883227.66808  21883229.32108
  -2154224.95108  -1678606.30007  24260720.49408  24260720.31207
  -2884566.17408  -2247714.44008  23773775.43508  23773775.46408
  -9285281.51109  -7235280.63508  20128976.65609  20128976.94208
 -19574219.99308 -15252635.66708  20148603.95008  20148604.52608
 -20304721.17608 -15821859.60708  20783970.69808  20783970.60708
 -24096221.07008 -18776252.76408  20445785.82608  20445786.45508
 93 04 09 09 18 00.0000000  0  8 01 03 31 26 23 21 28 17
 -14689317.12608 -11446217.56208  21593137.70208  21593138.79808
 -16825476.56208 -13110740.68908  21961349.30908  21961350.96908
  -3281988.51908  -2557394.27508  23698148.54108  23698148.57208
  -1780614.93507  -1387481.54608  24331816.06307  24331816.04008
  -9182087.43809  -7154869.67508  20148613.82209  20148614.11408
 -19712675.40008 -15360522.97708  20122256.71208  20122257.30408
 -20528729.93808 -15996411.89708  20741343.28608  20741343.19708
 -23951918.15608 -18663808.97708  20473245.79408  20473246.47008
 93 04 09 09 20 00.0000000  0  8 01 03 31 26 23 21 28 17
 -15108078.45908 -11772525.00708  21513450.09008  21513451.16608
 -16409567.85808 -12786656.06408  22040494.16008  22040495.90308
  -3675221.60308  -2863809.72208  23623318.83708  23623318.89108
  -1405025.96707  -1094814.74907  24403288.13707  24403288.00207
  -9076313.37509  -7072448.32908  20168741.96009  20168742.20808
 -19847276.17608 -15465406.67408  20096643.01008  20096643.58208
 -20744188.36808 -16164301.58608  20700342.93108  20700342.90108
 -23803322.35008 -18548020.07208  20501522.66608  20501523.35308
 93 04 09 09 22 00.0000000  0  8 01 03 31 26 23 21 28 17
 -15522572.92908 -12095507.63008  21434574.28708  21434575.36008
 -15988459.31108 -12458519.61008  22120628.49408  22120630.24708
  -4064098.03008  -3166830.36008  23549318.20708  23549318.22208
  -1028163.56107   -801155.65008  24475002.68507  24475002.46208
  -8968001.62508  -6988049.56908  20189352.97908  20189353.26908
 -19978072.20008 -15567325.62408  20071753.32008  20071753.89708
 -20950533.93908 -16325090.34108  20661076.64808  20661076.63808
 -23650088.12308 -18428616.82808  20530682.21208  20530682.89508
 93 04 09 09 24 00.0000000  0  8 01 03 31 26 23 21 28 17
 -15932456.78308 -12414897.55008  21356575.91808  21356576.93608
 -15562276.95808 -12126429.54108  22201728.36608  22201730.07908
  -4448398.86608  -3466285.58308  23476188.23408  23476188.19908
   -649936.98007   -506433.57407  24546976.61307  24546976.46107
  -8857179.22008  -6901694.45208  20210441.81508  20210442.08708
 -20105382.01408 -15666528.05408  20047527.02808  20047527.61208
 -21147854.06608 -16478846.29308  20623527.82708  20623527.80408
 -23492035.46808 -18305458.95608  20560758.71708  20560759.35908
 93 04 09 09 26 00.0000000  0  8 01 03 31 26 23 21 28 17
 -16337927.48108 -12730848.65008  21279417.31408  21279418.36108
 -15131230.32808 -11790549.12608  22283753.83408  22283755.62608
  -4827989.49108  -3762070.54208  23403954.53808  23403954.62708
   -270362.75007   -210661.42408  24619207.26207  24619207.08208
  -8743886.11308  -6813414.10908  20232000.72608  20232001.04708
 -20228826.15508 -15762718.29208  20024036.41408  20024036.95008
 -21336190.14208 -16625601.69408  20587688.62208  20587688.56808
 -23329451.05008 -18178769.85808  20591697.50608  20591698.16308
 93 04 09 09 28 00.0000000  0  8 01 03 31 26 23 21 28 17
 -16738410.87208 -13042913.54908  21203207.82008  21203208.80708
 -14695542.33708 -11451052.08108  22366662.49308  22366664.42508
  -5202744.77208  -4054087.69608  23332641.02508  23332641.02708
    110228.57407     85903.30707  24691631.35707  24691631.15807
  -8628594.78508  -6723576.70908  20253939.95608  20253940.28108
 -20348732.02608 -15856151.41008  20001219.06608  20001219.63408
 -21515292.08708 -16765161.66908  20553606.72108  20553606.70408
 -23162261.88408 -18048492.63508  20623512.55808  20623513.28208
 93 04 09 09 30 00.0000000  0  8 01 03 31 26 23 21 28 17
 -17134115.01408 -13351254.36508  21127907.77508  21127908.73308
 -14255383.25508 -11108071.05408  22450422.06308  22450423.89808
  -5572486.97408  -4342198.54908  23262281.40408  23262281.54708
    491729.40907    383176.71007  24764228.34407  24764228.27807
  -8511000.90708  -6631945.11308  20276317.36308  20276317.60308
 -20465152.57908 -15946868.70008  19979064.95308  19979065.52608
 -21685133.53408 -16897505.67308  20521287.04108  20521286.97308
 -22990122.07108 -17914357.78908  20656269.72808  20656270.44008
 93 04 09 09 32 00.0000000  0  8 01 03 31 26 23 21 28 17
 -17524823.77008 -13655702.67508  21053558.31908  21053559.28408
 -13810919.89208 -10761736.04208  22535000.73908  22535002.55608
  -5937035.30508  -4626262.22808  23192910.14308  23192910.30008
    874052.33807    681090.76907  24836981.97207  24836981.90307
  -8391180.60808  -6538578.65908  20299118.38108  20299118.69508
 -20578136.36308 -16034908.00008  19957564.87008  19957565.45808
 -21845467.98108 -17022441.62608  20490776.45608  20490776.43308
 -22813316.15908 -17776587.00008  20689914.82108  20689915.50208
 93 04 09 09 34 00.0000000  0  7 03 31 01 23 21 28 17
 -13362351.82708 -10412202.56908  22620360.41408  22620362.28408
  -6296241.50808  -4906163.19608  23124555.51608  23124555.63308
 -17910110.74208 -13955926.22408  20980240.54508  20980241.53508
  -8269176.68008  -6443510.67208  20322334.99008  20322335.30908
 -20687560.96808 -16120173.91208  19936742.06208  19936742.62608
 -21996339.89808 -17140004.18208  20462066.42808  20462066.37408
 -22631914.88708 -17635235.40608  20724434.37808  20724435.05608
 93 04 09 09 36 00.0000000  0  7 03 31 01 23 21 28 17
 -12909857.49808 -10059609.65508  22706467.30008  22706469.12608
  -6649935.51808  -5181768.94608  23057249.80808  23057249.96708
 -18290177.81908 -14252082.32508  20907916.15108  20907917.09508
  -8144959.30308  -6346717.92208  20345972.78808  20345973.10008
 -20793598.78208 -16202800.75408  19916563.67908  19916564.26008
 -22137628.39208 -17250099.13308  20435180.14108  20435180.08108
 -22445672.65808 -17490111.64408  20759875.09908  20759875.84408
 93 04 09 09 38 00.0000000  0  7 03 31 01 23 21 28 17
 -12453655.99208  -9704128.01808  22793279.59508  22793281.46708
  -6997990.79808  -5452980.86708  22991017.13608  22991017.29508
 -18664659.41108 -14543886.10408  20836654.64208  20836655.54808
  -8018996.68808  -6248565.24308  20369942.70908  20369943.02208
 -20896002.08608 -16282595.51408  19897076.99208  19897077.54108
 -22269493.42508 -17352851.12408  20410087.03708  20410087.04208
 -22254877.32908 -17341440.01508  20796182.29408  20796183.04008
 93 04 09 09 40 00.0000000  0  8 11 03 31 01 23 21 28 17
        -0.88418        -0.09618  23534650.82918  23534652.34118
 -11994009.35008  -9345961.84708  22880747.56108  22880749.43508
  -7340321.70608  -5719732.25208  22925873.78708  22925873.94808
 -19033387.01808 -14831206.26708  20766488.09608  20766488.95808
  -7891077.62608  -6148888.06408  20394284.96408  20394285.24908
 -20995436.28308 -16360076.68908  19878155.25908  19878155.80308
 -22391800.79508 -17448155.58508  20386812.77408  20386812.75308
 -22059511.56108 -17189207.00008  20833359.20008  20833359.92308
 93 04 09 09 42 00.0000000  0  8 11 03 31 01 23 21 28 17
   -473599.43608   -369037.94508  23444528.03408  23444529.48808
 -11531074.03408  -8985233.09608  22968841.24908  22968843.15108
  -7676739.08608  -5981875.70108  22861855.68608  22861855.84108
 -19396415.89708 -15114085.86708  20697405.93208  20697406.80308
  -7761409.49908  -6047847.98008  20418959.87608  20418960.17008
 -21091566.05908 -16434983.00308  19859862.41208  19859862.94308
 -22504131.61508 -17535686.11508  20365436.97108  20365436.92808
 -21859263.39108 -17033169.51408  20871465.23908  20871465.99808
 93 04 09 09 44 00.0000000  0  8 11 03 31 01 23 21 28 17
   -945255.03208   -736561.79108  23354774.95208  23354776.45308
 -11065012.88708  -8622068.63008  23057529.72008  23057531.68908
  -8007062.07508  -6239270.26008  22798997.34308  22798997.53908
 -19753587.33508 -15392401.22708  20629438.48008  20629439.33108
  -7629812.93708  -5945305.22208  20444001.93608  20444002.20908
 -21184170.20008 -16507142.04608  19842240.36608  19842240.92208
 -22607078.88608 -17615904.78608  20345846.78108  20345846.72708
 -21654589.14008 -16873683.15008  20910413.45908  20910414.29008
 93 04 09 09 46 00.0000000  0  8 11 03 31 01 23 21 28 17
  -1414768.08308  -1102416.12708  23265429.63108  23265431.13908
 -10596018.23408  -8256618.33608  23146776.49308  23146778.50608
  -8331142.56608  -6491800.51608  22737326.88308  22737327.05008
 -20104786.62308 -15666062.96208  20562607.46208  20562608.26808
  -7496314.89508  -5841280.79908  20469405.79108  20469406.06908
 -21273488.96208 -16576741.07308  19825243.60008  19825244.16308
 -22700444.00608 -17688656.85608  20328079.99608  20328079.94908
 -21444961.83908 -16710337.25808  20950304.21108  20950305.02008
 93 04 09 09 48 00.0000000  0  8 17 11 03 31 01 23 21 28
 -21230778.96808 -16543441.54308  20991061.95908  20991062.69008
  -1881944.98608  -1466450.09008  23176528.81708  23176530.27808
 -10124291.00408  -7889038.74908  23236543.25208  23236545.23808
  -8648839.02108  -6739356.18908  22676871.24608  22676871.35008
 -20449813.48308 -15934915.00608  20496950.95408  20496951.79008
  -7361311.43808  -5736083.32708  20495096.10408  20495096.40108
 -21359838.60308 -16644026.50308  19808811.75908  19808812.33708
 -22783876.42208 -17753669.16208  20312203.21108  20312203.22208
 93 04 09 09 50 00.0000000  0  8 17 11 03 31 01 23 21 28
 -21011829.91208 -16372831.96108  21032726.64808  21032727.39108
  -2346584.95508  -1828507.20208  23088110.79908  23088112.24308
  -9650026.71708  -7519482.24008  23326792.74208  23326794.88308
  -8960012.04008  -6981828.67908  22617657.00708  22617657.07108
 -20788688.92008 -16198973.72808  20432464.99808  20432465.84208
  -7224878.31608  -5629771.82108  20521058.49608  20521058.82408
 -21442701.57008 -16708595.05308  19793043.50508  19793044.05108
 -22857300.59408 -17810882.83908  20298231.20708  20298231.18508
 93 04 09 09 52 00.0000000  0  8 17 11 03 31 01 23 21 28
 -20788223.76008 -16198593.46708  21075277.55108  21075278.34508
  -2808487.28408  -2188431.08608  23000213.63808  23000215.03808
  -9173424.30408  -7148103.79608  23417487.12908  23417489.28808
  -9264524.43708  -7219111.09208  22559710.19408  22559710.31008
 -21121100.33308 -16457995.55708  20369209.16208  20369210.00808
  -7086549.63708  -5521983.25608  20547381.50008  20547381.82608
 -21522304.32708 -16770623.17708  19777895.57508  19777896.15008
 -22920934.01008 -17860467.36208  20286122.27008  20286122.22208
 93 04 09 09 54 00.0000000  0  8 17 11 03 31 01 23 21 28
 -20560125.71208 -16020854.79908  21118683.16808  21118683.99508
  -3267459.99608  -2546072.12008  22912873.96308  22912875.44908
  -8694691.47608  -6775065.34208  23508587.05608  23508589.21708
  -9562255.73808  -7451109.52008  22503053.87208  22503053.97208
 -21446792.34308 -16711781.48308  20307232.01308  20307232.84608
  -6946661.76408  -5412979.72908  20574001.36408  20574001.67508
 -21599013.34108 -16830396.43708  19763298.36008  19763298.87608
 -22974795.32508 -17902437.26108  20275872.93708  20275872.88808
 93 04 09 09 56 00.0000000  0  8 17 11 03 31 01 23 21 28
 -20327445.98008 -15839545.99108  21162960.66308  21162961.55108
  -3723312.03908  -2901281.45208  22826128.21808  22826129.62208
  -8214040.46208  -6400532.15608  23600052.10008  23600054.24808
  -9853086.47408  -7677730.86608  22447710.61308  22447710.77708
 -21766010.29708 -16960522.68808  20246486.80308  20246487.62808
  -6805084.55108  -5302659.84508  20600942.59008  20600942.93308
 -21672699.29808 -16887814.05908  19749276.35108  19749276.88008
 -23018919.10908 -17936819.46908  20267476.40108  20267476.44008
 93 04 09 09 58 00.0000000  0  8 17 11 03 31 01 23 21 28
 -20089848.59208 -15654405.23808  21208173.97608  21208174.89408
  -4175830.25808  -3253893.02408  22740016.90208  22740018.27108
  -7731661.12908  -6024652.25707  23691845.97108  23691847.90107
 -10136882.98608  -7898870.99608  22393705.88908  22393706.01808
 -22078585.13508 -17204087.44008  20187005.75408  20187006.53008
  -6662286.45208  -5191388.60708  20628116.16608  20628116.51208
 -21743166.46708 -16942723.53608  19735866.84408  19735867.42008
 -23053223.92308 -17963550.53408  20260948.35908  20260948.36608
 93 04 09 10 00 00.0000000  0  8 17 11 03 31 01 23 21 28
 -19847615.86008 -15465652.54408  21254269.45908  21254270.33008
  -4624784.02908  -3603727.12708  22654583.84108  22654585.19808
  -7247728.15608  -5647561.71408  23783935.38808  23783937.55208
 -10413498.61508  -8114415.64008  22341067.65408  22341067.79908
 -22384530.66908 -17442486.50408  20128786.21708  20128787.01008
  -6518383.41408  -5079256.38908  20655500.00708  20655500.33508
 -21810404.90108 -16995117.10108  19723071.81508  19723072.36808
 -23077584.25008 -17982532.65308  20256312.81008  20256312.91508
 93 04 09 10 02 00.0000000  0  8 17 11 31 03 01 23 21 28
 -19601330.65408 -15273742.06608  21301136.05808  21301136.90808
  -5069938.54808  -3950600.79708  22569873.76808  22569875.13708
 -10682787.46408  -8324251.13408  22289823.70308  22289823.86508
  -6762411.27308  -5269392.75007  23876288.29908  23876290.06807
 -22683408.67208 -17675378.40608  20071911.57508  20071912.35708
  -6372579.23108  -4965642.74808  20683245.68108  20683245.98308
 -21874755.16308 -17045260.15408  19710826.35408  19710826.89708
 -23092451.55508 -17994117.60408  20253483.66108  20253483.71308
 93 04 09 10 04 00.0000000  0  8 17 11 31 03 01 23 21 28
 -19350429.40208 -15078234.66908  21348880.97408  21348881.90408
  -5511097.28008  -4294360.85208  22485924.02908  22485925.45308
 -10944646.32908  -8528297.03408  22239993.63008  22239993.75808
  -6275920.13608  -4890308.89108  23968864.54508  23968866.67308
 -22975322.24308 -17902843.47408  20016362.24608  20016363.00208
  -6225345.56808  -4850915.22008  20711263.29208  20711263.64008
 -21936137.06008 -17093090.19508  19699145.79108  19699146.31708
 -23097615.52808 -17998141.53308  20252501.15208  20252501.16508
 93 04 09 10 06 00.0000000  0  8 17 11 31 03 01 23 21 28
 -19094640.80108 -14878918.95308  21397555.97308  21397556.99108
  -5948055.67508  -4634847.91308  22402773.66908  22402775.01908
 -11198970.41208  -8726471.66208  22191597.38308  22191597.53408
  -5788455.83708  -4510466.57007  24061625.91308  24061627.84507
 -23260092.72709 -18124742.49808  19962172.19709  19962172.92208
  -6077004.91708  -4735325.10108  20739491.53408  20739491.95508
 -21994415.70508 -17138502.10608  19688055.71608  19688056.24408
 -23092776.49008 -17994370.89708  20253421.80408  20253421.86108
 93 04 09 10 08 00.0000000  0  8 11 17 31 03 01 23 21 28
  -6380633.56808  -4971921.58508  22320456.81508  22320458.12008
 -18834517.45408 -14676225.52108  21447055.87708  21447056.93608
 -11445682.74908  -8918715.04108  22144649.54908  22144649.81408
  -5300244.53607  -4130042.24007  24154529.50007  24154531.53607
 -23537596.41809 -18340979.09008  19909364.89409  19909365.63708
  -5927313.92808  -4618682.75808  20767976.73608  20767977.11408
 -22049865.80308 -17181709.97108  19677503.91508  19677504.40708
 -23078460.57208 -17983215.67808  20256146.11708  20256146.20608
 93 04 09 10 10 00.0000000  0  8 11 17 31 03 01 23 21 28
  -6808592.49608  -5305396.05608  22239018.89208  22239020.23608
 -18570000.68408 -14470108.63208  21497391.80408  21497392.82108
 -11684653.54908  -9104926.05608  22099175.02808  22099175.16608
  -4811453.06708  -3749165.70607  24247543.36108  24247545.32607
 -23807870.54409 -18551582.25008  19857933.39409  19857934.09908
  -5776345.28808  -4501044.84908  20796705.16908  20796705.49908
 -22102366.79508 -17222619.83708  19667513.31508  19667513.83608
 -23054454.24808 -17964509.50208  20260714.34208  20260714.41708
 93 04 09 10 12 00.0000000  0  8 11 17 31 03 01 23 21 28
  -7231695.00508  -5635086.30508  22158505.15808  22158506.48108
 -18301063.33708 -14260547.14108  21548568.95408  21548569.95308
 -11915758.57908  -9285007.88708  22055197.20408  22055197.36208
  -4322248.43207  -3367967.42707  24340635.86907  24340638.08007
 -24070760.58509 -18756431.57508  19807907.03809  19807907.73908
  -5623823.12908  -4382196.42208  20825729.17108  20825729.51408
 -22151782.41108 -17261125.52008  19658109.84208  19658110.37108
 -23020871.18108 -17938340.92408  20267105.17508  20267105.31108
 93 04 09 10 14 00.0000000  0  7 11 17 31 01 23 21 28
  -7649744.10708  -5960838.82908  22078953.06308  22078954.36708
 -18027833.64908 -14047640.96608  21600562.90908  21600563.93808
 -12138920.71008  -9458900.46808  22012730.81708  22012731.02508
 -24326205.59009 -18955479.57808  19759297.47209  19759298.17908
  -5470488.68908  -4262715.04608  20854907.73708  20854908.07308
 -22198269.23608 -17297349.02408  19649263.66508  19649264.20308
 -22977857.48708 -17904823.81208  20275290.36808  20275290.47108
 93 04 09 10 16 00.0000000  0  7 11 17 31 01 23 21 28
  -8062539.12408  -6282497.26108  22000400.76708  22000402.05808
 -17750205.78908 -13831307.65508  21653393.78608  21653394.83808
 -12354061.88708  -9626542.96208  21971790.86708  21971790.97708
 -24574314.84409 -19148811.41008  19712083.82009  19712084.47408
  -5315850.45408  -4142217.75008  20884334.48108  20884334.82708
 -22241877.36108 -17331329.38408  19640965.28308  19640965.78608
 -22925376.07008 -17863929.24708  20285277.32708  20285277.45908
 93 04 09 10 18 00.0000000  0  8 11 12 17 31 01 23 21 28
  -8469860.03808  -6599890.14408  21922890.11308  21922891.43708
        -0.62918        -0.01418  22947431.59218  22947433.77818
 -17468089.23908 -13611476.67008  21707078.86708  21707079.92508
 -12561090.07208  -9787863.66008  21932394.67808  21932394.86408
 -24814956.09909 -19336324.02108  19666291.28909  19666291.94508
  -5159906.75708  -4020703.21308  20914009.54308  20914009.93208
 -22282819.07208 -17363232.01208  19633174.38908  19633174.86708
 -22863610.98308 -17815800.64408  20297030.87208  20297031.06808
 93 04 09 10 20 00.0000000  0  8 11 12 17 31 01 23 21 28
  -8871496.36808  -6912853.48608  21846461.22208  21846462.55308
   -195564.68708   -152387.50508  22910216.80108  22910219.07008
 -17181949.07408 -13388510.39308  21761529.61408  21761530.69408
 -12759928.14008  -9942802.45208  21894557.08108  21894557.26308
 -25047672.47309 -19517661.40908  19622006.76909  19622007.43008
  -5002768.92008  -3898258.18108  20943911.92108  20943912.37508
 -22320736.13508 -17392777.77208  19625959.02308  19625959.51708
 -22792562.15708 -17760437.96408  20310550.92708  20310551.15108
 93 04 09 10 22 00.0000000  0  8 23 11 12 17 31 01 21 28
  -4844505.98908  -3774936.45408  20974028.40208  20974028.80108
  -9267232.44208  -7221219.24308  21771155.16008  21771156.44908
   -383201.13208   -298597.60408  22874510.71408  22874512.75808
 -16891674.40708 -13162322.42708  21816767.11408  21816768.20108
 -12950497.46408 -10091298.06908  21858292.97608  21858293.12708
 -25272794.57309 -19693081.17908  19579167.42909  19579168.07108
 -22355746.14708 -17420058.29508  19619296.81408  19619297.29408
 -22712495.55508 -17698048.44208  20325787.22108  20325787.41508
 93 04 09 10 24 00.0000000  0  8 23 11 12 17 31 01 21 28
  -4685174.56408  -3650782.12408  21004348.10008  21004348.52908
  -9656841.34908  -7524810.59408  21697015.02808  21697016.37308
   -562727.45508   -438488.18608  22840348.04608  22840350.03208
 -16597134.32608 -12932810.75708  21872816.29908  21872817.47008
 -13132713.00408 -10233284.23308  21823618.54808  21823618.63008
 -25490165.69209 -19862461.22509  19537803.05109  19537803.68609
 -22388192.76608 -17445341.37108  19613122.44208  19613122.90308
 -22623430.49708 -17628647.13508  20342735.73108  20342735.88708
 93 04 09 10 26 00.0000000  0  8 23 11 12 17 31 01 21 28
  -4524781.34208  -3525800.43108  21034869.98408  21034870.38408
 -10040116.38808  -7823466.44908  21624080.19608  21624081.54808
   -733986.67208   -571936.83708  22807758.37608  22807760.40408
 -16298487.37608 -12700098.92708  21929646.90308  21929648.13808
 -13306514.73008 -10368714.15808  21790545.17408  21790545.29808
 -25699824.51909 -20025831.68809  19497906.27309  19497906.88209
 -22417741.59708 -17468366.44008  19607499.53208  19607500.01308
 -22525261.50308 -17552151.85308  20361416.67808  20361416.88308
 93 04 09 10 28 00.0000000  0  8 23 11 12 17 31 01 21 28
  -4363044.26008  -3399771.55808  21065647.58308  21065647.92808
 -10416866.99408  -8117038.31508  21552386.88408  21552388.24208
   -896841.73408   -698836.78508  22776768.00708  22776769.95108
 -15995900.70808 -12464317.18908  21987227.30408  21987228.54108
 -13471862.06408 -10497556.23708  21759080.69308  21759080.82408
 -25901819.97009 -20183230.69009  19459467.76309  19459468.35909
 -22444420.24208 -17489154.98708  19602422.71808  19602423.22608
 -22418363.15108 -17468854.47008  20381758.87508  20381759.03708
 93 04 09 10 30 00.0000000  0  8 23 11 12 17 31 01 21 28
  -4200113.60908  -3272812.62108  21096652.23808  21096652.62408
 -10786870.75208  -8405352.89108  21481977.55008  21481978.77008
  -1051128.06408   -819059.84308  22747408.28508  22747410.01008
 -15689290.01308 -12225399.84808  22045573.49008  22045574.61108
 -13628688.94108 -10619759.00408  21729237.48108  21729237.67908
 -26095891.57409 -20334455.27209  19422537.14209  19422537.75209
 -22468208.25108 -17507691.08208  19597895.98808  19597896.49808
 -22302681.38608 -17378712.86808  20403772.45508  20403772.65008
 93 04 09 10 32 00.0000000  0  8 23 11 12 17 31 01 21 28
  -4036234.76708  -3145114.85708  21127837.37508  21127837.86508
 -11149910.15908  -8688240.70708  21412893.44508  21412894.63108
  -1196691.28608   -932485.64408  22719708.29808  22719710.39008
 -15378815.37208 -11983471.64508  22104654.83108  22104656.04308
 -13776935.28108 -10735275.63708  21701027.09208  21701027.33308
 -26281987.14409 -20479464.76609  19387124.28109  19387124.86809
 -22489315.80808 -17524138.51808  19593879.34208  19593879.87408
 -22178467.74208 -17281923.05508  20427409.45808  20427409.65508
 93 04 09 10 34 00.0000000  0  8 23 11 12 17 31 01 21 28
  -3871251.55208  -3016556.54108  21159232.68308  21159233.16508
 -11505789.54908  -8965549.27808  21345171.80008  21345173.08608
  -1333402.08708  -1039013.47608  22693693.23308  22693695.18708
 -15064556.36908 -11738594.59908  22164456.37808  22164457.63108
 -13916569.27408 -10844081.34908  21674455.67008  21674455.82808
 -26460274.84709 -20618390.20309  19353197.25109  19353197.82709
 -22507686.33308 -17538453.20208  19590383.54408  19590383.98608
 -22045617.29608 -17178403.27108  20452690.09308  20452690.27708
 93 04 09 10 36 00.0000000  0  8 23 11 12 17 01 21 28 31
  -3705234.95108  -2887192.97908  21190824.58208  21190825.03508
 -11854286.73008  -9237105.48108  21278854.92508  21278856.19708
  -1461109.31808  -1138525.55308  22669391.21608  22669393.33408
 -14746358.59408 -11490648.35608  22225007.49308  22225008.75608
 -26630645.32109 -20751146.37409  19320776.80309  19320777.34309
 -22523187.29008 -17550531.86908  19587433.76308  19587434.24408
 -21904468.06208 -17068416.90108  20479550.06108  20479550.27308
 -14047534.52208 -10946132.19708  21649533.82108  21649533.98608
 93 04 09 10 38 00.0000000  0  8 23 11 12 17 01 21 28 31
  -3538177.90408  -2757018.68108  21222614.45108  21222614.95108
 -12195218.45208  -9502766.53608  21213977.74608  21213978.98208
  -1579704.96608  -1230937.65208  22646823.29308  22646825.16408
 -14424331.17108 -11239717.96708  22286287.42408  22286288.58608
 -26793079.45709 -20877718.38109  19289866.57709  19289867.13709
 -22535757.69608 -17560326.99008  19585041.70408  19585042.22508
 -21755264.13008 -16952154.12008  20507942.52508  20507942.72308
 -14169816.75008 -11041417.07108  21626264.26308  21626264.42708
 93 04 09 10 40 00.0000000  0  8 23 11 12 17 01 21 28 31
  -3369819.84008  -2625830.60808  21254651.95908  21254652.48908
 -12528400.98308  -9762389.27108  21150575.25108  21150576.46808
  -1689084.36308  -1316168.26608  22626008.96308  22626010.84508
 -14098658.74808 -10985947.32208  22348260.80408  22348262.08908
 -26947568.22909 -20998099.20109  19260468.30609  19260468.87009
 -22545745.08108 -17568109.35408  19583141.17108  19583141.65208
 -21598034.39408 -16829637.46608  20537862.20408  20537862.41708
 -14283405.58208 -11129927.87408  21604649.09508  21604649.22908
 93 04 09 10 42 00.0000000  0  8 23 11 12 17 01 21 28 31
  -3200458.64208  -2493860.87408  21286880.39608  21286880.83108
 -12853636.82308 -10015819.77808  21088684.90008  21088686.14108
  -1789133.53108  -1394128.56008  22606970.38008  22606972.10408
 -13769297.90208 -10729302.56708  22410936.05908  22410937.38008
 -27094339.34709 -21112466.26709  19232538.65709  19232539.17809
 -22552787.82608 -17573597.20708  19581801.02108  19581801.48808
 -21432842.90108 -16700916.83208  20569297.18908  20569297.42808
 -14388281.07108 -11211649.05408  21584691.94508  21584692.14608
 93 04 09 10 44 00.0000000  0  8 23 11 12 17 31 01 21 28
  -3030074.64908  -2361094.15808  21319303.39008  21319303.84608
 -13170726.24608 -10262902.42908  21028344.79208  21028345.96608
  -1879739.42908  -1464730.45308  22589728.37408  22589730.34308
 -13436524.30508 -10469998.52608  22474260.86608  22474262.25308
 -14484419.78008 -11286562.34708  21566397.38208  21566397.58008
 -27233036.27509 -21220541.75109  19206145.50509  19206146.00909
 -22557153.76508 -17576999.23608  19580970.19508  19580970.67208
 -21259868.59708 -16566131.69308  20602213.32808  20602213.54108
 93 04 09 10 46 00.0000000  0  8 23 12 17 31 01 21 11 28
  -2858367.06108  -2227296.06608  21351978.32508  21351978.79408
  -1960803.80008  -1527897.40108  22574302.16108  22574304.08708
 -13100577.05008 -10208221.50508  22538189.59508  22538190.98808
 -14571815.69508 -11354663.07308  21549766.50708  21549766.66908
 -27363617.70909 -21322293.47809  19181296.65809  19181297.11609
 -22558783.34908 -17578269.03708  19580660.05608  19580660.54208
 -13479479.83208 -10503489.63908  20969590.89008  20969592.09308
 -21079434.67108 -16425533.86808  20636548.72908  20636548.99308
 93 04 09 10 48 00.0000000  0  8 23 12 17 31 01 21 11 28
  -2685675.88508  -2092731.55808  21384840.35008  21384840.88308
  -2032252.29908  -1583571.46908  22560705.94108  22560707.77208
 -12761046.00708  -9943651.92608  22602800.24508  22602801.68708
 -14650482.70008 -11415962.06108  21534796.74608  21534796.90008
 -27486379.52609 -21417951.99409  19157935.79909  19157936.24309
 -22557454.50308 -17577233.56808  19580912.96008  19580913.41308
 -13779729.40408 -10737450.35208  20912455.33708  20912456.54108
 -20891543.18808 -16279124.96408  20672303.25708  20672303.45908
 93 04 09 10 50 00.0000000  0  8 23 12 17 31 01 21 11 28
  -2511928.43308  -1957343.95308  21417903.47308  21417903.96708
  -2093983.39308  -1631673.57108  22548958.89108  22548960.64608
 -12418234.11708  -9676525.84808  22668035.18808  22668036.71608
 -14720408.05208 -11470449.36508  21521490.37608  21521490.57308
 -27601397.75809 -21507576.54309  19136048.48409  19136048.97809
 -22553068.81908 -17573816.14308  19581747.47908  19581747.93108
 -14071275.33708 -10964628.99308  20856975.96308  20856977.19908
 -20696326.34408 -16127007.97808  20709451.85808  20709452.03608
 93 04 09 10 52 00.0000000  0  8 23 12 17 31 01 21 11 28
  -2336855.27108  -1820923.32808  21451218.76908  21451219.18108
  -2145965.43408  -1672179.00108  22539066.90208  22539068.87808
 -12072307.86608  -9406972.98808  22733862.83508  22733864.32708
 -14781647.71208 -11518168.59608  21509836.83208  21509837.06408
 -27708459.94109 -21591001.57309  19115675.20709  19115675.69409
 -22546278.42108 -17568524.91308  19583039.66408  19583040.12208
 -14353985.47908 -11184922.58708  20803177.99308  20803179.22508
 -20494404.51308 -15969666.32808  20747876.27708  20747876.50408
 93 04 09 10 54 00.0000000  0  8 23 12 17 31 01 21 11 28
  -2160718.95808  -1683674.28108  21484736.47708  21484736.86008
  -2188124.39508  -1705030.09908  22531044.40308  22531046.18408
 -11723155.33108  -9134906.14908  22800304.46208  22800305.91208
 -14834212.12308 -11559127.89508  21499834.17708  21499834.32608
 -27807738.92409 -21668361.77009  19096783.01009  19096783.45709
 -22536784.66108 -17561127.16908  19584846.24108  19584846.70908
 -14627682.35008 -11398192.86608  20751095.19508  20751096.44208
 -20285626.96208 -15806982.56508  20787605.39008  20787605.66708
 93 04 09 10 56 00.0000000  0  8 23 12 17 31 01 21 11 28
  -1983571.64008  -1545637.43108  21518446.48208  21518446.84908
  -2220381.62208  -1730165.54708  22524905.83308  22524907.67708
 -11370990.17508  -8860491.81308  22867319.27808  22867320.78608
 -14878106.44708 -11593331.28508  21491481.35608  21491481.60908
 -27899144.54209 -21739586.88809  19079389.09709  19079389.51309
 -22524167.96008 -17551295.96508  19587247.17508  19587247.64608
 -14892180.04108 -11604294.95408  20700762.91308  20700764.17408
 -20069630.76108 -15638673.87308  20828708.18408  20828708.42908
 93 04 09 10 58 00.0000000  0  8 23 12 17 31 01 21 11 28
  -1805057.11808  -1406535.21908  21552416.69808  21552417.06908
  -2242703.93308  -1747559.50808  22520658.03308  22520659.78208
 -11015946.25208  -8583834.26208  22934882.01308  22934883.42608
 -14913379.00408 -11620816.43108  21484769.27108  21484769.49008
 -27982659.30509 -21804663.28209  19063496.73709  19063497.15909
 -22508828.39008 -17539343.04908  19590166.20008  19590166.63208
 -15147336.26408 -11803117.97508  20652208.32208  20652209.52008
 -19847441.69008 -15465539.57008  20870989.29208  20870989.53008
 93 04 09 11 00 00.0000000  0  8 23 12 17 31 01 21 11 28
  -1625548.78708  -1266658.62808  21586575.95908  21586576.44908
  -2255072.22008  -1757197.10608  22518304.37008  22518306.15608
 -10657927.54108  -8304858.69808  23003010.74608  23003012.10208
 -14940092.11908 -11641631.88408  21479685.92108  21479686.07308
 -28058490.25609 -21863752.29109  19049066.53809  19049066.92709
 -22490606.17408 -17525143.91808  19593633.74308  19593634.19908
 -15393020.52608 -11994560.25008  20605456.16408  20605457.35008
 -19619023.26108 -15287551.23508  20914455.93908  20914456.26408
 93 04 09 11 02 00.0000000  0  8 23 12 17 31 01 21 11 28
  -1444689.75108  -1125729.54308  21620992.33108  21620992.85208
  -2257451.33708  -1759050.92308  22517851.62808  22517853.51608
 -10297240.04308  -8023803.55908  23071647.20808  23071648.67308
 -14958287.93908 -11655810.47608  21476223.41208  21476223.61708
 -28126939.43309 -21917089.26209  19036041.06209  19036041.46309
 -22469728.19208 -17508875.35608  19597606.68608  19597607.14508
 -15629083.29108 -12178505.26808  20560534.91408  20560536.10508
 -19384509.66908 -15104813.40308  20959082.37608  20959082.66608
 93 04 09 11 04 00.0000000  0  8 23 12 28 01 21 11 17 31
  -1262877.68908   -984057.83408  21655590.01808  21655590.55208
  -2249811.56808  -1753097.81808  22519305.29908  22519307.28608
 -19144010.07708 -14917411.14608  21004848.08308  21004848.31208
 -28187642.45609 -21964390.27909  19024489.62809  19024490.00909
 -22445925.77108 -17490328.00708  19602136.09908  19602136.56308
 -15855379.20208 -12354839.73208  20517472.21108  20517473.44508
  -9933837.05408  -7740632.43108  23140800.61908  23140801.96008
 -14968013.79208 -11663389.09008  21474372.69908  21474372.85808
 93 04 09 11 06 00.0000000  0  8 23 12 28 01 21 11 17 31
  -1079850.23508   -841439.07108  21690419.08308  21690419.61008
  -2232127.50208  -1739317.96908  22522670.45108  22522672.35908
 -18897705.07908 -14725485.19008  21051718.27708  21051718.51408
 -28240828.64509 -22005834.02409  19014368.63709  19014368.96509
 -22419172.26908 -17469481.12008  19607227.09508  19607227.56408
 -16071765.40408 -12523452.35208  20476295.28708  20476296.51608
  -9567859.32108  -7455455.02708  23210443.86508  23210445.30808
 -14969318.80308 -11664406.01508  21474124.36608  21474124.54908
 93 04 09 11 08 00.0000000  0  8 23 12 28 01 21 11 17 31
   -895606.39308   -697872.47608  21725479.53108  21725479.97608
  -2204416.12008  -1717724.65508  22527943.95808  22527945.54408
 -18645939.95608 -14529304.59608  21099627.60608  21099627.92708
 -28286485.74009 -22041410.94909  19005680.31909  19005680.65409
 -22389492.91608 -17446354.35708  19612874.95708  19612875.41008
 -16278139.56008 -12684263.39008  20437023.59108  20437024.78408
  -9199426.49508  -7168364.54008  23280554.34308  23280555.90708
 -14962291.00808 -11658929.84508  21475461.74108  21475461.92908
 93 04 09 11 10 00.0000000  0  8 23 12 28 01 21 11 17 31
   -710125.17108   -553341.68308  21760775.36908  21760775.80208
  -2166679.50408  -1688319.46608  22535124.81708  22535126.73208
 -18388515.27408 -14328713.94508  21148613.86208  21148614.20108
 -28324448.07509 -22070991.95109  18998456.31309  18998456.65709
 -22357111.21608 -17421121.87508  19619036.99708  19619037.45108
 -16474383.58608 -12837180.81208  20399679.60408  20399680.79908
  -8828688.72908  -6879478.01508  23351103.33008  23351104.87708
 -14947004.86608 -11647018.59408  21478370.59908  21478370.88308
 93 04 09 11 12 00.0000000  0  8 23 12 01 21 11 28 17 31
   -523358.23408   -407809.04708  21796315.98508  21796316.41608
  -2118921.06608  -1651105.07908  22544212.88008  22544214.79808
 -28355345.84009 -22095068.08809  18992576.62809  18992576.96109
 -22321732.87308 -17393554.31708  19625769.23708  19625769.71108
 -16660379.71508 -12982112.85608  20364285.69608  20364286.92508
 -18126148.66208 -14124272.44808  21198540.57408  21198540.92008
  -8455550.27208  -6588720.81708  23422109.29408  23422110.86108
 -14923530.36108 -11628726.78908  21482837.62208  21482837.89008
 93 04 09 11 14 00.0000000  0  8 23 12 01 21 11 28 17 31
   -335421.14708   -261364.59008  21832079.17908  21832079.72508
  -2061134.06708  -1606076.20208  22555209.52308  22555211.24308
 -28378849.59509 -22113382.66209  18988103.97809  18988104.29409
 -22283412.95908 -17363694.58808  19633061.23908  19633061.67908
 -16835999.10408 -13118959.13208  20330866.41008  20330867.65808
 -17859196.62608 -13916257.89508  21249339.89108  21249340.13608
  -8080350.95608  -6296357.77408  23493507.42208  23493508.92308
 -14891926.75408 -11604100.62208  21488851.64208  21488851.82608
 93 04 09 11 16 00.0000000  0  8 23 12 01 21 11 28 17 31
   -146394.16908   -114070.87308  21868049.78508  21868050.41908
  -1993377.87808  -1553279.14008  22568102.89508  22568104.74408
 -28395262.26709 -22126171.72509  18984980.71009  18984981.01909
 -22242055.50308 -17331467.97408  19640931.25008  19640931.66908
 -17001179.11308 -13247670.83108  20299433.72508  20299434.93108
 -17587383.06208 -13704455.12108  21301064.24108  21301064.58208
  -7703091.98408  -6002389.77208  23565297.52008  23565298.99808
 -14852317.69208 -11573236.44508  21496389.00708  21496389.24308
 93 04 09 11 18 00.0000000  0  8 23 12 01 21 11 28 17 31
     44427.98308     34621.68708  21904362.12208  21904362.70008
  -1915678.05208  -1492733.78208  22582888.79808  22582890.78608
 -28404604.44409 -22133451.31109  18983202.95509  18983203.24909
 -22197580.24408 -17296811.89808  19649394.57408  19649395.00808
 -17155822.42408 -13368172.12208  20270006.05708  20270007.28608
 -17311014.31608 -13489102.86908  21353655.49208  21353655.85608
  -7323635.41108  -5706709.35708  23637505.59508  23637507.16508
 -14804790.25608 -11536202.09708  21505433.18208  21505433.45308
 93 04 09 11 20 00.0000000  0  8 23 01 21 11 12 28 17 31
    236458.20608    184255.60808  21940904.36308  21940904.86108
 -28406611.38009 -22135015.13209  18982821.04609  18982821.30709
 -22150601.58208 -17260205.12008  19658334.32508  19658334.70408
 -17299848.64308 -13480400.33608  20242598.75308  20242599.99808
  -1828076.46708  -1424472.77208  22599558.77208  22599560.51508
 -17030555.87508 -13270563.83508  21407025.02508  21407025.36708
  -6942617.22507  -5409812.10508  23710010.98607  23710012.53208
 -14749444.80408 -11493075.78808  21515965.05308  21515965.29208
 93 04 09 11 22 00.0000000  0  8 23 01 21 11 12 28 17 31
    429842.35608    334944.54108  21977704.16808  21977704.67308
 -28402004.02609 -22131424.95109  18983697.76009  18983698.01609
 -22100431.22608 -17221111.31808  19667881.45108  19667881.81008
 -17433186.26308 -13584299.78408  20217225.49508  20217226.72208
  -1730623.84808  -1348535.61708  22618103.37808  22618104.94008
 -16746073.38908 -13048889.16008  21461160.21808  21461160.51308
  -6559805.03707  -5111516.91708  23782857.74907  23782859.33908
 -14686389.60408 -11443941.89108  21527964.01008  21527964.38608
 93 04 09 11 24 00.0000000  0  8 23 12 01 21 11 28 17 31
    624401.69208    486549.20408  22014727.51508  22014728.04708
  -1623376.99208  -1264966.59908  22638511.73008  22638513.36908
 -28390408.43709 -22122389.39209  18985904.30809  18985904.54809
 -22046820.60508 -17179336.79508  19678083.18808  19678083.55208
 -17555770.44108 -13679819.92308  20193898.47308  20193899.77408
 -16457692.40508 -12824176.70508  21516037.30208  21516037.47108
  -6175389.09307  -4811972.07407  23856009.73607  23856011.25407
 -14615734.40508 -11388885.91108  21541409.35608  21541409.59708
 93 04 09 11 26 00.0000000  0  8 23 01 21 11 12 28 17 31
    820177.45308    639101.72208  22051982.41608  22051982.90008
 -28371844.18709 -22107923.70709  18989436.90309  18989437.15209
 -21990342.48508 -17135327.86508  19688830.63808  19688831.00208
 -17667521.67208 -13766898.80608  20172632.90708  20172634.18308
  -1506376.54108  -1173797.34708  22660776.08808  22660777.77608
 -16165504.52908 -12596497.84108  21571638.84208  21571639.04808
  -5789319.18407  -4511138.37708  23929476.50207  23929477.96708
 -14537572.54608 -11327980.59208  21556283.05908  21556283.34708
 93 04 09 11 28 00.0000000  0  7 23 12 28 01 21 11 31
   1017424.60008    792800.75308  22089517.39508  22089517.87708
  -1379698.35308  -1075086.97808  22684882.19208  22684883.70908
 -15870009.73908 -12366242.15908  21627869.63208  21627869.85008
 -28346636.13509 -22088281.04209  18994233.86709  18994234.11309
 -21931018.96408 -17089101.72708  19700119.46908  19700119.84808
 -17768396.09908 -13845502.26508  20153437.14308  20153438.39408
 -14452029.50908 -11261323.70908  21572561.37908  21572561.69408
 93 04 09 11 30 00.0000000  0  7 23 12 01 21 11 28 31
   1216406.42608    947851.49508  22127382.44608  22127382.86008
  -1243425.30808   -968900.12508  22710813.93508  22710815.59708
 -28315161.48109 -22063755.31009  19000223.28209  19000223.50109
 -21868376.15208 -17040289.14408  19712039.95308  19712040.40308
 -17858358.63808 -13915602.95908  20136317.86308  20136319.08308
 -15571268.39408 -12133456.70008  21684718.22608  21684718.52908
 -14359234.44408 -11189015.89208  21590219.73908  21590220.06208
 93 04 09 11 32 00.0000000  0  8 23 12 01 21 11 28 25 31
   1416691.32108   1103917.63708  22165495.43408  22165495.81908
  -1097611.57208   -855279.03108  22738561.34508  22738563.03708
 -28276977.53409 -22034001.56109  19007489.39909  19007489.63609
 -21802556.51108 -16989001.11908  19724565.06308  19724565.48208
 -17937347.11608 -13977152.44008  20121286.88008  20121288.10108
 -15269148.29208 -11898038.44308  21742209.75808  21742210.01608
        -0.08418        -0.47118  21537628.12418  21537628.23918
 -14259285.33008 -11111133.49908  21609239.40708  21609239.73308
 93 04 09 11 34 00.0000000  0  8 23 12 01 21 11 28 25 31
   1618385.43708   1261081.86808  22203876.52208  22203877.00808
   -942378.54808   -734318.20908  22768101.16008  22768102.75108
 -28232078.65109 -21999015.39309  19016033.37609  19016033.59509
 -21733599.89408 -16935268.69908  19737687.06708  19737687.51108
 -18005368.63208 -14030156.22108  20108342.78508  20108344.01908
 -14964407.85408 -11660578.36308  21800199.87608  21800200.16808
   -424829.92808   -331036.62308  21456785.59808  21456785.71608
 -14152346.74608 -11027804.77308  21629589.23708  21629589.49408
 93 04 09 11 36 00.0000000  0  8 23 12 01 21 11 28 25 31
   1821786.61108   1419576.26108  22242582.40008  22242582.88608
   -777818.27308   -606089.42208  22799415.87308  22799417.59108
 -28181127.64109 -21959313.28509  19025728.97909  19025729.21809
 -21661436.38808 -16879037.40608  19751419.32708  19751419.80708
 -18062402.79808 -14074598.43708  20097489.56808  20097490.83408
 -14657273.74308 -11421253.08808  21858645.44508  21858645.81208
   -847156.31108   -660122.03108  21376419.39708  21376419.55808
 -14038550.22508 -10939132.18808  21651243.98108  21651244.33808
 93 04 09 11 38 00.0000000  0  8 23 12 28 01 21 11 25 31
   2026781.72908   1579312.69308  22281591.63308  22281592.22008
   -604019.30908   -470661.71308  22832488.73108  22832490.53208
 -14347702.25408 -11180028.51908  21917554.99908  21917555.31908
 -28124327.76709 -21915053.62409  19036537.62009  19036537.86509
 -21585887.29908 -16820167.98608  19765795.83208  19765796.29308
 -18108428.07908 -14110462.29108  20088731.24308  20088732.52308
  -1267183.86108   -987416.13808  21296490.76608  21296490.92808
 -13918020.47508 -10845212.92408  21674180.01508  21674180.43708
 93 04 09 11 40 00.0000000  0  8 23 12 28 01 21 11 25 31
   2233227.20608   1740179.25308  22320876.93008  22320877.68208
   -421082.69508   -328113.72108  22867300.51008  22867302.26408
 -14036178.32208 -10937282.60508  21976836.03108  21976836.31608
 -28061159.28009 -21865831.40909  19048558.17209  19048558.42809
 -21507072.29008 -16758753.70808  19780793.84708  19780794.32908
 -18143438.57508 -14137743.21408  20082068.97608  20082070.22408
  -1684147.07608  -1312322.45308  21217145.21508  21217145.39108
 -13790894.48108 -10746153.73608  21698371.35608  21698371.76708
 93 04 09 11 42 00.0000000  0  8 23 12 28 25 01 21 11 31
   2440942.46208   1902035.24008  22360403.89708  22360404.61408
   -229152.17908   -178557.47508  22903823.84108  22903825.40108
 -13722206.40108 -10692629.15208  22036582.93408  22036583.27108
  -2098201.82008  -1634962.42808  21138353.18808  21138353.33008
 -27991853.96409 -21811827.24509  19061746.51209  19061746.73609
 -21425176.07308 -16694938.48808  19796378.18808  19796378.65008
 -18167472.94208 -14156471.30408  20077495.41808  20077496.65608
 -13657347.95408 -10642091.53508  21723784.36408  21723784.89108
 93 04 09 11 44 00.0000000  0  8 25 23 12 28 01 21 11 31
  -2509214.59108  -1955232.03808  21060139.99308  21060140.10208
   2650276.05908   2065152.28608  22400238.79208  22400239.50908
    -28355.93408    -22092.86508  22942034.10608  22942035.44808
 -13406307.07908 -10446473.80308  22096696.57708  22096696.78508
 -27916704.21909 -21753268.98009  19076047.06609  19076047.26309
 -21339853.97308 -16628453.76908  19812614.44208  19812614.89808
 -18180558.19808 -14166667.61808  20075005.33808  20075006.60108
 -13517539.68508 -10533150.06808  21750388.98108  21750389.49108
 93 04 09 11 46 00.0000000  0  8 23 12 28 01 21 11 25 31
   2861515.25608   2229754.19408  22440436.43008  22440437.01608
    181196.76108    141194.95108  22981910.64208  22981912.01508
 -13089345.25408 -10199490.57708  22157012.44308  22157012.82408
 -27836137.25409 -21690489.51109  19091378.39509  19091378.59409
 -21251021.76208 -16559233.88708  19829518.66008  19829519.13308
 -18182705.25908 -14168340.66308  20074596.78508  20074598.03708
  -2916549.05608  -2272635.43608  20982626.78508  20982626.87008
 -13371605.38308 -10419435.07508  21778159.43508  21778159.89008
 93 04 09 11 48 00.0000000  0  8 23 12 28 31 01 21 11 25
   3074560.38508   2395763.32008  22480977.53808  22480978.14608
    399372.19708    311201.83508  23023427.90908  23023429.46708
 -12770903.51408  -9951354.14908  22217609.83308  22217610.15608
 -13219706.21308 -10301072.11908  21807064.95408  21807065.37708
 -27749776.14609 -21623195.12909  19107812.37609  19107812.58809
 -21158988.82208 -16487519.91808  19847032.01808  19847032.44208
 -18173953.24808 -14161520.91908  20076262.21808  20076263.49208
  -3320579.40608  -2587464.22108  20905742.30808  20905742.35408
 93 04 09 11 50 00.0000000  0  8 23 12 28 31 01 21 11 25
   3288997.20708   2562856.87908  22521783.57408  22521784.08208
    626024.98608    487814.36308  23066558.60408  23066560.03408
 -12451003.46208  -9702081.37908  22278484.79008  22278485.23108
 -13062010.39008 -10178192.26608  21837073.44808  21837073.80608
 -27657850.88109 -21551565.03909  19125305.10009  19125305.31309
 -21063436.06208 -16413063.23808  19865215.12408  19865215.53508
 -18154355.63008 -14146250.06908  20079991.57608  20079992.87208
  -3720854.61408  -2899366.92008  20829572.41408  20829572.45108
 93 04 09 11 52 00.0000000  0  8 23 12 28 01 21 11 25 31
   3505060.93608   2731218.15208  22562899.24508  22562899.88508
    861034.21208    670938.44608  23111279.36708  23111280.82608
 -12130351.31608  -9452222.57008  22339502.97008  22339503.31308
 -27560682.16109 -21475849.13509  19143795.73109  19143795.93409
 -20964258.69308 -16335782.19708  19884087.98608  19884088.36108
 -18123945.37008 -14122553.79908  20085778.50108  20085779.75408
  -4117001.15908  -3208052.46408  20754188.18508  20754188.23908
 -12898657.83108 -10050904.58208  21868158.48908  21868158.81308
 93 04 09 11 54 00.0000000  0  8 23 12 28 01 21 11 25 31
   3723199.87208   2901196.48308  22604409.78208  22604410.37308
   1104211.10108    860426.94807  23157554.33908  23157555.74807
 -11809001.44808  -9201820.06108  22400653.76708  22400654.07608
 -27458214.37609 -21396004.09009  19163294.68809  19163294.86309
 -20861463.65308 -16255682.17508  19903649.21608  19903649.58108
 -18082827.84108 -14090514.20608  20093602.89508  20093604.22908
  -4509065.67808  -3513557.20808  20679580.73408  20679580.78708
 -12729857.93908  -9919372.20208  21900280.02708  21900280.27508
 93 04 09 11 56 00.0000000  0  8 23 12 28 01 21 11 25 31
   3942844.80308   3072348.29108  22646206.77008  22646207.50808
   1355380.96108   1056143.69608  23205350.44008  23205352.11008
 -11486983.37708  -8950896.90708  22461931.68108  22461932.04508
 -27350518.00709 -21312084.82409  19183788.61709  19183788.80409
 -20755352.53908 -16172998.19208  19923841.43208  19923841.82608
 -18031097.81708 -14050205.11808  20103446.82608  20103448.13708
  -4896769.70808  -3815664.18108  20605803.03708  20605803.04108
 -12555801.75908  -9783744.02008  21933401.77208  21933402.18408
 93 04 09 11 58 00.0000000  0  8 23 12 28 01 21 11 25 31
   4164225.35908   3244852.55808  22688334.30308  22688335.02208
   1614416.21408   1257989.32607  23254643.27908  23254644.76107
 -11164689.61508  -8699758.86808  22523262.16708  22523262.41808
 -27237710.86109 -21224183.13609  19205255.07809  19205255.27009
 -20645830.52608 -16087656.36008  19944682.75408  19944683.18108
 -17968807.19308 -14001666.99508  20115300.36708  20115301.63808
  -5279945.36808  -4114242.55508  20532887.13008  20532887.08308
 -12376632.57908  -9644131.67208  21967496.50108  21967496.93108
 93 04 09 12 00 00.0000000  0  8 23 12 28 01 21 11 25 31
   4387409.73308   3418762.34508  22730804.74208  22730805.63008
   1881170.01408   1465849.39507  23305404.65208  23305406.23207
 -10842430.47708  -8448647.89608  22584585.94308  22584586.41608
 -27120034.02209 -21132486.88309  19227648.19609  19227648.41909
 -20532553.72208 -15999388.72508  19966238.65308  19966239.08608
 -17896031.12608 -13944958.40408  20129149.20908  20129150.49508
  -5658552.76308  -4409261.24408  20460840.48908  20460840.44308
 -12192509.30008  -9500659.00608  22002534.03108  22002534.47008
 93 04 09 12 02 00.0000000  0  8 23 12 28 01 21 11 25 31
   4612360.59808   3594048.64908  22773611.58808  22773612.48908
   2155429.83208   1679558.36607  23357594.76208  23357596.17807
 -10520069.11308  -8197457.18208  22645929.28508  22645929.50708
 -26997708.91009 -21037168.60709  19250925.89709  19250926.12309
 -20415535.48908 -15908205.71408  19988506.47608  19988506.95208
 -17812914.49708 -13880192.22808  20144965.77208  20144967.08808
  -6032572.15308  -4700704.85808  20389666.88308  20389666.84708
 -12003654.71808  -9353499.59908  22038471.94808  22038472.36708
 93 04 09 12 04 00.0000000  0  8 23 12 28 01 21 11 25 31
   4839173.31508   3770785.72308  22816772.93108  22816773.63008
   2437045.67307   1898999.19707  23411184.34307  23411185.96707
 -10198061.20608  -7946541.91408  22707205.31708  22707205.85808
 -26870729.06009 -20938223.26209  19275089.38909  19275089.56909
 -20295133.63308 -15814386.09908  20011418.24608  20011418.67708
 -17719544.49208 -13807436.41508  20162733.49008  20162734.81608
  -6401363.08208  -4988074.35308  20319488.28408  20319488.22308
 -11810229.52208  -9202778.67108  22075279.53308  22075279.91308
 93 04 09 12 06 00.0000000  0  8 23 12 28 01 21 11 25 31
   5067726.04208   3948878.61008  22860265.01208  22860265.71908
   2725812.12207   2124011.92807  23466134.97707  23466136.43907
  -9876541.48008  -7696007.10908  22768388.56308  22768389.11408
 -26739387.86409 -20835879.45908  19300082.71809  19300082.89608
 -20171035.66608 -15717686.38508  20035033.27308  20035033.75108
 -17616068.09608 -13726805.49308  20182424.43508  20182425.78308
  -6765029.86708  -5271451.01208  20250284.76508  20250284.69808
 -11612444.28708  -9048660.30408  22112916.78008  22112917.19508
 93 04 09 12 08 00.0000000  0  8 23 12 28 01 21 11 25 31
   5297999.19108   4128312.10208  22904084.53608  22904085.45808
   3021551.83707   2354458.36307  23522412.32107  23522414.03507
  -9555637.59008  -7445952.10808  22829454.50408  22829454.69408
 -26603543.63509 -20730026.80008  19325932.99509  19325933.17408
 -20043240.81508 -15618105.98808  20059351.84008  20059352.25108
 -17502608.91708 -13638395.78708  20204015.02508  20204016.40908
  -7123481.74408  -5550764.09608  20182073.46608  20182073.41808
 -11410482.26908  -8891287.29508  22151348.86208  22151349.29408
 93 04 09 12 10 00.0000000  0  8 31 23 12 01 21 11 28 25
 -11204513.24408  -8730791.96308  22190543.43108  22190543.90108
   5530411.81208   4309412.66808  22948311.09808  22948312.15808
   3324099.90507   2590210.04908  23579985.49407  23579987.08208
 -26463601.33309 -20620980.84208  19352563.16109  19352563.36908
 -19911842.27908 -15515717.51708  20084356.15308  20084356.52908
 -17379282.17508 -13542297.06908  20227483.34708  20227484.72708
  -9235367.54908  -7196391.04108  22890399.90908  22890400.31908
  -7476308.45608  -5825693.93908  20114932.83708  20114932.74108
 93 04 09 12 12 00.0000000  0  8 31 23 12 01 21 11 28 25
 -10994690.42808  -8567293.67408  22230471.43108  22230471.85908
   5764495.44508   4491815.29908  22992856.01408  22992857.17708
   3633304.05107   2831148.18607  23638825.20407  23638826.69307
 -26319440.98009 -20508648.08408  19379995.95609  19379996.15408
 -19776427.29708 -15410199.35508  20110124.80308  20110125.21908
 -17246194.77108 -13438592.64008  20252809.08708  20252810.46008
  -8916117.25608  -6947624.64008  22951151.22908  22951151.27108
  -7823559.39908  -6096279.02908  20048853.15608  20048852.98608
 93 04 09 12 14 00.0000000  0  8 23 12 28 01 21 11 25 31
   6000450.07708   4675675.88108  23037756.72208  23037757.81808
   3948942.05307   3077099.72508  23698889.22007  23698890.78608
  -8598312.49008  -6699984.45908  23011627.57508  23011627.86708
 -26170884.78709 -20392890.00108  19408265.23709  19408265.41908
 -19637282.65108 -15301774.96408  20136603.13408  20136603.57108
 -17103528.91808 -13327424.48108  20279957.55108  20279958.89408
  -8165088.63308  -6362405.64908  19983862.25108  19983862.14708
 -10781237.28108  -8400966.57308  22271090.26008  22271090.47808
 93 04 09 12 16 00.0000000  0  8 31 23 12 01 21 11 28 25
 -10564355.28308  -8231967.61708  22312361.58308  22312361.93808
   6238371.89008   4861069.30708  23083032.02308  23083033.07508
   4270811.08207   3327906.64507  23760138.88207  23760140.43707
 -26018658.71209 -20274272.26808  19437232.85409  19437233.01808
 -19494285.38008 -15190348.53508  20163814.61808  20163815.02308
 -16951451.30208 -13208922.47408  20308896.96708  20308898.37308
  -8281911.75508  -6453438.53208  23071836.37808  23071836.82508
  -8500368.32808  -6623662.49008  19920060.58208  19920060.49108
 93 04 09 12 18 00.0000000  0  8 31 23 12 01 21 11 28 25
 -10344242.97808  -8060451.52508  22354247.64108  22354247.91408
   6478021.62008   5047809.18008  23128635.98108  23128637.01008
   4598710.58707   3583412.63808  23822536.22707  23822538.03308
 -25862755.12908 -20152788.94508  19466900.37508  19466900.50708
 -19347803.37008 -15076206.73308  20191689.27808  20191689.64808
 -16790131.55908 -13083218.80408  20339595.12708  20339596.53008
  -7966974.05408  -6208032.39208  23131767.35908  23131767.36108
  -8829486.13708  -6880117.86708  19857431.48208  19857431.33608
 93 04 09 12 20 00.0000000  0  8 31 23 12 01 21 11 28 25
 -10121036.85408  -7886524.67408  22396722.20108  22396722.61108
   6719798.01108   5236206.09708  23174644.77808  23174645.80008
   4932499.65507   3843507.80307  23886054.31407  23886056.03207
 -25703094.70908 -20028378.20508  19497282.68708  19497282.83608
 -19197508.51208 -14959093.89108  20220289.45708  20220289.81708
 -16619683.64908 -12950402.27508  20372030.33208  20372031.70008
  -7653638.65608  -5963875.02708  23191392.99808  23191393.27408
  -9152423.13208  -7131757.03108  19795978.58408  19795978.41708
 93 04 09 12 22 00.0000000  0  8 31 23 12 01 21 11 28 25
  -9894965.30408  -7710364.99108  22439742.15908  22439742.58008
   6963360.17708   5425994.55608  23220993.26508  23220994.56008
   5271945.23207   4108010.64907  23950648.92407  23950650.71407
 -25540008.31708 -19901297.88308  19528317.00908  19528317.15408
 -19042919.80408 -14838635.20108  20249706.70208  20249707.15808
 -16440318.74908 -12810637.43308  20406162.30208  20406163.70908
  -7342489.42708  -5721421.05107  23250602.65008  23250603.01207
  -9469106.79208  -7378523.46708  19735715.60508  19735715.44908
 93 04 09 12 24 00.0000000  0  8 31 23 12 01 21 11 28 25
  -9666215.41008  -7532118.31208  22483271.94308  22483272.21708
   7208894.61307   5617319.78708  23267716.97507  23267718.40508
   5616855.59707   4376771.74307  24016283.29607  24016285.14807
 -25373509.49708 -19771558.52708  19560000.72308  19560000.86408
 -18884623.68808 -14715287.62208  20279829.43308  20279829.93008
 -16252210.93108 -12664059.94708  20441958.02708  20441959.46708
  -7033582.50408  -5480714.36308  23309385.92108  23309386.24808
  -9778769.58508  -7619819.09608  19676788.73108  19676788.57408
 93 04 09 12 26 00.0000000  0  8 31 23 12 01 21 11 28 25
  -9435006.18208  -7351955.29708  22527269.49208  22527269.78408
   7456274.45708   5810082.97008  23314792.22408  23314793.70008
   5967003.38007   4649613.89007  24082914.33207  24082916.30007
 -25203504.57308 -19639087.14208  19592351.52308  19592351.69308
 -18722572.65108 -14589014.13008  20310666.80408  20310667.33208
 -16055575.04808 -12510837.22208  20479376.59608  20479378.10808
  -6726777.88707  -5241645.84507  23367768.41707  23367768.52907
 -10081804.99008  -7855950.52308  19619123.01908  19619122.81408
 93 04 09 12 28 00.0000000  0  8 31 23 01 21 11 12 28 25
  -9201531.17908  -7170026.69808  22571698.27708  22571698.56508
   7705699.11008   6004439.38708  23362256.30708  23362257.88008
 -25030335.86508 -19504150.46308  19625304.37908  19625304.51808
 -18556732.39608 -14459787.99608  20342225.19608  20342225.71108
 -15850603.75408 -12351119.36308  20518381.35608  20518382.81808
   6322187.09607   4926380.10407  24150503.80507  24150505.78207
  -6422371.95508  -5004446.38808  23425695.45808  23425695.42908
 -10377953.64608  -8086715.66108  19562767.77608  19562767.56108
 93 04 09 12 30 00.0000000  0  8 31 23 01 21 11 12 28 25
  -8966000.25308  -6986496.09708  22616518.31008  22616518.69908
   7957016.77208   6200270.95807  23410080.87008  23410082.47707
 -24854144.03108 -19366858.11808  19658832.56308  19658832.73108
 -18386727.04508 -14327316.34008  20374576.18608  20374576.67908
 -15637510.15008 -12185072.43008  20558931.75008  20558933.23808
   6682190.86207   5206902.24907  24219010.50407  24219012.52907
  -6120461.34507  -4769191.32508  23483146.86307  23483147.21008
 -10667069.95208  -8312001.04408  19507750.69208  19507750.49708
 93 04 09 12 32 00.0000000  0  8 31 01 23 21 11 12 28 25
  -8728604.13908  -6801512.10808  22661693.05908  22661693.70208
 -24675193.34608 -19227416.01408  19692885.72308  19692885.89408
   8210031.70408   6397424.94608  23458228.47808  23458230.29708
 -18212878.75308 -14191850.18108  20407658.39208  20407658.93408
 -15416497.08708 -12012854.48508  20600989.12008  20600990.64108
   7046812.15607   5491022.44106  24288395.83807  24288397.84806
  -5821508.32808  -4536241.13407  23540035.88308  23540035.89407
 -10948905.61808  -8531613.18908  19454119.11408  19454118.85708
 93 04 09 12 34 00.0000000  0  7 31 23 28 01 21 11 25
  -8489601.13308  -6615275.96008  22707174.26308  22707174.32108
   8464921.51607   6596039.88107  23506732.71107  23506734.56507
  -5525584.53508  -4305650.83408  23596348.34108  23596348.55308
 -24493667.71508 -19085967.46908  19727428.94808  19727429.09208
 -18035230.40508 -14053422.94208  20441463.82108  20441464.34008
 -15187836.56508 -11834677.50008  20644501.89108  20644503.36708
 -11223973.52408  -8745951.75208  19401775.39408  19401775.11208
 93 04 09 12 36 00.0000000  0  8 31 23 28 01 21 11 15 25
  -8249119.18008  -6427887.42408  22752936.17108  22752936.61508
   8721772.69108   6796183.07807  23555610.28408  23555612.38707
  -5232649.51208  -4077389.98408  23652091.79008  23652092.16808
 -24309283.10308 -18942291.13708  19762516.07608  19762516.21208
 -17853566.35208 -13911866.60208  20476033.31308  20476033.90008
 -14951676.97608 -11650657.07608  20689441.63508  20689443.08708
         0.47918         0.47418  20011078.57618  20011078.85418
 -11491786.05709  -8954636.77008  19350812.30909  19350812.03008
 93 04 09 12 38 00.0000000  0  8 31 23 28 01 21 11 15 25
  -8007366.49408  -6239508.70208  22798940.25508  22798940.89108
   8980404.75007   6997713.95607  23604826.79207  23604828.96107
  -4943136.84808  -3851795.64407  23707184.30608  23707184.56007
 -24122211.10708 -18796520.74808  19798114.74808  19798114.87108
 -17668064.32708 -13767319.64408  20511333.28408  20511333.86408
 -14708250.24508 -11460973.93108  20735764.17008  20735765.63008
   -298415.93008   -232531.77008  19954291.83108  19954292.08308
 -11751785.03909  -9157233.29708  19301336.07709  19301335.80908
 93 04 09 12 40 00.0000000  0  7 23 31 01 21 11 15 25
   9241050.70407   7200814.10908  23654426.59807  23654429.05408
  -7764584.25208  -6050327.69608  22845140.10808  22845140.36208
 -23932733.88608 -18648876.16308  19834171.06408  19834171.20108
 -17478617.47808 -13619698.79708  20547383.83208  20547384.49308
 -14457828.59308 -11265840.18508  20783417.83508  20783419.33308
   -589361.63708   -459242.69608  19898926.69608  19898926.94308
 -12004104.64009  -9353845.89808  19253321.14409  19253320.86008
 93 04 09 12 42 00.0000000  0  7 23 31 01 21 11 15 25
   9503676.46407   7405456.88707  23704402.99807  23704405.65907
  -7520930.22607  -5860467.39908  22891505.66307  22891506.22908
 -23741156.76408 -18499595.29808  19870627.01708  19870627.14808
 -17285157.90608 -13468951.15508  20584197.97308  20584198.62708
 -14200603.08108 -11065404.73708  20832366.24408  20832367.72008
   -872652.33308   -679988.68308  19845018.26008  19845018.50608
 -12249050.16009  -9544712.46108  19206709.49709  19206709.19008
 93 04 09 12 44 00.0000000  0  7 14 31 01 21 11 15 25
        -0.77118        -0.27818  23065301.12718  23065301.93818
  -7276609.56708  -5670087.60408  22937998.54408  22937999.06408
 -23547223.06408 -18348478.12908  19907531.36008  19907531.48908
 -17087726.88808 -13315108.87708  20621767.92208  20621768.59708
 -13936815.93708 -10859856.32108  20882563.25608  20882564.79908
  -1148152.86308   -894664.40508  19792592.23108  19792592.50208
 -12486052.88609  -9729389.84108  19161609.38209  19161609.05208
 93 04 09 12 46 00.0000000  0  7 14 31 01 21 11 15 25
   -376486.00208   -293365.23808  22993658.21208  22993658.94708
  -7031792.32908  -5479320.94608  22984585.77008  22984586.02308
 -23351081.57408 -18195640.60908  19944855.85108  19944855.94008
 -16886675.98208 -13158445.93108  20660026.76808  20660027.42908
 -13666680.49908 -10649361.19308  20933968.30108  20933969.89608
  -1415701.75108  -1103144.04608  19741679.39708  19741679.62808
 -12715118.69509  -9907882.61808  19118019.58409  19118019.23308
 93 04 09 12 48 00.0000000  0  8 11 20 14 01 21 15 25 31
 -13390415.30708 -10434089.63408  20986539.79708  20986541.41608
         0.49918         0.26517  23304481.74118  23304483.31617
   -754081.96908   -587595.68008  22921803.88808  22921804.62208
 -23153004.82508 -18041295.10808  19982548.61308  19982548.73508
 -16681496.18908 -12998565.69208  20699071.27508  20699072.02508
  -1675144.33708  -1305307.09008  19692309.08008  19692309.35608
 -12936004.24509 -10080001.17208  19075986.40609  19075986.04308
  -6786650.69708  -5288301.48508  23031234.58908  23031235.03508
 93 04 09 12 50 00.0000000  0  8 11 20 14 01 21 15 25 31
 -13108271.60708 -10214237.42908  21040229.94808  21040231.64008
   -156784.07508   -122169.71907  23274646.89508  23274648.13307
  -1133103.81208   -882937.21208  22849678.31108  22849679.08608
 -22953023.30708 -17885465.38808  20020603.84508  20020604.02608
 -16472040.94608 -12835353.95308  20738929.33808  20738930.15008
  -1926359.00508  -1501058.77108  19644504.49108  19644504.78208
 -13148844.49709 -10245850.66808  19035484.23609  19035483.81408
  -6541386.77008  -5097186.66508  23077906.78808  23077906.86408
 93 04 09 12 52 00.0000000  0  8 11 20 14 01 21 15 25 31
 -12820455.27208  -9989964.98808  21094999.63808  21095001.28808
   -307306.88008   -239460.39807  23246003.36208  23246005.04807
  -1512842.51808  -1178837.34908  22777416.34208  22777417.10108
 -22751165.07508 -17728173.30908  20059016.19808  20059016.36408
 -16258959.52208 -12669316.62908  20779477.54508  20779478.31008
  -2169181.38608  -1690271.01308  19598296.94008  19598297.20108
 -13353719.05209 -10405493.11708  18996497.80409  18996497.41308
  -6296152.86007  -4906095.29508  23124573.12807  23124573.78908
 93 04 09 12 54 00.0000000  0  8 11 20 14 01 21 15 25 31
 -12527197.57608  -9761452.50908  21150804.72608  21150806.36308
   -451429.91307   -351764.26008  23218577.37507  23218579.85308
  -1893456.67908  -1475419.68208  22704987.72008  22704988.56408
 -22547549.80508 -17569512.11508  20097762.95308  20097763.10108
 -16041937.68908 -12500208.87108  20820775.60208  20820776.34108
  -2403474.53108  -1872837.09808  19553712.43908  19553712.66608
 -13550321.14709 -10558689.50809  18959085.66009  18959085.27109
  -6051123.45108  -4715163.29507  23171200.82908  23171200.61907
 93 04 09 12 56 00.0000000  0  8 11 20 14 01 21 15 25 31
 -12228709.47208  -9528864.40608  21207605.13808  21207606.76408
   -588997.15807   -458959.67508  23192399.24407  23192401.99108
  -2275229.89408  -1772905.16808  22632338.59908  22632339.32808
 -22342190.33308 -17409491.80708  20136841.61208  20136841.76508
 -15820704.90408 -12327819.87008  20862874.89408  20862875.73308
  -2629083.64708  -2048636.41608  19510780.43808  19510780.72208
 -13738178.07209 -10705071.49009  18923337.61609  18923337.19409
  -5806447.38307  -4524506.49608  23217760.69007  23217761.43608
 93 04 09 12 58 00.0000000  0  8 11 20 14 15 01 21 25 31
 -11925233.09408  -9292389.33308  21265354.84808  21265356.44708
   -719888.64108   -560953.11408  23167491.89908  23167494.30908
  -2658080.79108  -2071230.41608  22559484.36208  22559485.15508
  -2845888.47008  -2217575.24108  19469523.89108  19469524.15008
 -22135009.18308 -17248052.02208  20176266.89208  20176267.12108
 -15595400.01108 -12152257.79908  20905749.12608  20905750.05008
 -13917462.89409 -10844773.93309  18889220.84509  18889220.45409
  -5562304.18608  -4334265.08208  23264220.01108  23264220.27008
 93 04 09 13 00 00.0000000  0  8 11 20 14 15 01 21 25 31
 -11617009.90308  -9052215.42308  21324007.72808  21324009.35408
   -843984.15608   -657650.97608  23143877.48708  23143879.77108
  -3041876.21008  -2370291.66408  22486450.51008  22486451.26108
  -3053772.40408  -2379562.72908  19429964.90108  19429965.14608
 -21926408.63308 -17085506.21908  20215962.33908  20215962.55008
 -15366216.50908 -11973673.46408  20949361.42408  20949362.40608
 -14088515.84809 -10978061.93609  18856670.53009  18856670.11909
  -5318869.74307  -4144575.76408  23310543.82907  23310544.20308
 93 04 09 13 02 00.0000000  0  7 20 21 11 01 14 25 31
   -961182.00308   -748974.04708  23121575.66308  23121577.70808
 -15132644.70508 -11791669.69208  20993808.83808  20993809.87008
 -11304294.43108  -8808541.04808  21383515.57608  21383517.15208
 -21716508.59908 -16921947.84308  20255905.09208  20255905.32908
  -3426274.44708  -2669822.64208  22413301.80208  22413302.59608
 -14250739.53009 -11104469.98709  18825800.40809  18825799.97909
  -5076328.69007  -3955582.72308  23356697.80107  23356698.26208
 93 04 09 13 04 00.0000000  0  8 20 21 11 29 01 14 25 31
  -1071357.48208   -834825.14808  23100610.02508  23100611.93308
 -14895264.16108 -11606698.08708  21038981.00308  21038982.16808
 -10987315.70308  -8561544.65608  21443834.59608  21443836.27908
        -0.35118        -0.35018  22644125.36118  22644125.38418
 -21505270.99808 -16757347.21708  20296102.31608  20296102.67208
  -3811192.85508  -2969758.96508  22340054.31508  22340054.95008
 -14404006.52809 -11223898.81309  18796634.65009  18796634.24809
  -4834837.25907  -3767407.53108  23402651.95207  23402652.37008
 93 04 09 13 06 00.0000000  0  8 20 21 11 29 01 14 25 31
  -1174411.25808   -915126.90807  23080999.53208  23081001.29007
 -14654325.38608 -11418953.84108  21084830.31608  21084831.45408
 -10666324.25108  -8311421.47008  21504917.25608  21504918.91908
   -323584.63508   -252143.86208  22582549.05208  22582549.25908
 -21292766.36908 -16591759.31408  20336540.75008  20336541.06608
  -4196965.34408  -3270360.83408  22266644.22008  22266644.77708
 -14548647.73709 -11336606.24609  18769110.33209  18769109.93909
  -4594571.14707  -3580187.15208  23448373.13807  23448373.40808
 93 04 09 13 08 00.0000000  0  8 20 21 11 29 01 14 25 31
  -1270250.99608   -989807.32507  23062761.84008  23062763.69507
 -14409331.89908 -11228050.06608  21131451.27008  21131452.44008
 -10341572.00308  -8058367.79808  21566715.59608  21566717.17608
   -644903.93308   -502522.51008  22521404.05608  22521404.04508
 -21079137.35408 -16425295.27008  20377192.99308  20377193.37608
  -4583563.06908  -3571605.74608  22193077.07408  22193077.64208
 -14685009.33409 -11442862.04709  18743161.59309  18743161.19109
  -4355706.02308  -3394058.41808  23493827.55408  23493827.92308
 93 04 09 13 10 00.0000000  0  7 20 21 11 29 01 14 25
  -1358812.74908  -1058816.61307  23045909.13908  23045910.87107
 -14159988.22908 -11033756.56208  21178899.93508  21178901.10508
 -10013335.43308  -7802599.06608  21629176.84908  21629178.64208
   -964216.81308   -751337.64908  22460640.79008  22460640.80208
 -20864165.27108 -16257784.69808  20418100.94508  20418101.39808
  -4970718.80508  -3873285.47408  22119403.80408  22119404.29608
 -14812420.01009 -11542143.11209  18718916.15309  18718915.75309
 93 04 09 13 12 00.0000000  0  8 20 21 11 29 01 14 25 15
  -1440038.58208  -1122109.66807  23030452.66108  23030454.44507
 -13906937.46608 -10836574.43508  21227054.06308  21227055.39708
  -9681892.10408  -7544331.54408  21692248.50808  21692250.19508
  -1281275.56608   -998396.39808  22400306.47008  22400306.58508
 -20648221.65208 -16089517.08208  20459193.79708  20459194.23208
  -5358338.41008  -4175326.71508  22045642.16608  22045642.70508
 -14930832.09709 -11634412.29509  18696383.11009  18696382.69309
         0.37318         0.24718  19229322.13018  19229322.45718
 93 04 09 13 14 00.0000000  0  8 20 21 11 01 29 14 25 15
  -1513831.81307  -1179610.96507  23016409.96807  23016412.13107
 -13650280.08508 -10636581.95308  21275894.55208  21275896.04608
  -9347473.32208  -7283745.51508  21755886.30608  21755887.98808
 -20431353.72708 -15920529.23308  20500462.52108  20500462.90708
  -1595969.72008  -1243612.60308  22340422.11608  22340422.24808
  -5746285.89308  -4477623.41508  21971818.13308  21971818.64608
 -15040326.82509 -11719732.89609  18675547.00809  18675546.59209
   -142840.87308   -111304.66608  19202140.37908  19202140.74608
 93 04 09 13 16 00.0000000  0  8 20 21 11 29 01 14 25 15
  -1580096.06907  -1231245.62907  23003800.58007  23003802.52307
 -13389696.40208 -10433530.04208  21325482.26008  21325483.83808
  -9010307.37508  -7021018.82308  21820046.91208  21820048.47208
  -1908669.53908  -1487274.78808  22280917.33708  22280917.37108
 -20213590.32108 -15750843.61408  20541901.58808  20541902.05408
  -6135026.31208  -4780538.00808  21897843.31008  21897843.78208
 -15141305.58509 -11798417.68609  18656331.38309  18656331.02509
   -276079.20908   -215126.80108  19176786.00408  19176786.37408
 93 04 09 13 18 00.0000000  0  8 20 21 11 01 29 14 25 15
  -1638754.73107  -1276953.85407  22992638.25307  22992640.39907
 -13125290.40808 -10227499.71308  21375797.23108  21375798.86108
  -8670635.51908  -6756339.48708  21884684.37308  21884685.85608
 -19994900.72408 -15580436.29608  20583516.93708  20583517.52808
  -2219307.47408  -1729330.27508  22221804.96708  22221804.80308
  -6524205.66108  -5083794.65908  21823784.91608  21823785.43208
 -15233382.80809 -11870166.22709  18638809.70009  18638809.33009
   -399648.67008   -311414.75108  19153271.56408  19153271.98608
 93 04 09 13 20 00.0000000  0  8 20 21 11 29 01 14 25 15
  -1689704.60507  -1316655.20007  22982942.87407  22982945.06507
 -12856924.17808 -10018383.49308  21426865.85808  21426867.45308
  -8328666.89908  -6489870.48208  21949758.85208  21949760.57508
  -2527210.28508  -1969254.54108  22163212.92208  22163212.83608
 -19775593.51508 -15409547.73008  20625249.79108  20625250.41408
  -6913489.29208  -5387132.57508  21749706.75108  21749707.29308
 -15316416.18009 -11934867.60709  18623008.99709  18623008.62209
   -513459.87208   -400098.86208  19131614.06508  19131614.47008
 93 04 09 13 22 00.0000000  0  8 20 21 11 29 01 14 25 15
  -1732883.35207  -1350301.19907  22974726.51207  22974728.59107
 -12584630.95508  -9806207.28808  21478681.88808  21478683.53908
  -7984644.58108  -6221801.20808  22015224.15508  22015225.69008
  -2832948.90108  -2207492.43308  22105032.84808  22105032.72008
 -19555423.72008 -15237987.02008  20667146.83508  20667147.52108
  -7302653.76308  -5690377.65308  21675651.28508  21675651.80608
 -15390541.22009 -11992627.42409  18608903.58809  18608903.20509
   -617463.94308   -481141.05408  19111822.79408  19111823.22108
 93 04 09 13 24 00.0000000  0  8 20 21 11 29 01 14 25 15
  -1768258.05008  -1377866.06507  22967995.16208  22967997.16307
 -12308456.29308  -9591006.60708  21531236.41708  21531238.32508
  -7638834.50308  -5952338.88408  22081029.63508  22081031.24708
  -3136514.89608  -2444037.38008  22047266.18408  22047266.19408
 -19334509.85508 -15065846.52708  20709185.52708  20709186.21608
  -7691764.61608  -5993581.00008  21601606.01608  21601606.53408
 -15455652.37809 -12043363.43109  18596513.35809  18596512.99009
   -711642.64708   -554527.12208  19093901.22808  19093901.70708
 93 04 09 13 26 00.0000000  0  8 20 21 11 29 01 14 25 15
  -1795770.93908  -1399304.81007  22962759.80708  22962761.85907
 -12028572.84308  -9372915.96008  21584496.62908  21584498.64308
  -7291470.83208  -5681665.96208  22147130.46708  22147132.56008
  -3438040.47308  -2678992.40208  21989887.80608  21989887.85908
 -19112900.91608 -14893164.41308  20751356.43008  20751357.09808
  -8080897.78608  -6296801.74508  21527556.46108  21527557.00408
 -15511890.45809 -12087185.36209  18585811.60109  18585811.25109
   -795955.32508   -620225.37408  19077857.11008  19077857.60408
 93 04 09 13 28 00.0000000  0  8 20 21 11 29 14 01 25 15
  -1815379.22308  -1414584.11407  22959028.60108  22959030.97907
 -11745131.22008  -9152052.72908  21638434.15608  21638436.15008
  -6942795.85008  -5409971.27408  22213481.63708  22213483.47308
  -3737356.88308  -2912226.02108  21932929.78808  21932929.83108
  -8470215.44008  -6600166.23008  21453471.78808  21453472.43608
 -18890777.14408 -14720081.13908  20793625.38808  20793626.11608
 -15559225.89809 -12124070.18009  18576804.02909  18576803.70109
   -870377.78508   -678216.96408  19063695.04608  19063695.52008
 93 04 09 13 30 00.0000000  0  8 20 21 11 29 14 01 25 15
  -1827043.69508  -1423673.46608  22956808.93208  22956811.53208
 -11458045.12508  -8928349.65108  21693065.14808  21693067.21108
  -6593048.32408  -5137440.86108  22280036.48108  22280038.12208
  -4034235.72708  -3143560.23608  21876435.75808  21876435.71708
  -8859603.41008  -6903585.49908  21379373.83908  21379374.43108
 -18668376.84508 -14546782.38808  20835946.91208  20835947.67308
 -15597653.76909 -12154014.03609  18569491.51309  18569491.20109
   -934890.93708   -728487.01808  19051418.64508  19051419.11108
 93 04 09 13 32 00.0000000  0  8 20 21 11 29 14 01 25 15
  -1830713.09008  -1426532.90108  22956110.74108  22956113.64408
 -11167194.49708  -8701713.18608  21748412.48108  21748414.64908
  -6242446.35108  -4864244.58308  22346753.83408  22346755.61508
  -4328910.14908  -3373176.71808  21820360.98308  21820361.02808
  -9248360.79008  -7206513.39408  21305395.83108  21305396.43508
 -18445455.69808 -14373077.79708  20878367.54608  20878368.37208
 -15627290.04509 -12177107.30209  18563851.96109  18563851.67709
   -989461.62208   -771009.70208  19041034.23508  19041034.68908
 93 04 09 13 34 00.0000000  0  8 20 21 11 29 14 25 01 15
  -1826361.46708  -1423142.23808  22956939.05608  22956941.86708
 -10872748.79308  -8472275.38708  21804443.87308  21804446.15708
  -5891227.44908  -4590567.64908  22413588.49708  22413590.42008
  -4621542.07808  -3601201.66408  21764674.99108  21764675.07608
  -9636586.41708  -7509026.94508  21231519.00308  21231519.59908
 -15648265.15709 -12193451.59409  18559860.54109  18559860.26909
 -18221987.73108 -14198947.12508  20920892.19508  20920893.08708
  -1034088.69908   -805784.12108  19032542.04208  19032542.55308
 93 04 09 13 36 00.0000000  0  8 20 21 11 29 14 25 01 15
  -1813953.09908  -1413473.58308  22959300.33908  22959303.36808
 -10574721.31408  -8240046.60208  21861156.93108  21861159.24908
  -5539609.90008  -4316580.05308  22480499.24908  22480501.23608
  -4912202.45508  -3827690.32108  21709364.24208  21709364.32508
 -10024459.42008  -7811265.71308  21157709.29808  21157709.99008
 -15660421.39709 -12202924.03109  18557547.23609  18557547.01609
 -17998252.13108 -14024607.91508  20963467.80408  20963468.80308
  -1068759.61708   -832800.49508  19025944.40508  19025944.96108
 93 04 09 13 38 00.0000000  0  8 01 20 21 11 29 14 25 15
 -17773903.51808 -13849791.03708  21006160.12708  21006161.18308
  -1793436.52507  -1397486.87508  22963204.48507  22963207.81708
 -10273225.83008  -8005115.48508  21918530.01708  21918532.45508
  -5187789.01708  -4042434.06608  22547448.60008  22547450.71908
  -5200619.78408  -4052431.13908  21654480.33708  21654480.38108
 -10411926.59108  -8113188.22308  21083976.76108  21083977.44708
 -15663543.34909 -12205356.76909  18556953.26909  18556953.05409
  -1093447.06708   -852037.54208  19021246.62208  19021247.18808
 93 04 09 13 40 00.0000000  0  7 01 20 21 29 25 15 14
 -17549606.89808 -13675014.68408  21048842.54208  21048843.58708
  -1764802.36907  -1375174.73908  22968653.55207  22968656.84608
  -9968069.82808  -7767332.02608  21976599.61508  21976602.23808
  -5486859.54908  -4275475.16508  21600010.76108  21600010.85308
 -15658077.57909 -12201097.78809  18557993.43509  18557993.23309
  -1108169.25608   -863509.45308  19018445.15908  19018445.75808
 -10798493.15208  -8414408.96808  21010415.61708  21010416.32108
 93 04 09 13 42 00.0000000  0  7 01 20 21 29 25 15 14
 -17324712.63308 -13499772.63608  21091638.68908  21091639.73808
  -1728006.55608  -1346502.88307  22975656.07808  22975658.78207
  -9659440.59608  -7526842.17008  22035330.15608  22035332.82008
  -5770790.77708  -4496720.31608  21545980.44308  21545980.61308
 -15643931.15509 -12190074.66509  18560685.47909  18560685.26309
  -1112908.87408   -867202.74708  19017543.30508  19017543.92008
 -11184289.34608  -8715029.43008  20937001.06308  20937001.74508
 93 04 09 13 44 00.0000000  0  7 01 20 21 29 25 14 15
 -17099449.15108 -13324242.90308  21134505.08008  21134506.17408
  -1682991.59008  -1311426.40807  22984222.14508  22984225.08707
  -9347210.00808  -7283546.10208  22094745.97708  22094748.77308
  -6052630.82308  -4716335.97008  21492348.08608  21492348.22608
 -15620954.74709 -12172171.03109  18565057.81909  18565057.61109
 -11569007.66908  -9014810.00608  20863791.64108  20863792.33008
  -1107639.44508   -863096.78608  19018546.10208  19018546.73608
 93 04 09 13 46 00.0000000  0  8 01 20 21 11 29 14 25 15
 -16873693.86608 -13148329.95708  21177465.09708  21177466.27408
  -1629706.32407  -1269905.65408  22994362.15607  22994365.33408
  -9031518.46308  -7037553.17208  22154820.30808  22154823.42308
        -0.14917        -0.49117  22814856.35217  22814858.39517
  -6332223.04008  -4934200.07808  21439143.51508  21439143.57008
 -11952446.52408  -9313593.57208  20790825.72408  20790826.43908
 -15589395.00509 -12147579.07509  18571063.43409  18571063.26409
  -1092339.86708   -851175.12708  19021457.58508  19021458.20108
 93 04 09 13 48 00.0000000  0  8 01 20 21 11 29 14 25 15
 -16647477.64708 -12972057.84908  21220512.76808  21220514.05308
  -1568074.79307  -1221881.36008  23006090.36507  23006093.66708
  -8712227.89808  -6788755.86608  22215579.70608  22215582.82308
    349986.29808    272716.10608  22881456.90108  22881458.92708
  -6609637.43008  -5150367.17308  21386353.30308  21386353.37608
 -12334442.16208  -9611252.56008  20718134.38208  20718135.16308
 -15549208.09109 -12116264.65409  18578710.74909  18578710.63109
  -1066967.76008   -831404.75408  19026285.81608  19026286.46508
 93 04 09 13 50 00.0000000  0  8 01 20 21 11 29 14 25 15
 -16420881.75008 -12795489.89408  21263632.72608  21263634.03308
  -1498036.89407  -1167306.68108  23019418.42407  23019421.67908
  -8389116.34908  -6536981.15608  22277066.17708  22277069.43908
    699164.65407    544802.90607  22947903.41807  22947905.35607
  -6884399.87508  -5364467.80608  21334067.73608  21334067.86808
 -12714807.73008  -9907641.35508  20645753.27308  20645754.10708
 -15499976.81109 -12077902.68809  18588079.23609  18588079.08109
  -1031493.81008   -803762.81508  19033036.37308  19033037.06508
 93 04 09 13 52 00.0000000  0  8 01 20 21 11 29 14 25 15
 -16193535.08508 -12618336.91808  21306895.55408  21306896.99108
  -1419571.07008  -1106164.71708  23034350.18008  23034353.38708
  -8062561.09908  -6282523.06208  22339208.03108  22339211.32608
   1047366.43808    816128.74907  23014164.11208  23014166.26807
  -7156822.90808  -5576745.50208  21282227.40908  21282227.57308
 -13093740.28708 -10202913.51908  20573644.82808  20573645.65508
 -15442085.12909 -12032792.35909  18599095.75409  18599095.60309
   -985933.26408   -768261.18908  19041706.35708  19041707.04308
 93 04 09 13 54 00.0000000  0  8 01 20 21 11 29 14 25 15
 -15965596.25908 -12440722.53508  21350271.08008  21350272.64808
  -1332672.94007  -1038452.05907  23050886.46907  23050889.66307
  -7732834.16608  -6025593.56208  22401953.56108  22401956.93708
   1394414.21707   1086555.53407  23080205.14607  23080207.32807
  -7426937.44308  -5787224.39508  21230826.35508  21230826.52708
 -13470452.11508 -10496455.24508  20501959.02908  20501959.76408
 -15375571.39409 -11980963.54709  18611752.86009  18611752.73609
   -930319.55808   -724925.93508  19052289.37208  19052290.10208
 93 04 09 13 56 00.0000000  0  8 01 20 21 11 29 14 25 15
 -15737215.38208 -12262763.71808  21393730.78108  21393732.34208
  -1237359.07208   -964181.72208  23069024.26208  23069027.60008
  -7399378.58608  -5765758.68008  22465408.44208  22465411.95408
   1740121.62708   1355937.67308  23145991.33208  23145993.52408
  -7694610.51508  -5995800.83608  21179889.89008  21179890.11808
 -13844893.55308 -10788227.84408  20430705.21608  20430705.98408
 -15300552.00709 -11922506.95609  18626028.70309  18626028.61209
   -864703.49008   -673796.63508  19064775.74308  19064776.50308
 93 04 09 13 58 00.0000000  0  8 01 20 21 11 29 14 25 15
 -15508460.97208 -12084513.85408  21437261.65008  21437263.22508
  -1133605.82508   -883335.27208  23088768.03508  23088771.40008
  -7062106.00908  -5502949.51408  22529589.80408  22529593.41808
   2084348.12207   1624165.93707  23211495.58207  23211497.85607
  -7959798.39808  -6202440.75608  21129426.37008  21129426.48908
 -14217409.97908 -11078500.44208  20359817.72608  20359818.56908
 -15217020.49209 -11857417.54408  18641924.15809  18641924.08408
   -789103.33108   -614887.53308  19079162.04108  19079162.83408
 93 04 09 14 00 00.0000000  0  7 01 20 21 29 25 15 14
 -15278817.55308 -11905571.25408  21480961.60008  21480963.25408
  -1021394.34208   -795897.99207  23110121.32708  23110124.74507
  -6721503.89508  -5237545.94908  22594404.79708  22594408.60308
  -8222203.97008  -6406912.63808  21079492.21408  21079492.31308
 -15124858.77709 -11785603.30408  18659461.98209  18659461.94608
   -703538.98508   -548214.13008  19095444.50208  19095445.30808
 -14587275.71108 -11366707.55908  20289434.63708  20289435.49508
 93 04 09 14 02 00.0000000  0  7 01 29 20 21 25 15 14
 -15048606.56608 -11726186.42708  21524769.49908  21524771.22408
  -8482250.16308  -6609546.05408  21030007.10308  21030007.23308
   -900772.90508   -701907.54507  23133075.09008  23133078.53607
  -6377563.13008  -4969540.86808  22659855.09808  22659859.10708
 -15024249.68909 -11707206.69408  18678607.48809  18678607.44408
   -608098.79308   -473845.26908  19113606.28408  19113607.08208
 -14954661.42808 -11652982.19308  20219523.50808  20219524.35808
 93 04 09 14 04 00.0000000  0  7 01 20 21 25 14 29 15
 -14817727.23608 -11546280.79308  21568704.52708  21568706.43108
   -771751.25108   -601371.44307  23157627.28708  23157630.78007
  -6030091.55408  -4698784.51208  22725977.22108  22725981.37608
 -14915214.28009 -11622244.12508  18699356.31609  18699356.29808
 -15319567.41908 -11937324.57508  20150084.22208  20150085.05108
  -8740142.86408  -6810501.40808  20980931.71308  20980931.93208
   -502835.06908   -391821.71508  19133637.39508  19133638.24608
 93 04 09 14 06 00.0000000  0  7 01 20 21 25 14 29 15
 -14586281.37608 -11365933.73408  21612747.56108  21612749.53208
   -634397.14608   -494342.47207  23183765.04908  23183768.63207
  -5679419.35508  -4425534.12407  22792708.41508  22792712.66707
 -14798106.90409 -11530991.72008  18721641.14209  18721641.15408
 -15681302.60108 -12219196.19408  20081248.39508  20081249.20308
  -8995235.29108  -7009274.71908  20932389.22508  20932389.45308
   -387861.56808   -302232.10608  19155516.21208  19155517.09408
 93 04 09 14 08 00.0000000  0  7 01 20 21 14 29 25 15
 -14354124.61908 -11185032.73408  21656925.83808  21656927.86008
   -488736.23007   -380840.67307  23211483.63207  23211487.14807
  -5325434.96108  -4149702.83507  22860069.82708  22860074.30907
 -16040053.09708 -12498742.07308  20012980.49908  20012981.32408
  -9247843.61208  -7206112.37608  20884319.43508  20884319.71008
 -14672865.13709 -11433400.84208  18745473.90709  18745473.97908
   -263246.89608   -205129.89208  19179229.69208  19179230.61308
 93 04 09 14 10 00.0000000  0  7 01 20 21 14 29 25 15
 -14121187.30708 -11003523.51908  21701252.60208  21701254.69908
   -334790.89907   -260883.53907  23240778.61407  23240782.22707
  -4968028.66208  -3871205.10707  22928082.58908  22928087.27607
 -16395454.51008 -12775678.28208  19945349.86108  19945350.67708
  -9497902.51408  -7400963.49308  20836734.88108  20836735.08208
 -14539359.98209 -11329370.96408  18770879.16309  18770879.28108
   -129056.72108   -100566.24608  19204765.34808  19204766.30508
 93 04 09 14 12 00.0000000  0  7 01 20 21 29 14 25 15
 -13887421.38908 -10821368.63708  21745737.10908  21745739.29008
   -172606.88007   -134506.65307  23271641.52407  23271645.14607
  -4607248.67507  -3590078.54407  22996737.29207  22996742.17007
  -9745534.96408  -7593923.85108  20789611.99108  20789612.20108
 -16747392.54308 -13049915.75108  19878378.34408  19878379.21408
 -14397663.98809 -11218958.60908  18797843.12509  18797843.30908
     14615.50608     11386.01208  19232105.40908  19232106.31908
 93 04 09 14 14 00.0000000  0  7 01 20 21 29 14 25 15
 -13652798.53608 -10638546.00908  21790384.63908  21790386.94308
     -2236.18607     -1750.57807  23304061.93007  23304065.97807
  -4243479.78207  -3306623.06607  23065960.87307  23065965.82107
  -9990563.53908  -7784855.23108  20742984.59408  20742984.80408
 -17095726.56108 -13321344.89308  19812092.60708  19812093.47408
 -14248336.87409 -11102599.92308  18826259.21609  18826259.38608
    167670.86308    130649.78808  19261230.92908  19261231.92508
 93 04 09 14 16 00.0000000  0  7 01 20 21 29 14 25 15
 -13417492.04608 -10455190.71108  21835162.10108  21835164.61408
    176267.99507    137343.17107  23338030.43907  23338034.60407
  -3876274.19207  -3020489.79407  23135838.29807  23135843.50007
 -10233167.53208  -7973897.32908  20696818.65708  20696818.85608
 -17440300.24308 -13589843.90608  19746522.37208  19746523.30808
 -14090851.79009 -10979884.38208  18856227.73309  18856227.88908
    330011.13408    257148.56108  19292123.37608  19292124.38008
 93 04 09 14 18 00.0000000  0  7 01 20 21 29 14 25 15
 -13181276.73308 -10271127.26108  21880112.80608  21880115.44408
    362897.52207    282768.37607  23373545.30507  23373549.45707
  -3506137.08307  -2732072.26607  23206274.03207  23206279.56107
 -10472917.43608  -8160715.45408  20651195.75708  20651196.01508
 -17780910.08808 -13855254.22008  19681706.56008  19681707.48408
 -13925645.61909 -10851152.42008  18887665.56409  18887665.71808
    501576.43908    390835.66708  19324771.29908  19324772.31908
 93 04 09 14 20 00.0000000  0  7 01 20 21 29 14 25 15
 -12944395.56608 -10086544.98808  21925190.16308  21925192.87608
    557562.39707    434454.92207  23410589.04707  23410593.20507
  -3132850.97807  -2441201.04407  23277308.68107  23277314.73707
 -10709918.95608  -8345391.95908  20606095.88208  20606096.16708
 -18117402.12108 -14117455.86008  19617674.27108  19617675.24008
 -13752812.59409 -10716477.46408  18920554.68009  18920554.87508
    682228.41008    531603.29608  19359148.33808  19359149.41708
 93 04 09 14 22 00.0000000  0  7 01 20 21 29 14 25 15
 -12706462.38408  -9901142.96108  21970467.78308  21970470.57208
    760151.58807    592316.25707  23449140.89107  23449145.00907
  -2756545.25107  -2147976.61706  23348918.08807  23348923.96306
 -10944477.58008  -8528164.92008  20561460.90108  20561461.14908
 -18449583.70808 -14376298.71408  19554462.30408  19554463.26908
 -13572497.72309 -10575972.49608  18954867.57009  18954867.77208
    871806.03108    679325.97608  19395223.87308  19395225.00008
 93 04 09 14 24 00.0000000  0  5 01 29 14 25 15
 -12467417.07208  -9714874.35908  22015957.00508  22015959.81508
 -11176571.20608  -8709017.14508  20517294.97108  20517295.26408
 -18777251.88708 -14631624.61008  19492109.15708  19492110.14808
 -13384629.40909 -10429581.73508  18990617.76309  18990618.07808
   1070189.26308    833910.17408  19432975.02108  19432976.24008
 93 04 09 14 26 00.0000000  0  5 01 29 14 25 15
 -12227764.91308  -9528132.89008  22061561.44308  22061564.51208
 -11405855.29708  -8887680.08908  20473663.68708  20473663.98508
 -19100336.29708 -14883378.74308  19430628.27808  19430629.25308
 -13189355.12408 -10277420.09508  19027777.33808  19027777.62608
   1277186.19108    995206.32308  19472365.32708  19472366.56908
 93 04 09 14 28 00.0000000  0  5 01 29 14 25 15
 -11987186.88908  -9340669.97508  22107342.32108  22107345.40408
 -11632517.08808  -9064299.72108  20430531.40908  20430531.72208
 -19418476.25708 -15131280.06308  19370088.31108  19370089.33108
 -12986950.54008 -10119702.38708  19066293.76908  19066294.12508
   1492646.62208   1163097.40908  19513366.24708  19513367.47308
 93 04 09 14 30 00.0000000  0  5 01 29 14 25 15
 -11745507.77308  -9152349.10208  22153332.63408  22153336.12808
 -11856866.25208  -9239117.29108  20387839.21908  20387839.50408
 -19732093.72908 -15375657.35908  19310408.92608  19310409.97008
 -12777775.79408  -9956709.23808  19106098.50708  19106098.94108
   1716329.03408   1337395.23208  19555931.74708  19555933.00208
 93 04 09 14 32 00.0000000  0  5 01 29 14 25 15
 -11503011.87008  -8963391.76808  22199478.55608  22199482.01108
 -12078919.77808  -9412146.05908  20345583.92208  20345584.21708
 -20040644.27308 -15616086.40908  19251693.73108  19251694.75208
 -12561871.74608  -9788472.48008  19147183.83408  19147184.32208
   1948068.00208   1517970.88508  19600030.31608  19600031.62708
 93 04 09 14 34 00.0000000  0  5 01 29 14 25 15
 -11259721.98808  -8773815.74908  22245775.48508  22245779.11408
 -12298521.94908  -9583264.70208  20303795.03908  20303795.35108
 -20344033.60008 -15852493.73608  19193960.74708  19193961.80208
 -12339227.77608  -9614983.83808  19189551.50908  19189552.08208
   2187663.88108   1704668.80308  19645623.97208  19645625.45108
 93 04 09 14 36 00.0000000  0  6 01 18 29 14 25 15
 -11015404.06708  -8583438.68108  22292268.02508  22292271.76008
        -0.04817        -0.48518  23146822.63917  23146824.65318
 -12515729.05408  -9752517.06808  20262461.98108  20262462.31008
 -20641868.13908 -16084572.65508  19137284.74608  19137285.82408
 -12110016.42908  -9436377.76808  19233169.32408  19233169.87008
   2434954.09608   1897362.30808  19692681.93308  19692683.37308
 93 04 09 14 38 00.0000000  0  6 01 18 29 14 25 15
 -10770387.75108  -8392517.46608  22338893.36208  22338897.21408
   -327679.18708   -255335.14607  23084467.80808  23084469.48707
 -12730276.75308  -9919697.20508  20221635.01008  20221635.37708
 -20934066.42808 -16312259.68608  19081681.31108  19081682.41008
 -11874270.44808  -9252679.78608  19278030.43708  19278031.02108
   2689836.91208   2095972.11908  19741184.69108  19741186.09908
 93 04 09 14 40 00.0000000  0  6 01 18 29 14 25 15
 -10524121.57208  -8200622.28408  22385756.72308  22385760.74908
   -654084.69307   -509677.44308  23022355.05707  23022357.15208
 -12942051.79808 -10084716.82308  20181335.62508  20181336.02108
 -21220939.92708 -16535797.54008  19027091.13708  19027092.24208
 -11632385.48308  -9064198.17908  19324059.77108  19324060.38408
   2952226.32708   2300431.23008  19791115.84008  19791117.35108
 93 04 09 14 42 00.0000000  0  6 01 18 29 14 25 15
 -10276742.12708  -8007859.62408  22432832.06908  22432836.13508
   -978908.28208   -762786.86408  22960543.56708  22960545.51708
 -13151481.23608 -10247908.67608  20141482.61308  20141482.97508
 -21501671.99308 -16754549.84908  18973669.63208  18973670.76108
 -11384447.00508  -8870999.55608  19371241.03808  19371241.72208
   3221914.51508   2510577.68908  19842435.91408  19842437.51008
 93 04 09 14 44 00.0000000  0  5 01 29 14 25 15
 -10028432.54308  -7814372.15208  22480084.22308  22480088.44108
 -13358346.83508 -10409102.70608  20102117.41408  20102117.83708
 -21776265.34609 -16968518.74208  18921416.28209  18921417.41408
 -11130118.32008  -8672821.55608  19419638.34608  19419639.07308
   3498748.35808   2726292.17508  19895115.84908  19895117.45908
 93 04 09 14 46 00.0000000  0  6 01 18 29 14 25 15
  -9778811.37208  -7619862.72208  22527585.89608  22527590.34508
        -0.04218        -0.74318  22837811.80118  22837813.75218
 -13562644.62908 -10568295.84608  20063240.88708  20063241.31108
 -22044550.14009 -17177571.88708  18870363.48509  18870364.59608
 -10869856.70808  -8470020.50408  19469164.63308  19469165.43508
   3782476.03808   2947378.48108  19949107.55808  19949109.19208
 93 04 09 14 48 00.0000000  0  5 01 14 29 25 15
  -9528272.52608  -7424638.21108  22575262.31908  22575266.77508
 -22306273.91709 -17381512.56408  18820559.20009  18820560.34408
 -13764447.73708 -10725545.10208  20024839.08008  20024839.53808
 -10603869.65708  -8262758.07608  19519780.43308  19519781.29408
   4072886.13808   3173671.85908  20004370.94508  20004372.63908
 93 04 09 14 50 00.0000000  0  6 01 18 14 29 25 15
  -9276521.48308  -7228469.17408  22623169.44608  22623174.12108
        -0.36218        -0.97517  22716142.25718  22716143.83817
 -22561776.79209 -17580605.78008  18771938.63909  18771939.77908
 -13963864.81508 -10880935.12208  19986891.33008  19986891.83908
 -10332190.67708  -8051060.38408  19571479.42908  19571480.34608
   4369786.95508   3405022.92708  20060869.49508  20060871.21508
 93 04 09 14 52 00.0000000  0  6 01 18 14 29 25 15
  -9023484.65608  -7031298.22808  22671321.30708  22671325.96808
   -317682.17207   -247545.36308  22655689.11007  22655691.50708
 -22810642.22109 -17774526.96808  18724581.17809  18724582.40208
 -14161017.37208 -11034560.57108  19949374.56008  19949375.05108
 -10055119.18808  -7835160.76908  19624204.58308  19624205.55608
   4672938.30808   3641244.52708  20118557.40608  20118559.27308
 93 04 09 14 54 00.0000000  0  6 01 18 14 29 25 15
  -8769696.58808  -6833541.93208  22719616.02008  22719620.90408
   -633845.71607   -493906.79907  22595525.35207  22595527.68507
 -23052662.39709 -17963114.18408  18678526.33709  18678527.60608
 -14355512.02208 -11186114.91208  19912363.49008  19912364.06808
  -9772852.69108  -7615213.10408  19677918.33608  19677919.30008
   4982092.12308   3882143.35408  20177387.56408  20177389.52108
 93 04 09 14 56 00.0000000  0  6 01 18 14 29 25 15
  -8514668.38808  -6634819.31408  22768146.84808  22768151.67808
   -948970.28307   -739458.45108  22535559.09207  22535561.68808
 -23287828.51409 -18146360.56908  18633775.75109  18633776.99808
 -14547399.35908 -11335637.57808  19875848.64908  19875849.17208
  -9485423.74208  -7391242.74608  19732614.43308  19732615.51008
   5297045.29908   4127561.17108  20237321.39508  20237323.32108
 93 04 09 14 58 00.0000000  0  6 01 18 14 29 25 15
  -8258507.61508  -6435214.19108  22816892.89008  22816898.38808
  -1262777.53107   -983983.72107  22475843.85907  22475846.04007
 -23516122.57209 -18324252.11108  18590332.89109  18590334.14508
 -14737482.06308 -11483754.04608  19839677.16708  19839677.74508
  -9193264.02108  -7163586.07408  19788210.71708  19788211.85708
   5617536.33508   4377294.21108  20298309.01808  20298310.96808
 93 04 09 15 00 00.0000000  0  6 01 18 14 29 25 15
  -8001578.84108  -6235010.70508  22865785.35908  22865790.91108
  -1575337.06507  -1227536.61808  22416365.81007  22416368.15808
 -23736933.52209 -18496312.66208  18548314.04509  18548315.27308
 -14925429.31508 -11630206.53108  19803912.01608  19803912.64608
  -8896433.31708  -6932289.67908  19844695.94308  19844697.12108
   5943329.32808   4631158.63408  20360305.53708  20360307.56308
 93 04 09 15 02 00.0000000  0  6 01 18 14 29 25 15
  -7743391.36708  -6033826.30108  22914917.44608  22914923.35908
  -1886768.27808  -1470210.27508  22357102.55108  22357104.77808
 -23950350.09609 -18662611.36508  18507702.28809  18507703.54708
 -15110550.06408 -11774456.52808  19768684.76508  19768685.40908
  -8594963.58608  -6697378.46108  19902063.94108  19902065.13308
   6274251.13008   4889019.53508  20423278.04708  20423280.10208
 93 04 09 15 04 00.0000000  0  6 01 18 14 29 25 15
  -7484345.02807  -5831972.82308  22964212.78807  22964218.65708
  -2196763.22708  -1711764.70908  22298112.32608  22298114.57108
 -24156777.15709 -18823463.68808  18468420.55109  18468421.84708
 -15293078.27308 -11916686.37208  19733950.89108  19733951.56708
  -8288890.82808  -6458880.47808  19960307.84208  19960309.06908
   6610061.28108   5150689.52108  20487180.75708  20487182.93608
 93 04 09 15 06 00.0000000  0  6 18 01 14 29 25 15
  -2505811.32008  -1952581.46408  22239302.53408  22239304.70508
  -7224208.55008  -5629269.63107  23013715.90408  23013721.51507
 -24355562.70209 -18978361.59408  18430592.96909  18430594.27408
 -15473768.25908 -12057483.84408  19699566.82308  19699567.48808
  -7978657.20508  -6217140.26108  20019343.55608  20019344.92108
   6950498.93708   5415965.36308  20551964.10108  20551966.37608
 93 04 09 15 08 00.0000000  0  6 18 01 14 29 25 15
  -2813911.64008  -2192659.78508  22180673.09008  22180675.29908
  -6962837.52607  -5425604.71408  23063453.45707  23063459.83208
 -24546738.87909 -19127330.12708  18394213.45009  18394214.83308
 -15652524.22408 -12196774.29008  19665550.73908  19665551.42908
  -7664540.47408  -5972374.25508  20079118.15408  20079119.60808
   7295326.56608   5684661.94908  20617582.81408  20617585.21908
 93 04 09 15 10 00.0000000  0  6 18 01 14 29 25 15
  -3120798.18208  -2431792.26808  22122274.68508  22122276.89608
  -6700319.15907  -5221045.57307  23113409.41807  23113415.79907
 -24730181.41209 -19270272.43408  18359305.54609  18359306.89308
 -15828697.76808 -12334052.45108  19632026.07808  19632026.78708
  -7346466.77808  -5724524.90908  20139645.82908  20139647.32308
   7644311.53908   5956598.00108  20683992.72108  20683995.13608
 93 04 09 15 12 00.0000000  0  6 18 01 14 29 25 15
  -3426508.15908  -2670007.98308  22064100.07008  22064102.34408
  -6436988.98407  -5015853.91107  23163520.08707  23163526.53807
 -24905661.14909 -19407009.97708  18325912.99909  18325914.34508
 -16002602.08508 -12469562.38408  19598933.26708  19598933.93808
  -7024630.82908  -5473743.95008  20200889.43408  20200890.98208
   7997214.07308   6231586.69408  20751148.07108  20751150.52208
 93 04 09 15 14 00.0000000  0  6 18 01 14 29 25 15
  -3731327.38608  -2907529.61108  22006094.96008  22006097.34508
  -6172705.00708  -4809919.01707  23213812.34608  23213818.78807
 -25073198.36509 -19537558.53308  18294031.78709  18294033.17208
 -16174441.63308 -12603463.40308  19566233.36308  19566234.05008
  -6699104.92608  -5220087.73408  20262835.17908  20262836.87208
   8353819.46108   6509460.71508  20819008.02008  20819010.58508
 93 04 09 15 16 00.0000000  0  6 18 01 14 29 25 15
  -4035115.52808  -3144247.65308  21948286.03208  21948288.40008
  -5907319.01107  -4603125.39007  23264314.03407  23264320.73207
 -25232624.17009 -19661786.50308  18263694.08409  18263695.47408
 -16344185.99008 -12735731.80708  19533932.17608  19533932.85608
  -6370256.90008  -4963842.87308  20325413.17808  20325414.90908
   8713853.85908   6790006.69108  20887520.51808  20887523.11808
 93 04 09 15 18 00.0000000  0  6 15 18 01 14 29 25
   9077036.96408   7073006.18808  20956632.19808  20956634.92308
  -4338081.11308  -3380324.67408  21890633.55908  21890635.99608
  -5640880.61807  -4395511.84807  23315016.10007  23315023.24807
 -25383828.66609 -19779608.27108  18234920.91709  18234922.33308
 -16511593.07808 -12866178.96708  19502075.67108  19502076.43508
  -6038494.84408  -4705327.35708  20388545.61108  20388547.43408
 93 04 09 15 20 00.0000000  0  7 18 15 01 14 22 29 25
  -4640120.69908  -3615680.10708  21833157.36108  21833159.65108
   9443156.41008   7358293.74808  21026302.67008  21026305.52808
  -5373878.75907  -4187459.13107  23365825.67007  23365832.52207
 -25526817.62109 -19891028.31908  18207711.05409  18207712.50408
         0.02618         0.34418  19429238.32418  19429240.29218
 -16677277.37308 -12995283.68508  19470547.06908  19470547.83708
  -5703622.61308  -4444388.31608  20452270.01408  20452271.94208
 93 04 09 15 22 00.0000000  0  7 18 15 19 14 22 29 25
  -4941134.31108  -3850236.12108  21775876.28908  21775878.71908
   9812007.73108   7645710.02008  21096493.01508  21096495.96208
        -0.26218        -0.10017  22991936.25718  22991940.06917
 -25661792.24609 -19996203.43809  18182026.32609  18182027.83309
   -150995.55008   -117658.56308  19400504.87408  19400506.81008
 -16840618.14208 -13122562.26008  19439464.38308  19439465.20508
  -5365944.32208  -4181262.73508  20516528.34708  20516530.33008
 93 04 09 15 24 00.0000000  0  7 18 15 19 14 22 29 25
  -5241226.63208  -4084074.29908  21718770.60408  21718772.96308
  10183371.40208   7935083.95508  21167161.44308  21167164.42508
   -391927.86408   -305398.31507  22917354.84808  22917358.75507
 -25788246.59209 -20094739.37209  18157962.96509  18157964.46209
   -292858.60808   -228201.21208  19373509.18508  19373511.21508
 -17001811.93708 -13248167.86608  19408790.29608  19408791.13908
  -5025362.38708  -3915874.57908  20581339.27908  20581341.35608
 93 04 09 15 26 00.0000000  0  7 18 19 15 14 22 29 25
  -5540552.26208  -4317315.08008  21661810.89208  21661813.19508
   -781412.00108   -608892.49508  22843238.57708  22843242.57408
  10556990.20308   8226215.11208  21238259.01608  21238262.05908
 -25906211.54809 -20186660.20109  18135515.01009  18135516.57509
   -425530.97408   -331582.28608  19348262.51008  19348264.55108
 -17161161.79808 -13372336.64708  19378467.10108  19378467.93408
  -4682264.60708  -3648526.03208  20646628.82108  20646630.94508
 93 04 09 15 28 00.0000000  0  7 18 19 15 14 22 29 25
  -5839242.81108  -4550060.96408  21604971.93908  21604974.31708
  -1168158.60308   -910253.65907  22769643.32708  22769647.23907
  10932587.90608   8518888.24408  21309733.16208  21309736.31308
 -26015538.97709 -20271850.48409  18114710.78809  18114712.35909
   -548976.92908   -427773.95008  19324771.57808  19324773.57008
 -17318301.99808 -13494783.62208  19348564.36708  19348565.22208
  -4336902.57708  -3379413.15608  20712349.30008  20712351.54908
 93 04 09 15 30 00.0000000  0  7 18 19 15 14 22 29 25
  -6136970.55308  -4782056.56608  21548316.12908  21548318.60308
  -1551799.77008  -1209194.79507  22696638.78108  22696642.64707
  11309915.85508   8812909.61708  21381536.60108  21381539.83108
 -26115980.45209 -20350116.65809  18095597.45209  18095599.02109
   -663142.03308   -516733.79408  19303046.72008  19303048.66508
 -17473285.47808 -13615550.05208  19319071.95708  19319072.80708
  -3989485.69208  -3108699.11008  20778460.84208  20778463.24708
 93 04 09 15 32 00.0000000  0  7 18 19 15 14 22 29 25
  -6433888.56308  -5013421.24208  21491814.56808  21491816.99908
  -1932679.50508  -1505984.27308  22624160.09708  22624164.00708
  11688742.00008   9108098.40808  21453625.14108  21453628.53208
 -26207900.83809 -20421743.01109  18078105.62109  18078107.22109
   -767960.15208   -598410.28208  19283100.48108  19283102.48208
 -17626359.65608 -13734828.70308  19289942.99608  19289943.86008
  -3639732.06708  -2836164.24308  20845017.09008  20845019.55208
 93 04 09 15 34 00.0000000  0  6 18 15 14 22 29 25
  -6730313.43408  -5244401.66008  21435406.71808  21435409.18308
  12068795.99508   9404243.97408  21525947.37408  21525950.87108
 -26291072.95809 -20486552.55109  18062278.61509  18062280.25009
   -863415.49908   -672791.08508  19264935.91508  19264937.94608
 -17777444.09608 -13852556.91808  19261192.69808  19261193.58208
  -3288260.46708  -2562290.72108  20911900.21808  20911902.84908
 93 04 09 15 36 00.0000000  0  7 19 18 14 25 22 29 15
        -0.23218        -0.73218  22480813.93318  22480818.16318
  -7026197.38608  -5474960.61908  21379101.97708  21379104.48708
 -26365543.57309 -20544581.71509  18048107.45609  18048109.08209
  -2935411.73008  -2287344.14008  20979045.49108  20979048.21008
   -949541.40508   -739902.19808  19248546.76208  19248548.73608
 -17926765.24608 -13968911.13208  19232777.88508  19232778.82308
  12449761.06508   9701099.42208  21598443.01908  21598446.60208
 93 04 09 15 38 00.0000000  0  7 19 18 14 25 22 29 15
   -372725.69808   -290436.18308  22409886.83008  22409890.67108
  -7321360.61208  -5704957.95408  21322934.26508  21322936.70108
 -26431536.49309 -20596004.87909  18035549.45909  18035551.13909
  -2580962.73808  -2011150.62808  21046495.27408  21046498.12608
  -1026279.34708   -799698.03708  19233944.09208  19233946.10208
 -18074035.35708 -14083667.13608  19204753.37208  19204754.32408
  12831424.98508   9998499.43208  21671071.51008  21671075.29308
 93 04 09 15 40 00.0000000  0  7 19 18 14 25 22 29 15
   -742375.96208   -578475.41308  22339544.65608  22339548.72408
  -7615806.76208  -5934396.53708  21266903.04908  21266905.49308
 -26488342.80909 -20640269.64809  18024739.65809  18024741.37709
  -2225049.54708  -1733816.19208  21114223.73208  21114226.69508
  -1093560.85608   -852125.26908  19221140.88608  19221142.92808
 -18219406.10308 -14196943.12108  19177090.27808  19177091.26908
  13213590.55208  10296290.28108  21743795.72408  21743799.45208
 93 04 09 15 42 00.0000000  0  7 19 18 14 25 22 29 15
  -1109257.94508   -864357.62308  22269729.52108  22269733.82708
  -7909825.08408  -6163501.74708  21210953.31308  21210955.75108
 -26536207.47309 -20677566.89609  18015631.41709  18015633.17409
  -1868069.73908  -1455650.61308  21182155.19508  21182158.22508
  -1151428.85208   -897217.28108  19210129.02308  19210131.00608
 -18362896.56808 -14308753.96308  19149784.98608  19149786.00608
  13595960.15508  10594240.11808  21816558.56408  21816562.39108
 93 04 09 15 44 00.0000000  0  7 19 18 14 25 22 29 15
  -1473123.96908  -1147889.77108  22200488.20308  22200492.20508
  -8203457.26608  -6392306.05908  21155076.86508  21155079.37408
 -26575458.46809 -20708152.19409  18008162.31309  18008164.05609
  -1510330.75508  -1176893.48308  21250231.07308  21250234.22508
  -1199895.24308   -934983.32408  19200906.17908  19200908.16008
 -18504283.02108 -14418925.31008  19122880.18308  19122881.18108
  13978272.07308  10892144.97708  21889310.51608  21889314.60308
 93 04 09 15 46 00.0000000  0  7 19 18 14 25 22 29 15
  -1834326.33708  -1429346.31208  22131754.04908  22131757.87508
  -8496654.19608  -6620771.22308  21099283.36908  21099285.80508
 -26605982.93109 -20731937.59909  18002353.80309  18002355.54209
  -1151839.44908   -897550.15408  21318450.04708  21318453.35908
  -1238941.67308   -965409.17608  19193475.95608  19193477.97908
 -18643998.61508 -14527794.68208  19096293.23108  19096294.26008
  14360308.19408  11189834.97408  21962009.96608  21962014.17208
 93 04 09 15 48 00.0000000  0  7 19 18 14 25 22 29 15
  -2192626.05908  -1708541.09508  22063571.89008  22063575.97508
  -8789378.85208  -6848868.34608  21043579.80708  21043582.22408
 -26627530.06909 -20748727.68809  17998253.61009  17998255.39709
   -792002.90108   -617158.60608  21386925.10108  21386928.47308
  -1268569.08908   -988495.55008  19187838.17008  19187840.18208
 -18782083.82108 -14635393.62508  19070016.54508  19070017.59808
  14741836.97408  11487129.57808  22034612.89108  22034617.24808
 93 04 09 15 50 00.0000000  0  7 19 25 14 15 22 29 18
  -2547598.72408  -1985143.25508  21996022.89008  21996026.94908
   -432010.43108   -336645.56808  21455429.85308  21455433.30308
 -26639974.31609 -20758424.62409  17995885.64509  17995887.48709
  15122664.91608  11783878.09908  22107082.55308  22107086.78108
  -1288750.51608  -1004221.42208  19183997.75208  19183999.85408
 -18917943.10608 -14741258.09608  19044163.50608  19044164.53408
  -9081733.64108  -7076677.26108  20987946.51508  20987949.00308
 93 04 09 15 52 00.0000000  0  7 19 25 14 15 22 29 18
  -2899882.62708  -2259650.24608  21928985.40608  21928989.64108
    -71643.74408    -55840.97008  21524005.73808  21524009.45208
 -26643384.09609 -20761081.72709  17995236.86109  17995238.73309
  15502599.34208  12079930.28808  22179381.92408  22179386.44908
  -1299466.11908  -1012571.32508  19181958.70108  19181960.81308
 -19051699.71608 -14845484.12508  19018710.55308  19018711.59108
  -9373621.80908  -7304122.59808  20932402.06908  20932404.58708
 93 04 09 15 54 00.0000000  0  7 19 25 14 15 22 29 18
  -3249197.15308  -2531843.30908  21862513.13508  21862517.12308
    288978.61808    225162.83708  21592630.47908  21592634.24108
 -26637747.18809 -20756689.46409  17996309.72109  17996311.60509
  15881440.57308  12375130.68508  22251473.47708  22251478.09308
  -1300713.80108  -1013543.63608  19181721.42008  19181723.46208
 -19183903.08408 -14948499.82008  18993553.14408  18993554.26208
  -9665041.75308  -7531203.11708  20876946.79308  20876949.23808
 93 04 09 15 56 00.0000000  0  7 19 25 14 22 29 15 18
  -3595392.03708  -2801605.62708  21796634.62108  21796638.57908
    650068.71308    506531.08908  21661344.05308  21661348.05108
 -26623259.81809 -20745400.74009  17999066.64009  17999068.55609
  -1292557.32408  -1007188.03208  19183273.61208  19183275.68408
 -19314186.14808 -15050019.18108  18968761.20208  18968762.31908
  16258932.47708  12669279.69508  22323308.04208  22323312.87308
  -9955956.09808  -7757889.69208  20821587.62808  20821590.10008
 93 04 09 15 58 00.0000000  0  7 19 25 14 22 29 15 18
  -3938611.04208  -3069049.05908  21731322.30108  21731326.18808
   1010907.61108    787703.59808  21730009.92808  21730014.13208
 -26599656.88509 -20727008.97208  18003558.19109  18003560.13708
  -1275007.21608   -993512.70508  19186613.32808  19186615.43208
 -19442123.03508 -15149710.36308  18944415.72408  18944416.86108
  16634877.28508  12962223.17708  22394848.60008  22394853.50008
 -10246635.52008  -7984393.23508  20766273.31208  20766275.84308
 93 04 09 16 00 00.0000000  0  7 19 25 14 22 29 15 18
  -4278605.13608  -3333979.48608  21666623.48108  21666627.56008
   1371575.88908   1068743.12808  21798643.43608  21798647.71608
 -26567211.12009 -20701726.68908  18009732.50309  18009734.47108
  -1248081.38008   -972531.62808  19191737.25508  19191739.35108
 -19568278.22808 -15248013.21308  18920409.21408  18920410.38608
  17009084.18708  13253812.39307  22466058.15508  22466063.08107
 -10536403.21108  -8210186.31908  20711132.42108  20711134.92008
 93 04 09 16 02 00.0000000  0  7 19 25 14 22 29 18 15
  -4615743.73508  -3596684.84708  21602468.10208  21602472.18308
   1732110.32608   1349678.33008  21867251.38908  21867255.88908
 -26525641.60809 -20669335.00008  18017643.02809  18017645.05008
  -1211846.01908   -944296.40508  19198632.67208  19198634.88308
 -19692565.66308 -15344860.65208  18896758.19508  18896759.41008
 -10825910.64108  -8435776.55108  20656041.02208  20656043.55108
  17381321.48408  13543866.85308  22536893.09608  22536898.37508
 93 04 09 16 04 00.0000000  0  7 19 25 14 22 29 18 15
  -4949750.58808  -3856949.84608  21538908.67208  21538912.67808
   2092312.60308   1630354.69708  21935796.18108  21935800.87508
 -26475082.20009 -20629938.21208  18027264.27509  18027266.33708
  -1166352.94408   -908847.37308  19207289.85908  19207292.03308
 -19814449.99408 -15439835.53808  18873564.44908  18873565.66308
 -11115017.83508  -8661054.91908  20601025.71908  20601028.38608
  17751382.67408  13832225.67507  22607313.96208  22607319.07607
 93 04 09 16 06 00.0000000  0  7 19 25 15 22 29 18 14
  -5280563.34508  -4114725.92808  21475956.94608  21475960.96708
   2452365.73708   1910914.83608  22004312.49808  22004317.36308
  18119062.37007  14118728.92107  22677281.06207  22677286.84007
  -1111659.36908   -866229.09008  19217697.77408  19217699.93708
 -19934407.59308 -15533309.08708  18850737.34508  18850738.58508
 -11403658.34308  -8885969.64308  20546099.30308  20546101.89008
 -26415704.36709 -20583669.91008  18038563.64609  18038565.74108
 93 04 09 16 08 00.0000000  0  7 19 25 15 14 22 29 18
  -5608254.72208  -4370069.81008  21413599.37808  21413603.27208
   2811814.39308   2191003.94708  22072713.83808  22072718.98608
  18484197.18308  14403248.91808  22746764.54008  22746770.32608
 -26347254.01109 -20530332.11308  18051589.36409  18051591.50808
  -1047791.26208   -816461.82608  19229851.50508  19229853.73108
 -20052217.35308 -15625108.99208  18828318.96308  18828320.23908
 -11692047.26008  -9110688.33908  20491220.83108  20491223.35708
 93 04 09 16 10 00.0000000  0  6 19 25 14 22 29 18
  -5932907.06308  -4623045.67908  21351820.14008  21351824.04008
   3170572.16008   2470554.67808  22140983.69608  22140989.04308
 -26269969.66609 -20470110.71108  18066296.29809  18066298.47308
   -974786.98408   -759575.49608  19243743.88708  19243746.10808
 -20167674.39108 -15715075.61208  18806348.31608  18806349.57708
 -11980001.69308  -9335068.47808  20436424.91408  20436427.53408
 93 04 09 16 12 00.0000000  0  7 19 15 25 14 22 18 29
  -6254511.26008  -4873646.36308  21290620.88008  21290624.93808
         0.31217        -0.31418  22884139.03417  22884144.98618
   3528495.31308   2749455.03008  22209094.93408  22209100.35108
 -26183831.97009 -20402990.60808  18082687.85509  18082690.08608
   -892759.96708   -695658.47008  19259353.20108  19259355.53808
 -12266826.45508  -9558568.32608  20381843.98208  20381846.67508
 -20281365.05008 -15803665.83708  18784713.77608  18784715.03608
 93 04 09 16 14 00.0000000  0  7 19 15 25 22 29 18 14
  -6572920.69808  -5121757.58408  21230029.59508  21230033.64108
    356357.39607    277679.99607  22951951.65907  22951957.82007
   3885757.55408   3027840.38908  22277080.29208  22277086.04808
   -801780.15808   -624765.24908  19276666.21508  19276668.58008
 -20392763.47908 -15890469.91608  18763515.46408  18763516.74008
 -12553420.40708  -9781888.31908  20327307.03008  20327309.58708
 -26089026.83709 -20329116.63608  18100728.80109  18100731.05708
 93 04 09 16 16 00.0000000  0  6 19 25 22 18 29 14
  -6888287.65508  -5367498.02508  21170017.06508  21170021.24408
   4241704.17608   3305200.55907  22344815.31608  22344821.14907
   -701961.51808   -546984.65608  19295661.23208  19295663.59008
 -12839714.68308 -10004974.81308  20272827.08708  20272829.66808
 -20501927.13008 -15975532.60708  18742742.37708  18742743.72708
 -25985373.87909 -20248348.25308  18120453.43509  18120455.72808
 93 04 09 16 18 00.0000000  0  6 19 25 22 18 29 14
  -7200648.94808  -5610896.37908  21110576.66808  21110580.81608
   4596597.11108   3581739.62307  22412349.82708  22412355.88707
   -593391.13808   -462384.54808  19316321.63108  19316324.02508
 -13125352.60708 -10227549.86208  20218472.02508  20218474.66208
 -20608802.33108 -16058812.08908  18722404.81808  18722406.16008
 -25873048.50609 -20160822.16108  18141828.39609  18141830.72808
 93 04 09 16 20 00.0000000  0  7 19 15 29 18 22 14 25
  -7509754.80008  -5851758.03208  21051755.80008  21051759.85008
        -0.07618        -0.29517  23151435.76518  23151442.08817
 -20713230.68708 -16140184.93908  18702532.83908  18702534.21508
 -13410309.96608 -10449594.58908  20164246.50308  20164249.14408
   -476209.99508   -371074.75008  19338620.52708  19338622.98708
 -25752173.75009 -20066634.20808  18164830.20309  18164832.58808
   4950396.34108   3857426.47607  22479676.31908  22479682.55307
 93 04 09 16 22 00.0000000  0  7 15 18 22 19 29 14 25
    341954.26107    266456.95006  23216507.97807  23216514.58406
 -13694422.79908 -10670981.25408  20110181.70408  20110184.32008
   -350415.30008   -273053.07508  19362558.62908  19362561.07708
  -7815659.45308  -6090125.25808  20993544.12508  20993548.05908
 -20815226.04708 -16219661.96008  18683123.86908  18683125.30008
 -25622709.49609 -19965753.14708  18189466.53309  18189468.96908
   5302982.54108   4132168.04207  22546771.91408  22546778.21807
 93 04 09 16 24 00.0000000  0  6 25 18 19 22 29 14
   5654313.59908   4405931.45507  22613628.81008  22613635.50407
 -13977912.06308 -10891882.04608  20056235.50708  20056238.17208
  -8118633.48808  -6326208.89408  20935890.01908  20935894.04708
   -216155.88108   -168435.53308  19388107.49408  19388110.05008
 -20914787.62208 -16297242.51908  18664177.98008  18664179.45608
 -25484988.02409 -19858437.91708  18215674.19309  18215676.69208
 93 04 09 16 26 00.0000000  0  7 25 19 18 22 29 14 28
   6004097.58107   4678489.51307  22680191.01407  22680198.07507
  -8418535.19908  -6559898.51908  20878820.54708  20878824.59208
 -14261110.70808 -11112556.37808  20002344.64508  20002347.39508
    -73600.07008    -57353.30708  19415235.16308  19415237.83708
 -21011858.18808 -16372882.05008  18645706.13208  18645707.60708
 -25338656.90909 -19744413.88108  18243520.24409  18243522.79708
         0.10217         0.49417  23274503.87017  23274512.74217
 93 04 09 16 28 00.0000000  0  7 25 19 18 22 29 14 28
   6352168.72107   4949712.89707  22746427.57207  22746434.76107
  -8715450.10108  -6791260.71108  20822319.52508  20822323.58208
 -14543665.25208 -11332728.80408  19948576.41808  19948579.12508
     77117.44908     60088.66308  19443915.93108  19443918.66208
 -21106761.35708 -16446832.69708  18627646.82008  18627648.32808
 -25184033.63009 -19623928.41608  18272944.25509  18272946.83608
   -280782.80007   -218791.08907  23221072.26207  23221081.12807
 93 04 09 16 30 00.0000000  0  7 25 19 18 22 29 14 28
   6698836.27307   5219842.67507  22812396.73107  22812404.06007
  -9009630.65908  -7020492.24808  20766338.82108  20766342.74608
 -14825219.21208 -11552121.55708  19894998.43408  19895001.17908
    235886.10708    183804.22208  19474128.78508  19474131.60408
 -21199372.40508 -16518997.26708  18610023.62808  18610025.15908
 -25021304.39409 -19497126.61908  18303910.79509  18303913.41108
   -563032.88007   -438726.08107  23167361.63007  23167370.41007
 93 04 09 16 32 00.0000000  0  7 25 19 18 22 29 14 28
   7043480.45807   5488395.88607  22877980.93507  22877988.52507
  -9300401.71608  -7247067.05808  20711006.95308  20711010.77108
 -15106190.84608 -11771060.55608  19841531.40208  19841534.13708
    402620.39308    313726.78808  19505857.47008  19505860.35208
 -21289181.96808 -16588978.84008  18592933.52608  18592935.07408
 -24850520.28609 -19364048.31508  18336410.10309  18336412.74008
   -846733.34907   -659791.33907  23113375.53907  23113384.23607
 93 04 09 16 34 00.0000000  0  7 25 19 18 22 29 14 28
   7386395.34007   5755601.51607  22943236.02107  22943243.75607
  -9587977.72408  -7471152.27908  20656283.06808  20656286.89808
 -15386041.24208 -11989125.86108  19788277.73208  19788280.45108
    577277.10508    449822.70008  19539093.68608  19539096.61108
 -21376157.05408 -16656751.74408  18576382.76108  18576384.35208
 -24671562.04709 -19224600.57208  18370464.87609  18370467.61908
  -1131301.81207   -881532.85107  23059223.63007  23059232.27507
 93 04 09 16 36 00.0000000  0  7 25 19 18 22 29 14 28
   7727659.84407   6021521.15707  23008177.05007  23008184.97407
  -9872586.27808  -7692925.20008  20602123.87808  20602127.73508
 -15664841.60008 -12206372.94408  19735223.83808  19735226.58708
    759657.11608    591936.78008  19573799.62408  19573802.57108
 -21460415.97708 -16722408.16208  18560348.97408  18560350.59108
 -24484813.60409 -19079082.55008  18406002.09509  18406004.90308
  -1416955.29007  -1104119.77107  23004865.57907  23004874.23507
 93 04 09 16 38 00.0000000  0  7 25 19 18 22 29 14 28
   8067249.88107   6286136.07407  23072799.53607  23072807.59907
 -10154246.82508  -7912400.96808  20548525.65208  20548529.55608
 -15942904.74408 -12423045.57508  19682310.17708  19682312.92608
    949643.85008    739978.15408  19609953.13908  19609956.11908
 -21541872.77308 -16785881.11508  18544848.30408  18544849.98408
 -24290361.92608 -18927562.01008  18443005.21208  18443008.06508
  -1703443.12308  -1327356.71207  22950348.43508  22950357.17307
 93 04 09 16 40 00.0000000  0  6 28 19 18 22 29 14
  -1990398.91508  -1550958.25807  22895742.38008  22895750.83207
 -10433012.91208  -8129621.28808  20495478.18008  20495482.06908
 -16219909.70308 -12638893.65208  19629598.01208  19629600.74108
   1147023.13108    893779.93308  19647513.34608  19647516.44608
 -21620513.32708 -16847159.59508  18529883.57808  18529885.31808
 -24088091.89108 -18769949.24908  18481496.09208  18481498.98608
 93 04 09 16 42 00.0000000  0  6 28 19 18 22 29 14
  -2278038.92008  -1775092.96807  22841006.15608  22841014.35607
 -10708859.46508  -8344566.67908  20442986.33908  20442990.29108
 -16495970.53708 -12854006.06508  19577065.39608  19577068.18008
   1351633.17008   1053216.02708  19686449.54508  19686452.74608
 -21696121.11808 -16906074.86108  18515496.00608  18515497.72208
 -23878202.24108 -18606399.14508  18521436.96208  18521439.91508
 93 04 09 16 44 00.0000000  0  6 28 19 18 22 29 14
  -2566029.75808  -1999501.02307  22786202.86508  22786211.03407
 -10981761.86708  -8557217.91408  20391054.81708  20391058.76208
 -16771078.15808 -13068375.70608  19524714.22208  19524717.02108
   1563316.05908   1218163.42008  19726731.74708  19726734.93608
 -21769001.47208 -16962864.84508  18501627.42608  18501629.16308
 -23661265.56308 -18437357.84508  18562718.88508  18562721.90908
 93 04 09 16 46 00.0000000  0  6 28 19 18 22 29 14
  -2854251.26108  -2224088.84908  22731355.79708  22731364.05208
 -11251529.40308  -8767426.40608  20339719.80408  20339723.67508
 -17045002.50908 -13281823.30308  19472588.13008  19472590.99208
   1781885.45308   1388476.91808  19768324.37708  19768327.61708
 -21839253.26308 -17017606.61508  18488259.09908  18488260.82908
 -23436917.10308 -18262541.12808  18605411.19508  18605414.27508
 93 04 09 16 48 00.0000000  0  6 28 19 18 22 29 14
  -3142540.98708  -2448729.93408  22676495.97008  22676504.03708
 -11518493.31808  -8975450.24708  20288918.24708  20288922.14008
 -17317946.50308 -13494506.98008  19420648.60508  19420651.48608
   2007114.33608   1563979.62408  19811184.25408  19811187.59308
 -21906613.69408 -17070095.38508  18475440.92008  18475442.68108
 -23205695.70408 -18082368.88708  18649411.38708  18649414.54608
 93 04 09 16 50 00.0000000  0  6 28 19 18 22 29 14
  -3431039.58108  -2673533.81108  22621596.42208  22621604.40308
 -11782869.24008  -9181457.46108  20238609.11708  20238613.04708
 -17589468.32708 -13706082.46708  19368979.75408  19368982.64408
   2238902.82808   1744593.71308  19855292.41008  19855295.75808
 -21970558.15208 -17119922.36308  18463272.75808  18463274.57108
 -22967784.65608 -17896983.92608  18694684.53908  18694687.79608
 93 04 09 16 52 00.0000000  0  6 28 19 18 22 29 14
  -3719215.52408  -2898086.17908  22566758.15608  22566766.24508
 -12044477.13908  -9385307.80008  20188826.95008  20188830.83708
 -17859721.49408 -13916669.37408  19317552.43908  19317555.25108
   2477128.37308   1930223.67208  19900625.47508  19900628.87908
 -22031318.40508 -17167268.13408  18451710.58008  18451712.41208
 -22722836.12008 -17706115.22808  18741296.99308  18741300.28208
 93 04 09 16 54 00.0000000  0  7 31 28 19 18 22 29 14
         0.33018        -0.00817  23004212.05418  23004221.93817
  -4006960.28508  -3122302.56108  22512001.91408  22512009.77708
 -12303348.25908  -9587025.58508  20139565.44808  20139569.28408
 -18128501.46708 -14126108.34608  19266405.32408  19266408.18108
   2721600.59008   2120721.14308  19947147.30008  19947150.81208
 -22088974.03108 -17212194.72608  18440739.20708  18440741.05208
 -22471329.38108 -17510136.25408  18789157.33908  18789160.66308
 93 04 09 16 56 00.0000000  0  7 19 18 22 31 29 14 28
 -12559490.79608  -9786617.18008  20090823.08808  20090826.95508
 -18395786.10308 -14334382.13708  19215542.80608  19215545.68608
   2972042.56208   2315870.35708  19994805.09108  19994808.75808
   -332742.94907   -259279.94807  22940892.64807  22940902.43407
 -22143640.22408 -17254791.89408  18430336.71408  18430338.60508
 -22213502.21608 -17309232.27408  18838220.44608  18838223.83708
  -4294156.90508  -3346091.84708  22457350.00908  22457357.72708
 93 04 09 16 58 00.0000000  0  8 19 18 22 31 29 14 27 28
 -12813129.68308  -9984257.85708  20042557.25908  20042561.13908
 -18661818.57208 -14541680.22808  19164918.52508  19164921.41508
   3228243.49508   2515507.05108  20043558.77408  20043562.59108
   -669249.25008   -521491.95608  22876857.32708  22876867.00208
 -22195034.48208 -17294839.49208  18420556.80908  18420558.76208
 -21949305.47908 -17103365.00208  18888495.63808  18888499.14608
        -0.54917        -0.23117  23231274.26117  23231280.17617
  -4580647.11008  -3569330.75208  22402832.52508  22402840.28108
 93 04 09 17 00 00.0000000  0  8 31 19 18 22 29 14 27 28
  -1009405.84907   -786548.38407  22812126.92207  22812136.23307
 -13063995.16808 -10179737.47008  19994819.13308  19994823.06808
 -18926554.33308 -14747967.91108  19114541.05108  19114543.96908
   3490000.99008   2719473.50508  20093369.89908  20093373.77808
 -22243183.26408 -17332358.15808  18411394.34908  18411396.36108
 -21679142.52108 -16892848.73908  18939906.12908  18939909.70408
   -355722.96007   -277186.71408  23163582.74107  23163588.79008
  -4866575.92508  -3792132.24108  22348422.01008  22348429.69708
 93 04 09 17 02 00.0000000  0  8 31 19 18 22 29 14 27 28
  -1353161.35908  -1054409.25807  22746712.21008  22746721.39007
 -13312423.44908 -10373317.97608  19947544.86808  19947548.75308
 -19189987.96508 -14953240.94408  19064411.36708  19064414.30108
   3757047.70308   2927561.41408  20144187.55208  20144191.48708
 -22288215.82708 -17367448.59608  18402825.17808  18402827.20608
 -21403254.92108 -16677871.71908  18992406.10508  18992409.72008
   -711154.68508   -554146.64307  23095946.50908  23095952.28007
  -5151426.69408  -4014093.70208  22294216.53408  22294224.26608
 93 04 09 17 04 00.0000000  0  7 31 28 19 18 22 29 14
  -1700380.59708  -1324969.43008  22680638.15008  22680647.66208
  -5435317.89608  -4235307.37708  22240193.63908  22240201.25408
 -13558769.47308 -10565275.94608  19900666.72808  19900670.65308
 -19451563.81608 -15157066.34708  19014635.18508  19014638.17708
   4029191.06608   3139620.73208  20195975.05508  20195978.99208
 -22330050.49608 -17400047.20008  18394864.44008  18394866.44608
 -21121781.20908 -16458541.90608  19045969.00508  19045972.71408
 93 04 09 17 06 00.0000000  0  7 31 19 18 22 29 14 28
  -2050960.03908  -1598147.90207  22613925.08008  22613934.06907
 -13802775.40108 -10755410.47108  19854234.05608  19854237.94108
 -19711695.63508 -15359766.51708  18965133.84508  18965136.79608
   4306208.12808   3355477.74808  20248690.00208  20248694.10308
 -22368695.29608 -17430160.17008  18387510.70308  18387512.72908
 -20835071.82208 -16235132.36208  19100528.29008  19100532.08208
  -5718292.74508  -4455806.98808  22186345.10608  22186352.59808
 93 04 09 17 08 00.0000000  0  7 31 19 18 22 29 14 28
  -2404684.84908  -1873777.45108  22546613.20508  22546622.44208
 -14044567.17008 -10943819.59708  19808222.57208  19808226.39808
 -19970372.55208 -15561332.97308  18915909.23608  18915912.20408
   4587977.31908   3575037.70608  20302309.22208  20302313.49508
 -22404135.82308 -17457776.29608  18380766.69808  18380768.74708
 -20543285.73008 -16007766.93608  19156053.60908  19156057.46208
  -5999840.27608  -4675194.40008  22132768.19408  22132775.51008
 93 04 09 17 10 00.0000000  0  8 31 19 18 22 29 14 27 28
  -2761400.29008  -2151737.25308  22478732.58308  22478741.40708
 -14283957.26708 -11130357.32508  19762668.13908  19762672.04608
 -20227243.08608 -15761491.83608  18867028.38208  18867031.37508
   4874315.88008   3798158.19008  20356797.94808  20356802.37608
 -22436099.34808 -17482683.08208  18374684.31908  18374686.47508
 -20246055.52108 -15776159.35108  19212614.90208  19212618.87808
        -0.00517        -0.33518  22825470.57617  22825477.16518
  -6279716.36908  -4893279.39608  22079509.38008  22079516.74108
 93 04 09 17 12 00.0000000  0  8 31 27 19 18 22 29 14 28
  -3120964.70908  -2431917.02708  22410309.46308  22410318.39108
   -355196.78307   -276777.11407  22757878.92507  22757884.93307
 -14520985.18308 -11315054.40508  19717563.25008  19717567.12908
 -20482037.26608 -15960032.77408  18818542.72008  18818545.72308
   5165023.87308   4024683.40408  20412118.23408  20412122.78108
 -22464138.99208 -17504532.29508  18369348.67508  18369350.84608
 -19944364.33608 -15541075.70308  19270025.11208  19270029.21508
  -6558000.88708  -5110124.32008  22026553.46908  22026560.82208
 93 04 09 17 14 00.0000000  0  8 31 27 19 18 22 29 14 28
  -3483213.06308  -2714188.07508  22341375.51608  22341384.38408
   -710277.37208   -553463.52608  22690309.89508  22690315.87308
 -14756024.91908 -11498202.27708  19672836.71808  19672840.56008
 -20734919.23108 -16157083.68408  18770420.89108  18770423.92608
   5459921.83108   4254473.53308  20468235.79108  20468240.45308
 -22488739.43008 -17523701.61908  18364667.51508  18364669.68308
 -19638265.95908 -15302557.90008  19328274.06008  19328278.23508
  -6834528.87608  -5325600.53408  21973931.89408  21973939.07908
 93 04 09 17 16 00.0000000  0  7 31 28 19 18 22 29 14
  -3847935.16708  -2998386.66708  22271970.96008  22271979.59608
  -7108968.13408  -5539449.17208  21921707.84208  21921715.00508
 -14988863.81308 -11679635.19508  19628528.99608  19628532.88608
 -20985942.60508 -16352686.33808  18722652.74908  18722655.75608
   5758869.30208   4487419.10408  20525123.95608  20525128.81008
 -22509935.87208 -17540218.48008  18360634.06608  18360636.27808
 -19326841.37608 -15059889.81908  19387536.55508  19387540.71408
 93 04 09 17 18 00.0000000  0  8 31 27 19 18 22 29 14 28
  -4215001.13508  -3284411.56808  22202120.21808  22202128.76408
        -0.93018        -0.02217  22555363.50418  22555369.11417
 -15219323.15608 -11859213.93508  19584674.03808  19584677.96508
 -21234766.20708 -16546574.87408  18675303.25108  18675306.26208
   6061646.83308   4723349.12808  20582741.01708  20582745.99008
 -22527233.92408 -17553697.64308  18357342.44608  18357344.73108
 -19011411.58308 -14814100.81708  19447561.20108  19447565.48008
  -7381126.56308  -5751520.51008  21869917.59308  21869924.86308
 93 04 09 17 20 00.0000000  0  8 31 27 28 19 18 22 29 14
  -4584249.38608  -3572137.01708  22131854.18908  22131862.72108
   -354599.47607   -276310.66408  22487885.18607  22487892.02508
  -7650913.09908  -5961743.64408  21818578.81408  21818586.02808
 -15447873.19208 -12037304.90408  19541182.42508  19541186.38808
 -21481187.70308 -16738591.65108  18628410.80508  18628413.80408
   6368060.41908   4962112.43308  20641050.09108  20641055.10908
 -22540998.96208 -17564423.81008  18354723.19308  18354725.54008
 -18692315.85208 -14565455.26308  19508283.42208  19508287.86508
 93 04 09 17 22 00.0000000  0  8 31 27 28 19 18 22 29 14
  -4955512.05108  -3861432.27108  22061205.02508  22061213.58108
   -709131.78107   -552569.76307  22420420.33507  22420426.71507
  -7917853.87908  -6169749.33208  21767781.35208  21767788.77508
 -15674227.74008 -12213685.11808  19498108.58208  19498112.60908
 -21725377.17608 -16928869.21408  18581943.20808  18581946.19308
   6677921.13708   5203561.81408  20700015.05408  20700020.17408
 -22550925.01308 -17572158.56008  18352834.49908  18352836.85208
 -18368884.80808 -14313431.55908  19569830.69008  19569835.28408
 93 04 09 17 24 00.0000000  0  7 31 27 28 18 22 29 14
  -5328699.71808  -4152227.53908  21990189.53808  21990197.94408
  -1063602.64608   -828780.94708  22352966.93708  22352973.40608
  -8182488.20808  -6375957.81208  21717423.17408  21717430.42308
 -21967219.28108 -17117317.65208  18535922.08708  18535925.09208
   6990959.82108   5447487.53108  20759584.70008  20759589.96208
 -22557094.15908 -17576965.85808  18351660.69608  18351663.06908
 -18041720.05508 -14058498.49608  19632088.44508  19632093.17908
 93 04 09 17 26 00.0000000  0  7 31 27 28 18 22 29 14
  -5703634.82808  -4444384.44308  21918841.57308  21918849.89308
  -1418313.90608  -1105179.36408  22285467.52108  22285474.04308
  -8444181.80408  -6579874.81508  21667624.64208  21667631.72608
 -22206746.36809 -17303962.17508  18490341.72609  18490344.69608
   7306992.59408   5693746.28508  20819724.15408  20819729.60008
 -22559670.08308 -17578973.24508  18351170.64508  18351173.04408
 -17711570.16208 -13801239.35508  19694914.23608  19694919.09308
 93 04 09 17 28 00.0000000  0  8 31 27 28 19 18 22 29 14
  -6080163.41808  -4737782.99808  21847190.33408  21847198.57508
  -1772979.47308  -1381542.15408  22217977.11208  22217983.62208
  -8703149.01408  -6781667.36208  21618344.81508  21618351.90508
        -0.36618        -0.72518  19370962.74918  19370966.60418
 -22443662.12908 -17488571.88708  18445258.14308  18445261.17908
   7625810.48308   5942175.24208  20880393.62008  20880399.13708
 -22558126.50908 -17577770.64208  18351464.49008  18351466.96808
 -17377904.60108 -13541240.74308  19758409.16308  19758414.13208
 93 04 09 17 30 00.0000000  0  8 31 27 28 19 18 22 29 14
  -6458019.37808  -5032215.90908  21775286.47108  21775294.70508
  -2127366.96408  -1657688.30507  22150539.23408  22150545.56807
  -8959057.68608  -6981076.64308  21569646.87908  21569653.97308
   -218845.07208   -170529.11808  19329318.04208  19329321.91708
 -22677720.34209 -17670954.93108  18400718.43409  18400721.49708
   7947313.77808   6192696.70608  20941574.07308  20941579.75608
 -22552352.56908 -17573271.65308  18352563.39608  18352565.91108
 -17041215.13808 -13278885.85808  19822479.38308  19822484.48508
 93 04 09 17 32 00.0000000  0  8 22 31 27 19 18 29 14 28
   8271353.58408   6445194.65208  21003237.19908  21003243.07008
  -6836986.16408  -5327514.42508  21703171.25108  21703179.40708
  -2482064.73008  -1934076.26408  22083042.65308  22083049.07808
   -435782.16708   -339571.05808  19288036.31708  19288040.32808
 -22909264.40209 -17851378.92508  18356657.04509  18356660.10008
 -22542719.87408 -17565765.85508  18354396.59808  18354399.18708
 -16701436.98608 -13014124.21308  19887137.43708  19887142.68508
  -9211576.09508  -7177844.18208  21521594.12208  21521601.36008
 93 04 09 17 34 00.0000000  0  8 22 31 27 19 18 29 14 28
   8597753.98408   6699531.99408  21065349.62208  21065355.63908
  -7216871.21008  -5623528.48308  21630881.38508  21630889.46208
  -2836715.12108  -2210427.27408  22015554.99608  22015561.49308
   -650946.55908   -507231.71908  19247091.96008  19247095.97508
 -23137804.39509 -18029462.10908  18313167.38809  18313170.46508
 -22529268.48008 -17555284.47108  18356956.45008  18356959.08608
 -16358918.93708 -12747227.59408  19952316.92008  19952322.26408
  -9460445.26008  -7371768.15208  21474235.77208  21474242.94508
 93 04 09 17 36 00.0000000  0  8 22 31 19 18 29 14 27 28
   8926440.98908   6955651.06908  21127897.23908  21127903.36508
  -7597381.12708  -5920029.43908  21558472.61508  21558480.50808
   -864188.63908   -673394.43908  19206513.37408  19206517.37008
 -23363022.82309 -18204957.07408  18270309.82909  18270312.92608
 -22511425.45608 -17541381.04908  18360352.05608  18360354.73808
 -16013755.86908 -12478269.94908  20017999.75108  20018005.22808
  -3190930.63608  -2486439.39108  21948150.12508  21948156.59908
  -9705345.94108  -7562599.81208  21427632.77808  21427639.92108
 93 04 09 17 38 00.0000000  0  8 22 31 19 18 29 14 27 28
   9257280.85208   7213447.69208  21190854.55808  21190860.80908
  -7978280.96208  -6216834.23008  21485989.65208  21485997.39908
  -1075507.57208   -838058.60508  19166300.80908  19166304.83208
 -23585045.50909 -18377961.84008  18228060.36309  18228063.42608
 -22489030.27408 -17523930.49708  18364613.92008  18364616.63508
 -15665873.52708 -12207193.42908  20084200.03608  20084205.65608
  -3545067.23008  -2762390.00308  21880760.22108  21880766.66608
  -9946203.91608  -7750281.34608  21381799.13108  21381806.22108
 93 04 09 17 40 00.0000000  0  8 22 31 19 18 29 14 27 28
   9590072.74208   7472765.35408  21254183.25708  21254189.73708
  -8359400.47408  -6513810.14608  21413464.73508  21413472.47708
  -1284958.83108  -1001267.43908  19126443.62108  19126447.64808
 -23803615.93209 -18548276.52208  18186467.91809  18186471.01708
 -22462284.22608 -17503089.64308  18369703.67908  18369706.46408
 -15315967.90908 -11934540.35708  20150785.30608  20150791.17408
  -3899027.50808  -3038203.20508  21813403.87008  21813410.17408
 -10182952.71008  -7934760.88508  21336747.24208  21336754.22608
 93 04 09 17 42 00.0000000  0  8 22 31 19 18 29 14 27 28
   9924613.03508   7733445.36908  21317844.63008  21317851.36908
  -8740572.78908  -6810827.26708  21340929.75808  21340937.54308
  -1492766.25908  -1163195.38108  19086899.21608  19086903.25108
 -24018543.96709 -18715752.98308  18145568.48209  18145571.61308
 -22431251.27308 -17478908.35108  18375609.20308  18375612.10708
 -14963903.51808 -11660205.15808  20217781.48208  20217787.50708
  -4253179.71808  -3314165.97608  21746010.82308  21746017.39508
 -10415532.22508  -8115991.61708  21292488.77308  21292495.70108
 93 04 09 17 44 00.0000000  0  8 22 31 19 18 29 14 27 28
  10260721.61408   7995347.43308  21381804.47908  21381811.45108
  -9121611.55708  -7107740.39708  21268420.37308  21268428.17808
  -1698722.68708  -1323681.00808  19047707.10208  19047711.17108
 -24229937.28609 -18880475.14308  18105341.77409  18105344.92008
 -22395702.91808 -17451208.57008  18382374.00708  18382376.99008
 -14609890.51608 -11384351.58208  20285148.43608  20285154.63308
  -4607040.64408  -3589901.78408  21678673.28808  21678679.90808
 -10643508.56608  -8293635.40408  21249106.25808  21249113.25708
 93 04 09 17 46 00.0000000  0  8 22 31 19 18 29 14 27 28
  10598156.37308   8258282.86608  21446016.73508  21446023.84108
  -9502387.66608  -7404448.94008  21195960.97608  21195968.79708
  -1903072.83108  -1482914.92908  19008820.59808  19008824.62508
 -24437852.44709 -19042487.05608  18065776.87909  18065780.07008
 -22355672.50408 -17420016.28008  18389991.71108  18389994.78408
 -14254275.08008 -11107249.36708  20352820.31008  20352826.69008
  -4960717.58208  -3865494.20408  21611370.85908  21611377.38008
 -10866974.74608  -8467764.79808  21206581.90308  21206588.92308
 93 04 09 17 48 00.0000000  0  8 22 31 19 18 29 14 27 28
  10936913.79708   8522248.91608  21510480.78508  21510488.04408
  -9882536.22208  -7700668.55608  21123621.08708  21123628.91308
  -2105657.24508  -1640772.96108  18970270.09908  18970274.18508
 -24641764.98609 -19201380.03708  18026973.64509  18026976.89008
 -22310899.60808 -17385128.55008  18398511.91508  18398514.98108
 -13897066.24408 -10828905.54008  20420795.46108  20420801.99808
  -5314607.16908  -4141252.33108  21544027.86208  21544034.48508
 -11085546.83608  -8638080.69508  21164989.18908  21164996.08608
 93 04 09 17 50 00.0000000  0  8 22 31 19 18 29 14 27 28
  11276999.61508   8787250.09308  21575197.54808  21575204.96408
 -10261681.91208  -7996106.69508  21051471.98308  21051479.71508
  -2306147.01708  -1796998.78408  18932118.18008  18932122.28508
 -24841550.91909 -19357057.46508  17988955.73109  17988959.01308
 -22261428.02108 -17346579.50408  18407926.21308  18407929.29608
 -13538401.23008 -10549427.04108  20489047.74408  20489054.42008
  -5668266.65508  -4416831.15408  21476728.65908  21476735.29108
 -11299036.15608  -8804436.02508  21124363.41208  21124370.24308
 93 04 09 17 52 00.0000000  0  8 22 27 28 19 18 29 31 14
  11618226.25008   9053140.18108  21640131.37808  21640139.05408
  -6021088.26108  -4691757.07508  21409589.03008  21409595.66508
 -11507317.14208  -8966732.91108  21084728.83808  21084735.63108
  -2504623.33808  -1951655.73008  18894349.43908  18894353.58208
 -25037109.21609 -19509440.62308  17951742.29309  17951745.57708
 -22207146.96808 -17304282.83008  18418255.76408  18418258.90308
 -10639646.09308  -8290624.11808  20979547.73008  20979555.43508
 -13178159.50708 -10268719.95508  20557600.01108  20557606.86708
 93 04 09 17 54 00.0000000  0  8 22 27 28 19 18 29 31 14
  11960322.32408   9319707.80408  21705230.66408  21705238.56008
  -6373747.41808  -4966556.37208  21342480.25408  21342486.70408
 -11710178.66508  -9124806.80508  21046125.72608  21046132.62008
  -2701565.69208  -2105117.35208  18856872.62508  18856876.76208
 -25228308.01509 -19658426.75908  17915358.45909  17915361.70808
 -22148270.60808 -17258405.40508  18429459.76208  18429462.96608
 -11016332.86608  -8584146.09008  20907866.55408  20907874.12708
 -12817076.11908  -9987357.05708  20626312.48908  20626319.56708
 93 04 09 17 56 00.0000000  0  8 22 27 28 19 18 29 31 14
  12302993.99508   9586723.93908  21770439.53108  21770447.60908
  -6726577.98708  -5241489.20808  21275338.69308  21275345.08808
 -11907891.70508  -9278868.85108  21008502.06808  21008509.13508
  -2896843.89409  -2257282.20308  18819712.42009  18819716.53508
 -25415290.66809 -19804127.58508  17879776.89309  17879780.14108
 -22084372.97408 -17208615.31908  18441619.30808  18441622.59908
 -11391671.02408  -8876617.12708  20836441.97308  20836449.32008
 -12455194.24808  -9705371.98708  20695176.94208  20695184.19108
 93 04 09 17 58 00.0000000  0  8 22 27 19 18 29 31 14 28
  12646160.95308   9854126.01608  21835742.69808  21835750.76608
  -7079225.36308  -5516279.25808  21208232.12608  21208238.58608
  -3090740.41009  -2408370.40608  18782815.19209  18782819.35708
 -25597841.09709 -19946374.73408  17845038.75509  17845041.99208
 -22015594.01008 -17155021.60208  18454707.66308  18454711.03008
 -11765377.89908  -9167817.00808  20765327.63508  20765335.03308
 -12092504.59408  -9422757.50308  20764195.09908  20764202.59708
 -12100315.50208  -9428809.40208  20971885.06008  20971891.91908
 93 04 09 18 00 00.0000000  0  8 22 27 19 18 29 31 14 28
  12989739.01908  10121848.49008  21901123.99708  21901132.28108
  -7431753.97708  -5790976.81408  21141148.11608  21141154.60208
  -3282844.16509  -2558061.69808  18746259.08009  18746263.24208
 -25775774.42309 -20085024.15408  17811179.27109  17811182.52708
 -21942186.98308 -17097821.58708  18468676.78908  18468680.21808
 -12137176.70308  -9457530.11708  20694576.45908  20694583.89408
 -11729516.12208  -9139910.21008  20833270.17808  20833277.83008
 -12286895.66508  -9574196.46208  20936379.99708  20936386.88908
 93 04 09 18 02 00.0000000  0  8 27 22 18 19 29 31 14 28
  -7783954.45408  -6065418.70308  21074126.53108  21074133.00008
  13333775.73708  10389928.34308  21966592.51108  21966600.91308
 -25948760.07509 -20219818.24908  17778261.21309  17778264.46608
  -3472983.65809  -2706222.41908  18710076.82809  18710080.97508
 -21863761.39108 -17036711.01908  18483600.95708  18483604.43108
 -12506659.04308  -9745438.21908  20624266.17308  20624273.54908
 -11366068.51408  -8856705.18908  20902432.69108  20902440.54408
 -12467090.54208  -9714607.99908  20902089.91808  20902096.85608
 93 04 09 18 04 00.0000000  0  8 14 22 18 19 29 31 27 28
 -11001888.03508  -8572929.11608  20971734.57108  20971742.76608
  13678346.94108  10658424.71708  22032162.66108  22032171.41508
 -26116453.17509 -20350488.26608  17746350.27709  17746353.57808
  -3661180.85409  -2852869.62608  18674264.06809  18674268.28508
 -21780077.20308 -16971502.83808  18499525.73608  18499529.30708
 -12873394.04808 -10031205.50108  20554478.61108  20554485.88408
  -8135563.46908  -6339399.70208  21007217.51808  21007223.87708
 -12640738.54508  -9849918.15108  20869045.80808  20869052.72108
 93 04 09 18 06 00.0000000  0  8 14 22 18 19 29 31 27 28
 -10637126.71308  -8288700.45808  21041147.11808  21041155.48908
  14023549.84108  10927413.34408  22097853.08308  22097861.94708
 -26278247.72209 -20476562.00808  17715561.88709  17715565.22108
  -3846754.15909  -2997472.23808  18638950.71509  18638954.94908
 -21690795.99808 -16901933.35008  18516515.54708  18516519.20708
 -13236928.01708 -10314478.42408  20485300.19208  20485307.38808
  -8486248.67408  -6612660.80508  20940484.24408  20940490.56908
 -12808008.58308  -9980258.52408  20837215.47008  20837222.31108
 93 04 09 18 08 00.0000000  0  8 14 22 18 19 29 31 27 28
 -10272042.94208  -8004220.55508  21110620.89908  21110629.48208
  14369228.93607  11196773.01408  22163634.14807  22163643.08408
 -26434605.11109 -20598399.00408  17685808.15809  17685811.49008
  -4030190.09709  -3140409.37708  18604044.08509  18604048.34808
 -21595534.18708 -16827703.66808  18534643.52608  18534647.20208
 -13597065.39108 -10595104.61308  20416768.06308  20416775.18108
  -8835949.28008  -6885154.61208  20873938.42008  20873944.72208
 -12968441.26808 -10105271.10108  20806686.24808  20806693.13108
 93 04 09 18 10 00.0000000  0  8 14 22 18 19 29 31 27 28
  -9906793.52008  -7719611.63108  21180126.31508  21180135.18008
  14715119.13307  11466297.17108  22229455.32907  22229464.50408
 -26585317.60709 -20715837.39208  17657128.52809  17657131.87408
  -4211717.25809  -3281859.20008  18569500.65609  18569504.86408
 -21494716.05508 -16749144.41308  18553828.82708  18553832.55808
 -13953722.30908 -10873018.74208  20348898.26608  20348905.21808
  -9185024.32108  -7157160.87508  20807511.41408  20807517.65908
 -13121772.67508 -10224750.18508  20777508.12808  20777515.13908
 93 04 09 18 12 00.0000000  0  8 14 22 18 19 29 31 27 28
  -9541637.84308  -7435075.79208  21249613.84408  21249622.97308
  15061023.50908  11735832.43408  22295279.24408  22295288.60408
 -26730184.55109 -20828720.79408  17629561.37309  17629564.73208
  -4391345.36209  -3421829.19808  18535318.61609  18535322.89808
 -21388763.99608 -16666584.69808  18573991.11708  18573994.93108
 -14306748.54308 -11148103.80508  20281719.30708  20281726.36108
  -9533645.23308  -7428813.26808  20741170.90808  20741177.11308
 -13268564.32008 -10339133.29508  20749574.75808  20749581.72308
 93 04 09 18 14 00.0000000  0  8 14 22 18 19 29 31 27 28
  -9176546.99408  -7150590.52608  21319089.10108  21319098.57808
  15406681.76208  12005175.89908  22361056.31108  22361065.78008
 -26869287.26509 -20937112.60008  17603091.06309  17603094.40908
  -4568997.32109  -3560259.34108  18501512.63709  18501516.92108
 -21277538.12408 -16579915.50408  18595156.91908  18595160.82308
 -14656063.02508 -11420296.64508  20215246.78808  20215253.71208
  -9881647.24108  -7699983.44108  20674948.14708  20674954.27808
 -13408430.78708 -10448120.13608  20722958.99708  20722966.03508
 93 04 09 18 16 00.0000000  0  8 14 22 18 19 29 31 27 28
  -8812475.25008  -6866899.40908  21388370.59308  21388380.33508
  15751860.77108  12274145.92308  22426742.12808  22426751.74008
 -27002703.06209 -21041073.04308  17577702.97309  17577706.33608
  -4744915.28709  -3697338.31908  18468036.52009  18468040.76708
 -21161032.08708 -16489131.88008  18617327.48508  18617331.53808
 -15001560.68408 -11689515.35508  20149500.57208  20149507.46008
 -10229046.73608  -7970684.13708  20608840.05308  20608846.11508
 -13541239.80108 -10551607.66908  20697686.33908  20697693.29708
 93 04 09 18 18 00.0000000  0  8 14 22 18 19 29 31 27 28
  -8449253.37608  -6583870.53708  21457490.22508  21457500.37808
  16096469.79508  12542671.85407  22492319.55508  22492329.31007
 -27130399.03009 -21140576.45708  17553403.15909  17553406.53408
  -4919144.33509  -3833101.21708  18434881.84009  18434886.18208
 -21039083.11608 -16394107.02508  18640533.85408  18640537.99108
 -15342995.95808 -11955568.55408  20084527.39908  20084534.28608
 -10576081.03308  -8241100.30708  20542801.54408  20542807.53308
 -13667092.84908 -10649674.98708  20673737.35308  20673744.26508
 93 04 09 18 20 00.0000000  0  8 14 22 18 19 29 31 27 28
  -8086683.61208  -6301349.82908  21526485.83408  21526496.18308
  16440542.68208  12810780.02107  22557794.83308  22557804.61707
 -27251833.89009 -21235201.08008  17530294.98609  17530298.39908
  -5091069.52909  -3967068.90608  18402165.57709  18402169.89408
 -20911724.26608 -16294866.72308  18664769.71008  18664773.91608
 -15680003.80408 -12218171.78608  20020396.77208  20020403.56508
 -10922444.69508  -8510993.91108  20476890.51908  20476896.52208
 -13785611.96608 -10742027.56808  20651183.87508  20651190.83808
 93 04 09 18 22 00.0000000  0  8 14 22 18 19 31 29 27 28
  -7724997.86208  -6019517.97508  21595313.32508  21595323.92908
  16784113.52808  13078496.97807  22623174.67708  22623184.60807
 -27366901.86209 -21324864.49808  17508398.27109  17508401.69308
  -5260882.10109  -4099390.40208  18369851.34609  18369855.61308
 -16012225.68508 -12477045.68908  19957176.84008  19957183.50208
 -20778852.19208 -16191330.41608  18690054.72608  18690058.99308
 -11268100.89308  -8780336.32508  20411114.28108  20411120.26708
 -13896442.99608 -10828389.44008  20630093.24008  20630100.49808
 93 04 09 18 24 00.0000000  0  8 14 22 18 19 31 29 27 28
  -7364519.77408  -5738627.18208  21663910.93108  21663921.81808
  17126899.04507  13345602.03207  22688405.05607  22688415.12407
 -27475711.17709 -21409651.06208  17487692.67909  17487696.14908
  -5429004.47509  -4230394.89008  18337858.75609  18337863.01708
 -16339624.45108 -12732161.36008  19894874.73408  19894881.29108
 -20640551.91808 -16083564.36008  18716372.78608  18716377.10908
 -11613044.12008  -9049123.15908  20345473.66508  20345479.75908
 -13999918.52708 -10909019.76308  20610402.69708  20610409.82808
 93 04 09 18 26 00.0000000  0  8 14 18 19 22 31 29 27 28
  -7005221.22808  -5458655.57808  21732284.28108  21732295.47408
 -27577944.89809 -21489313.82108  17468238.36309  17468241.80808
  -5595189.99809  -4359890.12208  18306234.71609  18306239.00708
  17468865.68807  13612068.97607  22753479.49507  22753489.72307
 -16661915.54408 -12983297.07408  19833544.61808  19833551.18508
 -20496742.56808 -15971505.50308  18743739.05708  18743743.47908
 -11957307.99508  -9317380.68608  20279962.39508  20279968.51108
 -14096116.47208 -10983979.22808  20592096.81308  20592103.91008
 93 04 09 18 28 00.0000000  0  8 14 18 19 22 31 29 27 28
  -6647398.12508  -5179833.70008  21800376.56108  21800388.00408
 -27673835.69609 -21564034.04608  17449991.05409  17449994.52008
  -5759342.85709  -4487801.47908  18274997.52609  18275001.76608
  17810002.10507  13877889.15007  22818396.01907  22818406.27107
 -16978799.57408 -13230219.50508  19773243.43308  19773249.95208
 -20347363.61108 -15855106.72308  18772165.19108  18772169.75408
 -12300684.15608  -9584946.49908  20214620.05308  20214626.12908
 -14184525.31908 -11052869.28108  20575273.17508  20575280.19808
 93 04 09 18 30 00.0000000  0  8 14 19 18 22 31 29 27 28
  -6290808.98108  -4901973.28808  21868234.23308  21868246.14708
  -5921342.52709  -4614035.01108  18244170.02109  18244174.35308
 -27763066.65909 -21633564.78808  17433011.05009  17433014.53408
  18150118.51007  14142914.51106  22883118.20007  22883128.59506
 -17290159.77108 -13472837.64608  19713993.42808  19713999.93308
 -20192456.16808 -15734400.03708  18801643.38508  18801648.06208
 -12643288.10208  -9851910.53208  20149424.64608  20149430.64408
 -14264988.33608 -11115567.80508  20559961.65108  20559968.79508
 93 04 09 18 32 00.0000000  0  8 14 19 18 22 31 29 27 28
  -5936279.36508  -4625717.81807  21935699.96008  21935712.07007
  -6081459.47509  -4738801.49008  18213700.79909  18213705.13508
 -27845293.41109 -21697637.69008  17417363.91009  17417367.41908
  18489017.79607  14406991.43406  22947608.90607  22947619.40106
 -17595895.55308 -13711073.13808  19655813.66308  19655820.15408
 -20032212.18208 -15609535.02908  18832137.12608  18832141.93108
 -12985393.75408 -10118486.26708  20084324.05508  20084330.03208
 -14337946.09108 -11172418.08308  20546078.50008  20546085.42708
 93 04 09 18 34 00.0000000  0  7 14 18 19 31 29 27 28
  -5583804.02308  -4351063.01508  22002774.84508  22002787.22008
 -27920926.27909 -21756572.49308  17402971.47709  17402975.07108
  -6239789.11409  -4862175.25208  18183571.69809  18183576.07308
 -17895921.18008 -13944859.16208  19598720.55308  19598727.00308
 -19866550.01208 -15480448.06608  18863661.94808  18863666.85308
 -13326724.31908 -10384457.97408  20019370.85608  20019376.76908
 -14402979.80308 -11223093.78108  20533702.98908  20533710.00408
 93 04 09 18 36 00.0000000  0  8 11 14 18 19 31 29 27 28
         0.08218        -0.28018  21581050.32218  21581062.58018
  -5233366.86308  -4077996.57907  22069462.12608  22069474.53207
 -27990098.92909 -21810473.38108  17389808.51409  17389812.11208
  -6396501.37809  -4984288.73708  18153750.36909  18153754.74608
 -18190095.17108 -14174085.45108  19542740.99208  19542747.31808
 -19695594.27308 -15347236.24608  18896194.11108  18896199.08108
 -13667393.34308 -10649914.18808  19954543.58608  19954549.47908
 -14460611.81608 -11268001.92308  20522735.91408  20522743.23708
 93 04 09 18 38 00.0000000  0  8 11 14 18 19 31 29 27 28
   -398981.82808   -310894.51808  21505125.98008  21505138.05208
  -4885094.76408  -3806617.20408  22135737.19508  22135750.41808
 -28052329.34409 -21858964.74008  17377966.51909  17377970.10208
  -6551328.01209  -5104932.90808  18124287.85409  18124292.23108
 -18478124.20608 -14398523.44708  19487930.74108  19487936.98508
 -19519800.87708 -15210254.84608  18929646.78808  18929651.90508
 -14007448.08708 -10914891.73008  19889833.17308  19889839.07708
 -14510407.64708 -11306803.97208  20513260.15708  20513267.36708
 93 04 09 18 40 00.0000000  0  8 11 14 18 19 31 29 27 28
   -795613.06308   -619956.99408  21429648.92308  21429660.76308
  -4539311.15607  -3537176.98707  22201538.42107  22201551.97307
 -28107635.49609 -21902060.55908  17367442.22609  17367445.83708
  -6703972.59609  -5223876.76808  18095240.58409  18095244.99008
 -18759754.95608 -14617975.77408  19434338.03108  19434344.24008
 -19338652.43508 -15069100.71108  18964118.58108  18964123.81008
 -14346709.74008 -11179251.25608  19825273.69408  19825279.50508
 -14552218.57108 -11339384.03408  20505303.99708  20505311.06708
 93 04 09 18 42 00.0000000  0  8 11 14 18 19 31 29 27 28
  -1189628.58808   -926981.25008  21354669.55608  21354681.34108
  -4195961.43707  -3269633.37207  22266877.29107  22266890.91007
 -28155965.11309 -21939720.10008  17358245.40509  17358249.06808
  -6854669.01509  -5341302.57508  18066564.09009  18066568.46008
 -19034779.50108 -14832280.42308  19382002.43408  19382008.62508
 -19152007.58908 -14923663.67908  18999636.25908  18999641.62408
 -14685394.15708 -11443161.03208  19760824.06708  19760829.83608
 -14586303.53308 -11365943.85308  20498818.03008  20498825.15008
 93 04 09 18 44 00.0000000  0  8 11 14 18 19 31 29 27 28
  -1580874.34808  -1231847.26808  21280217.45008  21280228.90808
  -3855248.67607  -3004144.59307  22331713.84707  22331728.25507
 -28197147.86009 -21971810.66108  17350408.73009  17350412.38408
  -7003679.18409  -5457414.42908  18038208.39909  18038212.78208
 -19303105.98408 -15041365.83308  19330941.46308  19330947.63308
 -18960457.12608 -14774404.08108  19036087.50008  19036092.97108
 -15023176.57008 -11706367.92408  19696546.11408  19696551.86408
 -14612227.05408 -11386144.07408  20493884.91808  20493892.11008
 93 04 09 18 46 00.0000000  0  8 11 14 19 18 31 29 27 28
  -1969277.58708  -1534498.36208  21206306.15608  21206317.56408
  -3517666.08808  -2741094.93706  22395955.23408  22395969.39206
  -7150690.86209  -5571969.00608  18010232.99709  18010237.38208
 -28231468.56009 -21998554.20508  17343877.85109  17343881.54808
 -19564726.60308 -15245225.91508  19281156.60208  19281162.74408
 -18764003.21608 -14621323.63408  19073471.89308  19073477.43308
 -15360276.85708 -11969043.34808  19632397.91308  19632403.62608
 -14630518.61508 -11400397.29708  20490404.29208  20490411.55608
 93 04 09 18 48 00.0000000  0  7 11 19 18 31 29 27 28
  -2354727.53708  -1834848.24508  21132956.96608  21132968.06208
  -7296050.61709  -5685236.37708  17982571.93209  17982576.32108
 -28258873.09409 -22019908.54808  17338663.06609  17338666.85408
 -19819599.79808 -15443828.28308  19232655.83908  19232661.85208
 -18562400.09308 -14464230.83708  19111836.06208  19111841.73808
 -15696691.67508 -12231184.61808  19568380.20708  19568385.84908
 -14641301.10408 -11408799.32308  20488352.26908  20488359.70708
 93 04 09 18 50 00.0000000  0  8 11 02 19 18 31 29 27 28
  -2736941.64308  -2132676.74208  21060223.38508  21060234.39708
         0.10718        -0.01618  21096057.83218  21096066.84918
  -7439840.62309  -5797280.54508  17955209.64609  17955214.08508
 -28279229.70009 -22035770.98508  17334789.44909  17334793.28108
 -20067515.38708 -15637009.14708  19185478.98808  19185484.96908
 -18355800.90408 -14303245.05608  19151150.99408  19151156.87008
 -16032687.78208 -12492999.64608  19504442.19208  19504447.78008
 -14644342.67408 -11411169.48408  20487773.96008  20487781.15508
 93 04 09 18 52 00.0000000  0  8 19 18 11 31 29 02 27 28
  -7581682.62409  -5907806.79108  17928218.03609  17928222.49408
 -28292675.84509 -22046248.63508  17332230.79909  17332234.66808
  -3115522.54408  -2427674.20508  20988181.45008  20988192.18208
 -20308153.89708 -15824519.54708  19139686.86408  19139692.92408
 -18144609.25308 -14138680.75208  19191339.95008  19191346.00508
   -444834.48508   -346624.06508  21011408.45308  21011417.35608
 -16368229.25108 -12754460.38908  19440590.65108  19440596.24408
 -14639557.00608 -11407440.53508  20488684.53608  20488691.78508
 93 04 09 18 54 00.0000000  0  8 19 18 11 31 29 02 27 28
  -7721391.39309  -6016670.79808  17901632.32009  17901636.76208
 -28298680.97909 -22050928.09308  17331088.15409  17331092.01508
  -3490001.33208  -2719475.21608  20916920.00108  20916930.70008
 -20541125.01808 -16006055.34808  19095353.81908  19095359.91708
 -17928400.74808 -13970207.20708  19232483.52408  19232489.68808
   -886865.94108   -691063.86808  20927292.47308  20927301.28008
 -16702277.53708 -13014757.58708  19377023.23908  19377028.82408
 -14626799.03208 -11397499.46208  20491112.27608  20491119.67408
 93 04 09 18 56 00.0000000  0  8 19 18 11 31 29 02 27 28
  -7858789.70009  -6123734.47108  17875486.35409  17875490.81808
 -28296749.74709 -22049423.42308  17331455.80809  17331459.69708
  -3859960.08608  -3007754.12208  20846518.71608  20846529.17508
 -20766095.46708 -16181356.88008  19052543.26208  19052549.28808
 -17707082.88908 -13797752.33908  19274599.38308  19274605.68308
  -1326246.44608  -1033438.09608  20843680.99408  20843689.78708
 -17035183.84408 -13274164.92008  19313673.15908  19313678.66808
 -14605282.91108 -11380733.87008  20495206.88808  20495214.40608
 93 04 09 18 58 00.0000000  0  8 19 18 11 31 29 02 27 28
  -7993874.75109  -6228995.62408  17849780.59209  17849785.08608
 -28287387.75609 -22042128.54008  17333237.45409  17333241.40408
  -4225083.95108  -3292265.60408  20777037.52708  20777047.73008
 -20982837.72408 -16350246.84808  19011298.54308  19011304.50808
 -17480438.27208 -13621146.78108  19317728.88608  19317735.35308
  -1762146.99508  -1373100.62408  20760731.75308  20760740.36508
 -17367006.40208 -13532727.76008  19250529.30308  19250534.76608
 -14575647.69708 -11357641.74408  20500846.39808  20500854.15708
 93 04 09 19 00 00.0000000  0  8 19 18 11 31 29 02 27 28
  -8126486.49609  -6332329.51908  17824545.43509  17824549.96308
 -28269966.39609 -22028553.62108  17336552.78209  17336556.81508
  -4585137.70008  -3572826.39208  20708521.06808  20708531.24608
 -21191206.60208 -16512612.10608  18971647.19108  18971653.08408
 -17248452.12108 -13440379.02208  19361874.87008  19361881.55108
  -2194718.77508  -1710169.23508  20678415.79308  20678424.39208
 -17697395.75608 -13790173.82108  19187658.17908  19187663.56408
 -14538157.67108 -11328429.03208  20507980.77508  20507988.47108
 93 04 09 19 02 00.0000000  0  8 19 18 11 31 29 02 27 28
  -8256616.90109  -6433729.86908  17799782.48009  17799787.02208
 -28245007.49709 -22009105.29608  17341302.43709  17341306.50008
  -4939972.39608  -3849320.47008  20640997.97408  20641008.03608
 -21391148.57908 -16668410.94008  18933599.41908  18933605.31808
 -17011443.45508 -13255697.67008  19406976.70208  19406983.51408
  -2624138.04708  -2044781.28808  20596699.76508  20596708.27408
 -18026391.86908 -14046534.23708  19125052.11108  19125057.43108
 -14491858.14608 -11292351.79508  20516791.55708  20516799.23508
 93 04 09 19 04 00.0000000  0  8 19 18 11 31 29 02 27 28
  -8384314.52009  -6533234.53408  17775482.41109  17775486.89208
 -28212616.50909 -21983865.75608  17347466.36009  17347470.43408
  -5289544.59808  -4121713.92808  20574476.31508  20574486.11708
 -21582718.08708 -16817685.77408  18897144.82608  18897150.76308
 -16769791.07908 -13067397.87808  19452962.18308  19452969.15608
  -3050660.40908  -2377136.02108  20515534.99708  20515543.37808
 -18353918.90608 -14301749.93808  19062725.63008  19062730.95908
 -14437634.09408 -11250099.59608  20527110.32308  20527117.93308
 93 04 09 19 06 00.0000000  0  8 19 18 11 31 29 02 27 28
  -8510058.74109  -6631217.06208  17751554.12709  17751558.63808
 -28172304.10809 -21952453.68908  17355137.68509  17355141.85908
  -5633778.55208  -4389947.70408  20508970.39508  20508980.06408
 -21765939.23008 -16960455.40108  18862278.98608  18862284.83908
 -16523408.75808 -12875412.43708  19499847.73308  19499854.98008
  -3473835.54908  -2706882.53508  20435007.15608  20435015.44408
 -18680523.26108 -14556246.66908  19000574.84508  19000580.12808
 -14375915.93508 -11202007.84108  20538855.11308  20538862.76908
 93 04 09 19 08 00.0000000  0  8 19 18 11 31 29 02 27 28
  -8633621.72809  -6727499.96208  17728040.93509  17728045.44408
 -28124722.40209 -21915377.24508  17364192.42809  17364196.67108
  -5972538.05308  -4653915.62808  20444506.18408  20444515.85308
 -21940781.71908 -17096696.22508  18829007.54308  18829013.38908
 -16272598.34008 -12679976.53908  19547575.99008  19547583.40808
  -3893970.32408  -3034259.91208  20355057.95208  20355066.16008
 -19006238.90208 -14810050.91108  18938593.12008  18938598.31008
 -14306187.03608 -11147673.98808  20552124.29108  20552132.03808
 93 04 09 19 10 00.0000000  0  8 19 18 11 31 29 02 27 28
  -8754904.44409  -6822006.02908  17704961.64209  17704966.16208
 -28069878.89409 -21872642.25808  17374628.89009  17374633.17608
  -6305431.16308  -4913312.34508  20381158.30808  20381167.84908
 -22106962.08608 -17226187.36408  18797384.42508  18797390.23508
 -16017475.69808 -12481180.50308  19596124.82708  19596132.44608
  -4310370.46708  -3358727.17608  20275819.22108  20275827.46008
 -19330654.92808 -15062842.48008  18876858.68708  18876863.84108
 -14228749.54708 -11087333.44208  20566860.41008  20566868.46308
 93 04 09 19 12 00.0000000  0  8 19 18 11 31 29 02 27 28
  -8873950.38709  -6914769.15208  17682307.98809  17682312.53508
 -28007527.19309 -21824056.74108  17386494.22509  17386498.52208
  -6632242.31908  -5167969.91308  20318967.90508  20318977.32608
 -22264375.83008 -17348847.35608  18767429.46608  18767435.29708
 -15757779.41408 -12278820.63308  19645544.10108  19645551.86208
  -4723691.25008  -3680794.94908  20197166.69908  20197174.77908
 -19653663.96108 -15314537.70008  18815392.02108  18815397.16408
 -14143694.25208 -11021056.92908  20583046.30308  20583054.45208
 93 04 09 19 14 00.0000000  0  8 19 18 11 31 29 02 27 28
  -8990379.49309  -7005493.16408  17660152.30909  17660156.85008
 -27937617.54909 -21769581.92308  17399797.74909  17399802.11908
  -6952799.76808  -5417754.49908  20257967.47208  20257976.81108
 -22412965.28108 -17464631.26408  18739153.81108  18739159.57808
 -15493720.20508 -12073061.12108  19695793.57508  19695801.50908
  -5133515.61908  -4000138.25508  20119179.42608  20119187.48308
 -19975230.21308 -15565108.66808  18754199.86008  18754204.97608
 -14050830.15008 -10948695.62808  20600718.12008  20600726.17508
 93 04 09 19 16 00.0000000  0  8 19 18 11 31 29 02 27 28
  -9104607.19509  -7094501.79608  17638415.53009  17638420.04908
 -27860148.16009 -21709216.39708  17414539.83509  17414544.28108
  -7266979.34508  -5662569.31708  20198180.70208  20198189.88308
 -22552722.90308 -17573533.23308  18712558.80108  18712564.53508
 -15225281.62008 -11863889.16408  19746876.49308  19746884.66908
  -5539601.13308  -4316568.20308  20041903.64708  20041911.59808
 -20295760.22908 -15814872.16308  18693204.89508  18693210.00108
 -13950452.21708 -10870479.41808  20619819.62708  20619827.80908
 93 04 09 19 18 00.0000000  0  8 19 18 11 31 29 02 27 28
  -9216801.43509  -7181925.92208  17617065.68309  17617070.23008
 -27775131.17509 -21642969.64008  17430718.21109  17430722.69608
  -7574603.67808  -5902276.16308  20139641.44608  20139650.60008
 -22683592.49408 -17675509.48508  18687655.13508  18687660.87808
 -14952987.99408 -11651713.31808  19798693.01908  19798701.45808
  -5942052.08208  -4630166.05308  19965319.60508  19965327.50808
 -20614994.19608 -16063625.74408  18632456.56308  18632461.62608
 -13842836.93508 -10786623.71808  20640298.29708  20640306.69008
